[[{"header":{"parameterUnit":"m.s-1","parameterCategory":1,"la1":31.0,"la2":29.5877,"lo1":-88.7671,"lo2":-86.6584,"dy":0.0162,"dx":0.0185,"nx":115,"ny":88,"refTime":"2023-08-24T06:00:00:Z","depth":0,"parameterNumber":2,"parameterNumberName":"U-component_of_WINDS"},"data":[0.0,0.0,0.0,0.0,0.0,0.0,0.0,0.0,0.0,0.0,0.0,0.0,0.0,0.0,0.0,0.0,0.0,0.0,0.0,0.0,0.0,0.0,0.0,0.0,0.0,0.0,0.0,0.0,0.0,0.0,0.0,0.0,0.0,0.0,0.0,0.0,0.0,0.0,0.0,0.0,0.0,0.0,0.0,0.0,0.0,0.0,0.0,0.0,0.0,0.0,0.0,0.0,0.0,0.0,0.0,0.0,0.0,0.0,0.0,0.0,0.0,0.0,0.0,0.0,0.0,0.0,0.0,0.0,0.0,0.0,0.0,0.0,0.0,0.0,0.0,0.0,0.0,0.0,0.0,0.0,0.0,0.0,0.0,0.0,0.0,0.0,0.0,0.0,0.0,0.0,0.0,0.0,0.0,0.0,0.0,0.0,0.0,0.0,0.0,0.0,0.0,0.0,0.0,0.0,0.0,0.0,0.0,0.0,0.0,0.0,0.0,0.0,0.0,0.0,0.0,0.0,0.0,0.0,0.0,0.0,0.0,0.0,0.0,0.0,0.0,0.0,0.0,0.0,0.0,0.0,0.0,0.0,0.0,0.0,0.0,0.0,0.0,0.0,0.0,0.0,0.0,0.0,0.0,0.0,0.0,0.0,0.0,0.0,0.0,0.0,0.0,0.0,0.0,0.0,0.0,0.0,0.0,0.0,0.0,0.0,0.0,0.0,0.0,0.0,0.0,0.0,0.0,0.0,0.0,0.0,0.0,0.0,0.0,0.0,0.0,0.0,0.0,0.0,0.0,0.0,0.0,0.0,0.0,0.0,0.0,0.0,0.0,0.0,0.0,0.0,0.0,0.0,0.0,0.0,0.0,0.0,0.0,0.0,0.0,0.0,0.0,0.0,0.0,0.0,0.0,0.0,0.0,0.0,0.0,0.0,0.0,0.0,0.0,0.0,0.0,0.0,0.0,0.0,0.0,0.0,0.0,0.0,0.0,0.0,0.0,0.0,0.0,0.0,0.0,0.0,0.0,0.0,0.0,0.0,0.0,0.0,0.0,0.0,0.0,0.0,0.0,0.0,0.0,0.0,0.0,0.0,0.0,0.0,0.0,0.0,0.0,0.0,0.0,0.0,0.0,0.0,0.0,0.0,0.0,0.0,0.0,0.0,0.0,0.0,0.0,0.0,0.0,0.0,0.0,0.0,0.0,0.0,0.0,0.0,0.0,0.0,0.0,0.0,0.0,0.0,0.0,0.0,0.0,0.0,0.0,0.0,0.0,0.0,0.0,0.0,0.0,0.0,0.0,0.0,0.0,0.0,0.0,0.0,0.0,0.0,0.0,0.0,0.0,0.0,0.0,0.0,0.0,0.0,0.0,0.0,0.0,0.0,0.0,0.0,0.0,0.0,0.0,0.0,0.0,0.0,0.0,0.0,0.0,0.0,0.0,0.0,0.0,0.0,0.0,0.0,0.0,0.0,0.0,0.0,0.0,0.0,0.0,0.0,0.0,0.0,0.0,0.0,0.0,0.0,0.0,0.0,0.0,0.0,0.0,0.0,0.0,0.0,0.0,0.0,0.0,0.0,0.0,0.0,0.0,0.0,0.0,0.0,0.0,0.0,0.0,0.0,0.0,0.0,0.0,0.0,0.0,0.0,0.0,0.0,0.0,0.0,0.0,0.0,0.0,0.0,0.0,0.0,0.0,0.0,0.0,0.0,0.0,0.0,0.0,0.0,0.0,0.0,0.0,0.0,0.0,0.0,0.0,0.0,0.0,0.0,0.0,0.0,0.0,0.0,0.0,0.0,0.0,0.0,0.0,0.0,0.0,0.0,0.0,0.0,0.0,0.0,0.0,0.0,0.0,0.0,0.0,0.0,0.0,0.0,0.0,0.0,0.0,0.0,0.0,0.0,0.0,0.0,0.0,0.0,0.0,0.0,0.0,0.0,0.0,0.0,0.0,0.0,0.0,0.0,0.0,0.0,0.0,0.0,0.0,0.0,0.0,0.0,0.0,0.0,0.0,0.0,0.0,0.0,0.0,0.0,0.0,0.0,0.0,0.0,0.0,0.0,0.0,0.0,0.0,0.0,0.0,0.0,0.0,0.0,0.0,0.0,0.0,0.0,0.0,0.0,0.0,0.0,0.0,0.0,0.0,0.0,0.0,0.0,0.0,0.0,0.0,0.0,0.0,0.0,0.0,0.0,0.0,0.0,0.0,0.0,0.0,0.0,0.0,0.0,0.0,0.0,0.0,0.0,0.0,0.0,0.0,0.0,0.0,0.0,0.0,0.0,0.0,0.0,0.0,0.0,0.0,0.0,0.0,0.0,0.0,0.0,0.0,0.0,0.0,0.0,0.0,0.0,0.0,0.0,0.0,0.0,0.0,0.0,0.0,0.0,0.0,0.0,0.0,0.0,0.0,0.0,0.0,0.0,0.0,0.0,0.0,0.0,0.0,0.0,0.0,0.0,0.0,0.0,0.0,0.0,0.0,0.0,0.0,0.0,0.0,0.0,0.0,0.0,0.0,0.0,0.0,0.0,0.0,0.0,0.0,0.0,0.0,0.0,0.0,0.0,0.0,0.0,0.0,0.0,0.0,0.0,0.0,0.0,0.0,0.0,0.0,0.0,0.0,0.0,0.0,0.0,0.0,0.0,0.0,0.0,0.0,0.0,0.0,0.0,0.0,0.0,0.0,0.0,0.0,0.0,0.0,0.0,0.0,0.0,0.0,0.0,0.0,0.0,0.0,0.0,0.0,0.0,0.0,0.0,0.0,0.0,0.0,0.0,0.0,0.0,0.0,0.0,0.0,0.0,0.0,0.0,0.0,0.0,0.0,0.0,0.0,0.0,0.0,0.0,0.0,0.0,0.0,0.0,0.0,0.0,0.0,0.0,0.0,0.0,0.0,0.0,0.0,0.0,0.0,0.0,0.0,0.0,0.0,0.0,0.0,0.0,0.0,0.0,0.0,0.0,0.0,0.0,0.0,0.0,0.0,0.0,0.0,0.0,0.0,0.0,0.0,0.0,0.0,0.0,0.0,0.0,0.0,0.0,0.0,0.0,0.0,0.0,0.0,0.0,0.0,0.0,0.0,0.0,0.0,0.0,0.0,0.0,0.0,0.0,0.0,0.0,0.0,0.0,0.0,0.0,0.0,0.0,0.0,0.0,0.0,0.0,0.0,0.0,0.0,0.0,0.0,0.0,0.0,0.0,0.0,0.0,0.0,0.0,0.0,0.0,0.0,0.0,0.0,0.0,0.0,0.0,0.0,0.0,0.0,0.0,0.0,0.0,0.0,0.0,0.0,0.0,0.0,0.0,0.0,0.0,0.0,0.0,0.0,0.0,0.0,0.0,0.0,0.0,0.0,0.0,0.0,0.0,0.0,0.0,0.0,0.0,0.0,0.0,0.0,0.0,0.0,0.0,0.0,0.0,0.0,0.0,0.0,0.0,0.0,0.0,0.0,0.0,0.0,0.0,0.0,0.0,0.0,0.0,0.0,0.0,0.0,0.0,0.0,0.0,0.0,0.0,0.0,0.0,0.0,0.0,0.0,0.0,0.0,0.0,0.0,0.0,0.0,0.0,0.0,0.0,0.0,0.0,0.0,0.0,0.0,0.0,0.0,0.0,0.0,0.0,0.0,0.0,0.0,0.0,0.0,0.0,0.0,0.0,0.0,0.0,0.0,0.0,0.0,0.0,0.0,0.0,0.0,0.0,0.0,0.0,0.0,0.0,0.0,0.0,0.0,0.0,0.0,0.0,0.0,0.0,0.0,0.0,0.0,0.0,0.0,0.0,0.0,0.0,0.0,0.0,0.0,0.0,0.0,0.0,0.0,0.0,0.0,0.0,0.0,0.0,0.0,0.0,0.0,0.0,0.0,0.0,0.0,0.0,0.0,0.0,0.0,0.0,0.0,0.0,0.0,0.0,0.0,0.0,0.0,0.0,0.0,0.0,0.0,0.0,0.0,0.0,0.0,0.0,0.0,0.0,0.0,0.0,0.0,0.0,0.0,0.0,0.0,0.0,0.0,0.0,0.0,0.0,0.0,0.0,0.0,0.0,0.0,0.0,0.0,0.0,0.0,0.0,0.0,0.0,0.0,0.0,0.0,0.0,0.0,0.0,0.0,0.0,0.0,0.0,0.0,0.0,0.0,0.0,0.0,0.0,0.0,0.0,0.0,0.0,0.0,0.0,0.0,0.0,0.0,0.0,0.0,0.0,0.0,0.0,0.0,0.0,0.0,0.0,0.0,0.0,0.0,0.0,0.0,0.0,0.0,0.0,-2.4192,0.0,0.0,0.0,0.0,0.0,0.0,0.0,0.0,0.0,0.0,0.0,0.0,0.0,0.0,0.0,0.0,0.0,0.0,0.0,0.0,0.0,0.0,0.0,0.0,0.0,0.0,0.0,0.0,0.0,0.0,0.0,0.0,0.0,0.0,0.0,0.0,0.0,0.0,0.0,0.0,0.0,0.0,0.0,0.0,0.0,0.0,0.0,0.0,0.0,0.0,0.0,0.0,0.0,0.0,0.0,0.0,0.0,0.0,0.0,0.0,0.0,0.0,0.0,0.0,0.0,0.0,0.0,0.0,0.0,0.0,0.0,0.0,0.0,0.0,0.0,0.0,0.0,0.0,0.0,0.0,0.0,0.0,0.0,0.0,0.0,0.0,0.0,0.0,0.0,0.0,0.0,0.0,0.0,0.0,0.0,0.0,0.0,0.0,0.0,0.0,0.0,0.0,0.0,0.0,0.0,0.0,0.0,0.0,0.0,0.0,-2.4857,-2.5091,-2.4874,-2.4681,-2.4538,0.0,0.0,0.0,0.0,0.0,0.0,0.0,0.0,0.0,0.0,0.0,0.0,0.0,0.0,0.0,0.0,0.0,0.0,0.0,0.0,0.0,0.0,0.0,0.0,0.0,0.0,0.0,0.0,0.0,0.0,0.0,0.0,0.0,0.0,0.0,0.0,0.0,0.0,0.0,0.0,0.0,0.0,0.0,0.0,0.0,0.0,0.0,0.0,0.0,0.0,0.0,0.0,0.0,0.0,0.0,0.0,0.0,0.0,0.0,0.0,0.0,0.0,0.0,0.0,0.0,0.0,0.0,0.0,0.0,0.0,0.0,0.0,0.0,0.0,0.0,0.0,0.0,0.0,0.0,0.0,0.0,0.0,0.0,0.0,0.0,0.0,0.0,0.0,0.0,0.0,0.0,0.0,0.0,0.0,0.0,0.0,0.0,0.0,0.0,0.0,0.0,0.0,0.0,0.0,0.0,0.0,0.0,0.0,0.0,0.0,0.0,0.0,-2.5804,-2.5648,-2.54,0.0,0.0,0.0,0.0,0.0,0.0,0.0,0.0,0.0,0.0,0.0,0.0,0.0,0.0,0.0,0.0,0.0,0.0,0.0,0.0,0.0,0.0,0.0,0.0,0.0,0.0,0.0,0.0,0.0,0.0,0.0,0.0,0.0,0.0,0.0,0.0,0.0,0.0,0.0,0.0,0.0,0.0,0.0,0.0,0.0,0.0,0.0,0.0,0.0,0.0,0.0,0.0,0.0,0.0,0.0,0.0,0.0,0.0,0.0,0.0,0.0,0.0,0.0,0.0,0.0,0.0,0.0,0.0,0.0,0.0,0.0,0.0,0.0,0.0,0.0,0.0,0.0,0.0,0.0,0.0,0.0,0.0,0.0,0.0,0.0,0.0,0.0,0.0,0.0,0.0,0.0,0.0,0.0,0.0,0.0,0.0,0.0,0.0,0.0,0.0,0.0,0.0,0.0,0.0,0.0,0.0,0.0,0.0,0.0,0.0,-2.5476,-2.759,-2.7517,0.0,-2.7186,0.0,0.0,0.0,0.0,0.0,0.0,0.0,0.0,0.0,0.0,0.0,0.0,0.0,0.0,0.0,0.0,0.0,0.0,0.0,0.0,0.0,0.0,0.0,0.0,0.0,0.0,0.0,0.0,0.0,0.0,0.0,0.0,0.0,0.0,0.0,0.0,0.0,0.0,0.0,0.0,0.0,0.0,0.0,0.0,0.0,0.0,0.0,0.0,0.0,0.0,0.0,0.0,0.0,0.0,0.0,0.0,0.0,0.0,0.0,0.0,0.0,0.0,0.0,0.0,0.0,0.0,0.0,0.0,0.0,0.0,0.0,0.0,0.0,0.0,0.0,0.0,0.0,0.0,0.0,0.0,0.0,0.0,0.0,0.0,0.0,0.0,0.0,0.0,0.0,0.0,0.0,0.0,0.0,0.0,0.0,0.0,0.0,0.0,0.0,0.0,0.0,0.0,0.0,0.0,0.0,0.0,0.0,0.0,0.0,0.0,-2.676,-2.8105,-2.8038,-2.7918,0.0,0.0,0.0,0.0,0.0,0.0,0.0,0.0,0.0,0.0,0.0,0.0,0.0,0.0,0.0,0.0,0.0,0.0,0.0,0.0,0.0,0.0,0.0,0.0,0.0,0.0,0.0,0.0,0.0,0.0,0.0,0.0,0.0,0.0,0.0,0.0,0.0,0.0,0.0,0.0,0.0,0.0,0.0,0.0,0.0,0.0,0.0,0.0,0.0,0.0,0.0,0.0,0.0,0.0,0.0,0.0,0.0,0.0,0.0,0.0,0.0,0.0,0.0,0.0,0.0,0.0,0.0,0.0,0.0,0.0,0.0,0.0,0.0,0.0,0.0,0.0,0.0,0.0,0.0,0.0,0.0,0.0,0.0,0.0,0.0,0.0,0.0,0.0,0.0,0.0,0.0,0.0,0.0,0.0,0.0,0.0,0.0,0.0,0.0,0.0,0.0,0.0,0.0,0.0,0.0,0.0,0.0,0.0,0.0,0.0,-2.6926,-2.7833,-2.888,-2.8925,-2.8615,-2.8008,0.0,0.0,0.0,0.0,0.0,0.0,0.0,0.0,0.0,0.0,0.0,0.0,0.0,0.0,0.0,0.0,0.0,0.0,0.0,0.0,0.0,0.0,0.0,0.0,0.0,0.0,0.0,0.0,0.0,0.0,0.0,0.0,0.0,0.0,0.0,0.0,0.0,0.0,0.0,0.0,0.0,0.0,0.0,0.0,0.0,0.0,0.0,0.0,0.0,0.0,0.0,0.0,0.0,0.0,0.0,0.0,0.0,0.0,0.0,0.0,0.0,0.0,0.0,0.0,0.0,0.0,0.0,0.0,0.0,0.0,0.0,0.0,0.0,0.0,0.0,0.0,0.0,0.0,0.0,0.0,0.0,0.0,0.0,0.0,0.0,0.0,0.0,0.0,0.0,0.0,0.0,0.0,0.0,0.0,0.0,0.0,0.0,0.0,0.0,0.0,0.0,0.0,0.0,0.0,0.0,0.0,0.0,0.0,-2.9295,-2.8098,-2.8368,-3.0518,-3.0582,-2.9784,0.0,0.0,0.0,0.0,0.0,0.0,0.0,0.0,0.0,0.0,0.0,0.0,0.0,0.0,0.0,0.0,0.0,0.0,0.0,0.0,0.0,0.0,0.0,0.0,0.0,0.0,0.0,0.0,0.0,0.0,0.0,0.0,0.0,0.0,0.0,0.0,0.0,0.0,0.0,0.0,0.0,0.0,0.0,0.0,0.0,0.0,0.0,0.0,0.0,0.0,0.0,0.0,0.0,0.0,0.0,0.0,0.0,0.0,0.0,0.0,0.0,0.0,0.0,0.0,0.0,0.0,0.0,0.0,0.0,0.0,0.0,0.0,0.0,0.0,0.0,0.0,0.0,0.0,0.0,0.0,0.0,0.0,0.0,0.0,0.0,0.0,0.0,0.0,0.0,0.0,0.0,0.0,0.0,0.0,0.0,0.0,0.0,0.0,0.0,0.0,0.0,0.0,0.0,0.0,0.0,0.0,0.0,0.0,0.0,-2.6434,-2.741,-2.9332,-3.2203,-3.0293,-2.9313,0.0,0.0,0.0,0.0,0.0,0.0,0.0,0.0,0.0,0.0,0.0,0.0,0.0,0.0,0.0,0.0,0.0,0.0,0.0,0.0,0.0,0.0,0.0,0.0,0.0,0.0,0.0,0.0,0.0,0.0,0.0,0.0,0.0,0.0,0.0,0.0,0.0,0.0,0.0,0.0,0.0,0.0,0.0,0.0,0.0,0.0,0.0,0.0,0.0,0.0,0.0,0.0,0.0,0.0,0.0,0.0,0.0,0.0,0.0,0.0,0.0,0.0,0.0,0.0,0.0,0.0,0.0,0.0,0.0,0.0,0.0,0.0,0.0,0.0,0.0,0.0,0.0,0.0,0.0,0.0,0.0,0.0,0.0,0.0,0.0,0.0,0.0,0.0,0.0,0.0,0.0,0.0,0.0,0.0,0.0,0.0,0.0,0.0,0.0,0.0,0.0,0.0,0.0,0.0,0.0,0.0,0.0,0.0,0.0,-2.6307,0.0,-3.0747,0.0,-3.0304,-2.9065,0.0,0.0,0.0,0.0,0.0,0.0,0.0,0.0,0.0,0.0,0.0,0.0,0.0,0.0,0.0,0.0,0.0,0.0,0.0,0.0,0.0,0.0,0.0,0.0,0.0,0.0,0.0,0.0,0.0,0.0,0.0,0.0,0.0,0.0,0.0,0.0,0.0,0.0,0.0,0.0,0.0,0.0,0.0,0.0,0.0,0.0,0.0,0.0,0.0,0.0,0.0,0.0,0.0,0.0,0.0,0.0,0.0,0.0,0.0,0.0,0.0,0.0,0.0,0.0,0.0,0.0,0.0,0.0,0.0,0.0,0.0,0.0,0.0,0.0,0.0,0.0,0.0,0.0,0.0,0.0,0.0,0.0,0.0,0.0,0.0,0.0,0.0,0.0,0.0,0.0,0.0,0.0,0.0,0.0,0.0,0.0,0.0,0.0,0.0,0.0,0.0,0.0,0.0,0.0,0.0,0.0,0.0,0.0,-2.4954,-2.9632,-3.2006,-3.2438,-3.0939,-3.076,-2.9148,0.0,0.0,0.0,0.0,0.0,0.0,0.0,0.0,0.0,0.0,0.0,0.0,0.0,0.0,0.0,0.0,0.0,0.0,0.0,0.0,0.0,0.0,0.0,0.0,0.0,0.0,0.0,0.0,0.0,0.0,0.0,0.0,0.0,0.0,0.0,0.0,0.0,0.0,0.0,0.0,0.0,0.0,0.0,0.0,0.0,0.0,0.0,0.0,0.0,0.0,0.0,0.0,0.0,0.0,0.0,0.0,0.0,0.0,0.0,0.0,0.0,0.0,0.0,0.0,0.0,0.0,0.0,0.0,0.0,0.0,0.0,0.0,0.0,0.0,0.0,0.0,0.0,0.0,0.0,0.0,0.0,0.0,0.0,0.0,0.0,0.0,0.0,0.0,0.0,0.0,0.0,0.0,0.0,0.0,0.0,0.0,0.0,0.0,0.0,0.0,0.0,0.0,0.0,0.0,0.0,0.0,0.0,0.0,0.0,-2.8117,-3.036,-3.2182,-3.3319,-3.0577,-2.9358,0.0,0.0,0.0,0.0,0.0,0.0,0.0,0.0,0.0,0.0,0.0,0.0,0.0,0.0,0.0,0.0,0.0,0.0,0.0,0.0,0.0,0.0,0.0,0.0,0.0,0.0,0.0,0.0,0.0,0.0,0.0,0.0,0.0,0.0,0.0,0.0,0.0,0.0,0.0,0.0,0.0,0.0,0.0,0.0,0.0,0.0,0.0,0.0,0.0,0.0,0.0,0.0,0.0,0.0,0.0,0.0,0.0,0.0,0.0,0.0,0.0,0.0,0.0,0.0,0.0,0.0,0.0,0.0,0.0,0.0,0.0,0.0,0.0,0.0,0.0,0.0,0.0,0.0,0.0,0.0,0.0,0.0,0.0,0.0,0.0,0.0,0.0,0.0,0.0,0.0,0.0,0.0,0.0,0.0,0.0,0.0,0.0,0.0,0.0,0.0,0.0,0.0,0.0,0.0,0.0,0.0,0.0,0.0,0.0,-3.0076,-3.2337,-3.4093,-3.5131,-3.1883,-3.0254,-3.0534,0.0,0.0,0.0,0.0,0.0,0.0,0.0,0.0,0.0,0.0,0.0,0.0,0.0,0.0,0.0,0.0,0.0,0.0,0.0,0.0,0.0,0.0,0.0,0.0,0.0,0.0,0.0,0.0,0.0,0.0,0.0,0.0,0.0,0.0,0.0,0.0,0.0,0.0,0.0,0.0,0.0,0.0,0.0,0.0,0.0,0.0,0.0,0.0,0.0,0.0,0.0,0.0,0.0,0.0,0.0,0.0,0.0,0.0,0.0,0.0,0.0,0.0,0.0,0.0,0.0,0.0,0.0,0.0,0.0,0.0,0.0,0.0,0.0,0.0,0.0,0.0,0.0,0.0,0.0,0.0,0.0,0.0,0.0,0.0,0.0,0.0,0.0,0.0,0.0,0.0,0.0,0.0,0.0,0.0,0.0,0.0,0.0,0.0,0.0,0.0,0.0,0.0,0.0,0.0,0.0,0.0,0.0,0.0,-3.452,-3.7321,-3.7977,-3.636,-3.4387,-3.1858,0.0,0.0,0.0,0.0,0.0,0.0,0.0,0.0,0.0,0.0,0.0,0.0,0.0,0.0,0.0,0.0,0.0,0.0,0.0,0.0,0.0,0.0,0.0,0.0,0.0,0.0,0.0,0.0,0.0,0.0,0.0,0.0,0.0,0.0,0.0,0.0,0.0,0.0,0.0,0.0,0.0,0.0,0.0,0.0,0.0,0.0,0.0,0.0,0.0,0.0,0.0,0.0,0.0,0.0,0.0,0.0,0.0,0.0,0.0,0.0,0.0,0.0,0.0,0.0,0.0,0.0,0.0,0.0,0.0,0.0,0.0,0.0,0.0,0.0,0.0,0.0,0.0,0.0,0.0,0.0,0.0,0.0,0.0,0.0,0.0,0.0,0.0,0.0,0.0,0.0,0.0,0.0,0.0,0.0,0.0,0.0,0.0,0.0,0.0,0.0,0.0,0.0,0.0,0.0,0.0,0.0,0.0,0.0,0.0,-3.6482,-4.0299,-4.1813,-4.065,-3.6536,-3.3849,0.0,0.0,0.0,0.0,0.0,0.0,0.0,0.0,0.0,0.0,0.0,0.0,0.0,0.0,0.0,0.0,0.0,0.0,0.0,0.0,0.0,0.0,0.0,0.0,0.0,0.0,0.0,0.0,0.0,0.0,0.0,0.0,0.0,0.0,0.0,0.0,0.0,0.0,0.0,0.0,0.0,0.0,0.0,0.0,0.0,0.0,0.0,0.0,0.0,0.0,0.0,0.0,0.0,0.0,0.0,0.0,0.0,0.0,0.0,0.0,0.0,0.0,0.0,0.0,0.0,0.0,0.0,0.0,0.0,0.0,0.0,0.0,0.0,0.0,0.0,0.0,0.0,0.0,0.0,0.0,0.0,0.0,0.0,0.0,0.0,0.0,0.0,0.0,0.0,0.0,0.0,0.0,0.0,0.0,0.0,0.0,0.0,0.0,0.0,0.0,0.0,0.0,0.0,0.0,0.0,0.0,0.0,0.0,-3.5772,-3.8246,-4.2538,-4.4553,-4.4024,-3.9304,-3.5895,0.0,0.0,0.0,0.0,0.0,0.0,0.0,0.0,0.0,0.0,0.0,0.0,0.0,0.0,0.0,0.0,0.0,0.0,0.0,0.0,0.0,0.0,0.0,0.0,0.0,0.0,0.0,0.0,0.0,0.0,0.0,0.0,0.0,0.0,0.0,0.0,0.0,0.0,0.0,0.0,0.0,0.0,0.0,0.0,0.0,0.0,0.0,0.0,0.0,0.0,0.0,0.0,0.0,0.0,0.0,0.0,0.0,0.0,0.0,0.0,0.0,0.0,0.0,0.0,0.0,0.0,0.0,0.0,0.0,0.0,0.0,0.0,0.0,0.0,0.0,0.0,0.0,0.0,0.0,0.0,0.0,0.0,0.0,0.0,0.0,0.0,0.0,0.0,0.0,0.0,0.0,0.0,0.0,0.0,0.0,0.0,0.0,0.0,0.0,0.0,0.0,0.0,0.0,0.0,0.0,0.0,0.0,0.0,-3.7942,-3.9981,-4.4118,-4.6262,-4.607,-4.2058,-3.7858,0.0,0.0,0.0,0.0,0.0,0.0,0.0,0.0,0.0,0.0,0.0,0.0,0.0,0.0,0.0,0.0,0.0,0.0,0.0,0.0,0.0,0.0,0.0,0.0,0.0,0.0,0.0,0.0,0.0,0.0,0.0,0.0,0.0,0.0,0.0,0.0,0.0,0.0,0.0,0.0,0.0,0.0,0.0,0.0,0.0,0.0,0.0,0.0,0.0,0.0,0.0,0.0,0.0,0.0,0.0,0.0,0.0,0.0,0.0,0.0,0.0,0.0,0.0,0.0,0.0,0.0,0.0,0.0,0.0,0.0,0.0,0.0,0.0,0.0,0.0,0.0,0.0,0.0,0.0,0.0,0.0,0.0,0.0,0.0,0.0,0.0,0.0,0.0,0.0,0.0,0.0,0.0,0.0,0.0,0.0,0.0,0.0,0.0,0.0,0.0,0.0,0.0,0.0,0.0,0.0,0.0,0.0,0.0,-3.9221,-4.1798,-4.4754,-4.6269,-4.6181,-4.205,-3.8679,0.0,0.0,0.0,0.0,0.0,0.0,0.0,0.0,0.0,0.0,0.0,0.0,0.0,0.0,0.0,0.0,0.0,0.0,0.0,0.0,0.0,0.0,0.0,0.0,0.0,0.0,0.0,0.0,0.0,0.0,0.0,0.0,0.0,0.0,0.0,0.0,0.0,0.0,0.0,0.0,0.0,0.0,0.0,0.0,0.0,0.0,0.0,0.0,-2.7656,0.0,0.0,0.0,0.0,0.0,0.0,0.0,0.0,0.0,0.0,0.0,0.0,0.0,0.0,0.0,0.0,0.0,0.0,0.0,0.0,0.0,0.0,0.0,0.0,0.0,0.0,0.0,0.0,0.0,0.0,0.0,0.0,0.0,0.0,0.0,0.0,0.0,0.0,0.0,0.0,0.0,0.0,0.0,0.0,0.0,0.0,0.0,0.0,0.0,0.0,0.0,0.0,0.0,0.0,0.0,0.0,0.0,0.0,0.0,-4.0259,-4.2854,-4.5103,-4.6215,-4.6047,-4.3146,-4.0089,0.0,0.0,0.0,0.0,0.0,0.0,0.0,0.0,0.0,0.0,0.0,0.0,0.0,0.0,0.0,0.0,0.0,0.0,0.0,0.0,0.0,0.0,0.0,0.0,0.0,0.0,0.0,0.0,0.0,0.0,0.0,0.0,0.0,0.0,0.0,0.0,0.0,0.0,0.0,0.0,0.0,0.0,0.0,0.0,0.0,0.0,0.0,0.0,0.0,0.0,0.0,0.0,0.0,0.0,0.0,0.0,0.0,0.0,0.0,0.0,0.0,0.0,0.0,0.0,0.0,0.0,0.0,0.0,0.0,0.0,0.0,0.0,0.0,0.0,0.0,0.0,0.0,0.0,0.0,0.0,0.0,0.0,0.0,0.0,0.0,0.0,0.0,0.0,0.0,0.0,0.0,0.0,0.0,0.0,0.0,0.0,0.0,0.0,0.0,0.0,0.0,0.0,0.0,0.0,0.0,0.0,0.0,-3.7501,-4.0929,-4.3825,-4.5406,-4.6177,-4.6078,-4.4396,-4.147,-3.7239,0.0,0.0,0.0,0.0,0.0,0.0,0.0,0.0,0.0,0.0,0.0,0.0,0.0,0.0,0.0,0.0,0.0,0.0,0.0,0.0,0.0,0.0,0.0,0.0,0.0,0.0,0.0,0.0,0.0,0.0,0.0,0.0,0.0,0.0,0.0,0.0,0.0,0.0,-2.2976,-2.4614,0.0,0.0,0.0,0.0,0.0,0.0,0.0,0.0,-2.8835,0.0,0.0,0.0,0.0,0.0,0.0,0.0,0.0,0.0,0.0,0.0,0.0,0.0,0.0,0.0,0.0,0.0,0.0,0.0,0.0,0.0,0.0,0.0,0.0,0.0,0.0,0.0,0.0,0.0,0.0,0.0,0.0,0.0,0.0,0.0,0.0,0.0,0.0,0.0,0.0,0.0,0.0,0.0,0.0,0.0,0.0,0.0,0.0,0.0,0.0,0.0,0.0,0.0,0.0,0.0,0.0,-3.7279,-3.8137,-4.087,-4.5616,-4.6056,-4.6177,-4.6059,-4.4356,-4.1692,-3.8038,0.0,0.0,0.0,0.0,0.0,0.0,0.0,0.0,0.0,0.0,0.0,0.0,0.0,0.0,0.0,0.0,0.0,0.0,0.0,0.0,0.0,0.0,0.0,0.0,0.0,0.0,0.0,0.0,0.0,0.0,0.0,0.0,0.0,0.0,0.0,0.0,0.0,0.0,0.0,-2.7877,-2.8868,0.0,0.0,0.0,0.0,0.0,0.0,0.0,0.0,-3.0371,0.0,0.0,0.0,0.0,0.0,0.0,0.0,0.0,0.0,0.0,0.0,0.0,0.0,0.0,0.0,0.0,0.0,0.0,0.0,0.0,0.0,0.0,0.0,0.0,0.0,0.0,0.0,0.0,0.0,0.0,0.0,0.0,0.0,0.0,0.0,0.0,0.0,0.0,0.0,0.0,0.0,0.0,0.0,0.0,0.0,0.0,0.0,0.0,0.0,0.0,0.0,0.0,0.0,0.0,0.0,-3.6833,-3.9621,-4.2659,-4.5957,-4.6113,-4.6084,-4.5983,-4.3501,-4.0654,0.0,0.0,0.0,0.0,0.0,0.0,0.0,0.0,0.0,0.0,0.0,0.0,0.0,0.0,0.0,0.0,0.0,0.0,0.0,0.0,0.0,0.0,0.0,0.0,0.0,0.0,0.0,0.0,0.0,0.0,0.0,0.0,0.0,0.0,0.0,0.0,0.0,0.0,0.0,0.0,-2.9806,-3.0723,-3.2395,0.0,0.0,0.0,0.0,0.0,0.0,-3.2876,-3.1828,0.0,0.0,0.0,0.0,0.0,0.0,0.0,0.0,0.0,0.0,0.0,0.0,0.0,0.0,0.0,0.0,0.0,0.0,0.0,0.0,0.0,0.0,0.0,0.0,0.0,0.0,0.0,0.0,0.0,0.0,0.0,0.0,0.0,0.0,0.0,0.0,0.0,0.0,0.0,0.0,0.0,0.0,0.0,0.0,0.0,0.0,0.0,0.0,0.0,0.0,0.0,0.0,0.0,0.0,0.0,-3.5771,-4.0499,-4.3976,-4.5901,-4.6007,-4.6007,-4.5959,-4.267,-3.9635,0.0,0.0,0.0,0.0,0.0,0.0,0.0,0.0,0.0,0.0,0.0,0.0,0.0,0.0,0.0,0.0,0.0,0.0,0.0,0.0,0.0,0.0,0.0,0.0,0.0,0.0,0.0,0.0,0.0,0.0,0.0,0.0,0.0,0.0,0.0,0.0,0.0,0.0,0.0,0.0,0.0,-3.2687,-3.5582,-3.3414,0.0,0.0,0.0,0.0,-3.4958,-3.4559,0.0,0.0,0.0,0.0,0.0,0.0,0.0,0.0,0.0,0.0,0.0,0.0,0.0,0.0,0.0,0.0,0.0,0.0,0.0,0.0,0.0,0.0,0.0,0.0,0.0,0.0,0.0,0.0,0.0,0.0,0.0,0.0,0.0,0.0,0.0,0.0,0.0,0.0,0.0,0.0,0.0,0.0,0.0,0.0,0.0,0.0,0.0,0.0,0.0,0.0,0.0,0.0,0.0,0.0,0.0,0.0,-3.5683,-3.932,-4.2796,-4.589,-4.6027,-4.6022,-4.6046,-4.2645,-3.9586,0.0,0.0,0.0,0.0,0.0,0.0,0.0,0.0,0.0,0.0,0.0,0.0,0.0,0.0,0.0,0.0,0.0,0.0,0.0,0.0,0.0,0.0,0.0,0.0,0.0,0.0,0.0,0.0,0.0,0.0,0.0,0.0,0.0,0.0,0.0,0.0,0.0,0.0,0.0,0.0,0.0,-3.5368,-3.6067,-3.4522,-3.3708,0.0,0.0,-3.7339,-3.8302,-3.8796,0.0,0.0,0.0,0.0,0.0,0.0,0.0,0.0,0.0,0.0,0.0,0.0,0.0,0.0,0.0,0.0,0.0,0.0,0.0,0.0,0.0,0.0,0.0,0.0,0.0,0.0,0.0,0.0,0.0,0.0,0.0,0.0,0.0,0.0,0.0,0.0,0.0,0.0,0.0,0.0,0.0,0.0,0.0,0.0,0.0,0.0,0.0,0.0,0.0,0.0,0.0,0.0,0.0,0.0,0.0,-3.4035,-3.5706,-4.0997,-4.4535,-4.6035,-4.6075,-4.6075,-4.6098,-4.1775,-3.8413,0.0,0.0,0.0,0.0,0.0,0.0,0.0,0.0,0.0,0.0,0.0,0.0,0.0,0.0,0.0,0.0,0.0,0.0,0.0,0.0,0.0,0.0,0.0,0.0,0.0,0.0,0.0,0.0,0.0,0.0,0.0,0.0,0.0,0.0,0.0,0.0,0.0,0.0,0.0,0.0,0.0,0.0,-3.7506,-3.6665,0.0,0.0,0.0,-3.8246,-3.7907,0.0,0.0,0.0,0.0,0.0,0.0,0.0,0.0,0.0,0.0,0.0,0.0,0.0,0.0,0.0,0.0,0.0,0.0,0.0,0.0,0.0,0.0,0.0,0.0,0.0,0.0,0.0,0.0,0.0,0.0,0.0,0.0,0.0,0.0,0.0,0.0,0.0,0.0,0.0,0.0,0.0,0.0,0.0,0.0,0.0,0.0,0.0,0.0,0.0,0.0,0.0,0.0,0.0,0.0,0.0,0.0,0.0,-3.5616,-4.2419,-4.6032,-4.6111,-4.6122,-4.6122,-4.6056,-4.1945,0.0,0.0,0.0,0.0,0.0,0.0,0.0,0.0,0.0,0.0,0.0,0.0,0.0,0.0,0.0,0.0,0.0,0.0,0.0,0.0,0.0,0.0,0.0,0.0,0.0,0.0,0.0,-2.3366,0.0,0.0,0.0,0.0,0.0,0.0,0.0,0.0,0.0,0.0,0.0,0.0,0.0,0.0,-3.7095,-3.8722,-3.8593,-3.8504,0.0,0.0,-3.9376,-3.8626,-4.0607,-4.0583,0.0,0.0,0.0,0.0,0.0,0.0,0.0,0.0,0.0,0.0,0.0,0.0,0.0,0.0,0.0,0.0,0.0,0.0,0.0,0.0,0.0,0.0,0.0,0.0,0.0,0.0,0.0,0.0,0.0,0.0,0.0,0.0,0.0,0.0,0.0,0.0,0.0,0.0,0.0,0.0,0.0,0.0,0.0,0.0,0.0,0.0,0.0,0.0,0.0,0.0,0.0,0.0,0.0,0.0,0.0,-3.5732,-4.2438,-4.6071,-4.6169,-4.6138,-4.6134,-4.6153,-4.4211,-4.0766,0.0,0.0,0.0,0.0,0.0,0.0,0.0,0.0,0.0,0.0,0.0,0.0,0.0,0.0,0.0,0.0,0.0,0.0,0.0,0.0,0.0,0.0,0.0,0.0,0.0,0.0,0.0,0.0,0.0,0.0,0.0,0.0,0.0,0.0,0.0,0.0,0.0,0.0,0.0,0.0,0.0,-3.7865,-3.9099,-3.97,-4.0642,0.0,0.0,-4.1903,-4.2481,-4.3921,-4.3063,-3.7364,0.0,0.0,0.0,0.0,0.0,0.0,0.0,0.0,0.0,0.0,0.0,0.0,0.0,0.0,0.0,0.0,0.0,0.0,0.0,0.0,0.0,0.0,0.0,0.0,0.0,0.0,0.0,0.0,0.0,0.0,0.0,0.0,0.0,0.0,0.0,0.0,0.0,0.0,0.0,0.0,0.0,0.0,0.0,0.0,0.0,0.0,0.0,0.0,0.0,0.0,0.0,0.0,0.0,-3.5399,-3.5588,-4.2471,-4.6122,-4.6196,-4.6167,-4.6157,-4.6142,-4.4456,-4.133,0.0,0.0,0.0,0.0,0.0,0.0,0.0,0.0,0.0,0.0,0.0,0.0,0.0,0.0,0.0,0.0,0.0,0.0,0.0,0.0,0.0,0.0,0.0,0.0,0.0,0.0,0.0,0.0,-2.6968,-2.8291,-2.7785,0.0,0.0,0.0,0.0,0.0,0.0,0.0,0.0,0.0,0.0,-3.9195,-4.1165,-4.1688,0.0,0.0,-4.2718,-4.2452,-4.2232,-4.3059,-4.2097,-3.7194,-3.5654,0.0,0.0,0.0,0.0,0.0,0.0,0.0,0.0,0.0,0.0,0.0,0.0,0.0,0.0,0.0,0.0,0.0,0.0,0.0,0.0,0.0,0.0,0.0,0.0,0.0,0.0,0.0,0.0,0.0,0.0,0.0,0.0,0.0,0.0,0.0,0.0,0.0,0.0,0.0,0.0,0.0,0.0,0.0,0.0,0.0,0.0,0.0,0.0,0.0,0.0,0.0,0.0,-3.5477,-3.5814,-4.2607,-4.6146,-4.6213,-4.6198,-4.6167,-4.6099,-4.4984,-4.2432,0.0,0.0,0.0,0.0,0.0,0.0,0.0,0.0,0.0,0.0,0.0,0.0,0.0,0.0,0.0,0.0,0.0,0.0,0.0,0.0,0.0,0.0,0.0,0.0,0.0,0.0,0.0,0.0,-2.8435,-2.9598,-2.8546,0.0,0.0,0.0,0.0,0.0,0.0,0.0,0.0,0.0,0.0,-4.0189,-4.2192,-4.2717,-4.2913,-4.2942,-4.2497,-4.2029,-4.17,-4.2074,-4.118,-3.7696,0.0,0.0,0.0,0.0,0.0,0.0,0.0,0.0,0.0,0.0,0.0,0.0,0.0,0.0,0.0,0.0,0.0,0.0,0.0,0.0,0.0,0.0,0.0,0.0,0.0,0.0,0.0,0.0,0.0,0.0,-2.569,0.0,0.0,0.0,0.0,0.0,0.0,0.0,0.0,0.0,0.0,0.0,0.0,0.0,0.0,0.0,0.0,0.0,0.0,0.0,0.0,0.0,0.0,-3.5687,-3.655,-4.2835,-4.6138,-4.6203,-4.6206,-4.6206,-4.6203,-4.6157,-4.4452,-4.0839,0.0,0.0,0.0,0.0,0.0,0.0,0.0,0.0,0.0,0.0,0.0,0.0,0.0,0.0,0.0,0.0,0.0,0.0,0.0,0.0,0.0,0.0,0.0,0.0,0.0,0.0,-2.5392,-2.7149,-2.8368,0.0,0.0,0.0,0.0,0.0,0.0,0.0,0.0,0.0,0.0,-3.8246,-4.0624,-4.1594,-4.2415,-4.2887,-4.2852,-4.1529,-4.0739,-4.1427,-4.1504,-4.0941,0.0,0.0,0.0,0.0,0.0,0.0,0.0,0.0,0.0,0.0,0.0,0.0,0.0,0.0,0.0,0.0,0.0,0.0,0.0,0.0,0.0,0.0,0.0,0.0,0.0,0.0,0.0,-3.0333,-2.9848,0.0,0.0,0.0,0.0,0.0,0.0,0.0,0.0,0.0,0.0,0.0,-3.5855,-3.6433,0.0,0.0,0.0,0.0,0.0,0.0,0.0,0.0,0.0,0.0,0.0,0.0,-3.5997,-3.7618,-4.3184,-4.6183,-4.6206,-4.6243,-4.6236,-4.6196,-4.6206,-4.4517,-4.0999,0.0,0.0,0.0,0.0,0.0,0.0,0.0,0.0,0.0,0.0,0.0,0.0,0.0,0.0,0.0,0.0,0.0,0.0,0.0,0.0,0.0,0.0,0.0,0.0,0.0,-2.7773,0.0,0.0,0.0,0.0,0.0,0.0,0.0,0.0,0.0,0.0,0.0,-3.4184,-3.7279,-3.8703,-4.0165,-4.2164,-4.2652,-4.3034,0.0,0.0,0.0,0.0,0.0,0.0,0.0,0.0,0.0,0.0,0.0,0.0,0.0,0.0,-3.5523,-3.1736,-3.1674,-3.2244,-3.2281,0.0,0.0,0.0,0.0,0.0,0.0,0.0,0.0,0.0,0.0,0.0,0.0,0.0,0.0,0.0,0.0,-3.2513,0.0,0.0,0.0,0.0,0.0,0.0,0.0,0.0,-3.7723,-3.904,-3.9451,-4.0041,-3.9948,0.0,-3.8404,-3.5827,0.0,0.0,0.0,0.0,0.0,0.0,0.0,0.0,-3.6877,-3.8521,-4.3545,-4.6203,-4.624,-4.6275,-4.6288,-4.6234,-4.6203,-4.5072,-4.2709,-4.0014,-3.7385,0.0,0.0,0.0,0.0,0.0,0.0,0.0,0.0,0.0,0.0,0.0,0.0,0.0,0.0,0.0,0.0,0.0,0.0,0.0,0.0,0.0,0.0,0.0,-2.9173,0.0,0.0,0.0,0.0,0.0,0.0,0.0,0.0,0.0,-3.2232,-3.3627,-3.5788,-3.888,-3.966,-4.0489,-4.2116,0.0,0.0,0.0,0.0,0.0,0.0,0.0,-3.9362,-3.8956,-3.8947,-3.9004,-3.9088,-3.9986,-4.0508,-3.9995,0.0,0.0,-3.5394,-3.5192,-3.5719,-3.5715,-3.5627,-3.551,-3.5445,-3.5668,-3.5821,0.0,0.0,0.0,0.0,0.0,0.0,0.0,0.0,-3.5883,-3.5527,0.0,-3.555,0.0,0.0,0.0,0.0,0.0,-3.639,0.0,0.0,-4.3024,-4.4662,-4.3203,-4.2956,-4.2843,-4.2737,-4.1915,-4.0567,-3.8703,-3.6483,0.0,0.0,0.0,0.0,0.0,0.0,-3.8262,-3.9528,-4.391,-4.6231,-4.6298,-4.6302,-4.63,-4.63,-4.624,-4.6079,-4.5806,-4.3481,-4.1656,-4.0404,-3.5843,0.0,0.0,0.0,0.0,0.0,0.0,0.0,0.0,0.0,0.0,0.0,0.0,0.0,0.0,0.0,0.0,0.0,0.0,0.0,0.0,-3.0195,0.0,0.0,0.0,0.0,0.0,0.0,0.0,0.0,0.0,0.0,-3.4189,-3.5361,-3.7233,-3.9833,0.0,0.0,0.0,0.0,-4.234,-4.073,-3.9708,-3.923,-3.9287,-3.9936,-4.0732,-4.1562,0.0,0.0,-4.2919,-4.2188,-4.1403,-4.0172,-4.1589,-4.2288,-4.0641,-3.939,-3.8697,-3.8667,-3.8452,-3.8159,-3.8172,-3.8845,-3.9319,-3.9007,0.0,0.0,0.0,0.0,-3.7348,-3.8741,-4.0952,-4.0952,-4.0514,-3.9744,-3.9367,0.0,0.0,0.0,0.0,0.0,0.0,-3.9794,-4.1594,-4.3135,-4.4182,-4.4874,-4.482,-4.4775,-4.469,-4.4497,-4.4086,-4.3522,-4.2898,-3.9346,-3.3155,0.0,0.0,0.0,0.0,-3.9199,-4.188,-4.4729,-4.6231,-4.63,-4.6302,-4.6302,-4.6302,-4.624,-4.6173,-4.6102,-4.5315,-4.3834,-4.1628,-3.9515,0.0,0.0,0.0,0.0,0.0,0.0,0.0,0.0,0.0,0.0,0.0,0.0,0.0,0.0,0.0,0.0,0.0,0.0,0.0,-3.1183,-3.2015,-3.1923,0.0,0.0,0.0,0.0,0.0,0.0,0.0,0.0,0.0,-3.729,-3.7532,-3.8271,0.0,0.0,-3.9694,-4.053,-4.137,-4.2036,-4.2264,0.0,0.0,0.0,-4.2052,-4.1689,-4.2552,-4.3705,-4.4357,-4.4039,-4.4315,-4.448,-4.4083,-4.453,-4.4735,-4.4295,-4.355,-4.295,-4.2948,-4.2735,-4.2534,-4.2505,-4.2648,-4.2716,-4.291,-4.1217,-3.9319,-3.9345,-4.0605,-4.0663,-4.1981,-4.408,-4.41,-4.3651,-4.293,-4.2691,-4.1233,-3.8912,-3.7974,0.0,0.0,0.0,-4.1912,-4.4085,-4.4085,-4.4633,-4.5556,-4.5594,-4.5577,-4.5531,-4.5577,-4.5577,-4.5531,-4.514,-4.2345,-3.728,0.0,0.0,-3.674,-3.8816,-4.094,-4.3028,-4.5089,-4.6196,-4.6298,-4.6302,-4.6302,-4.63,-4.6269,-4.6238,-4.6206,-4.6121,-4.5273,-4.3567,-4.1957,-3.9257,0.0,0.0,0.0,0.0,0.0,0.0,0.0,0.0,0.0,0.0,0.0,-2.9806,-2.7528,0.0,0.0,0.0,-3.2386,-3.276,-3.3705,-3.3645,0.0,0.0,0.0,0.0,0.0,0.0,0.0,-3.5235,-3.6929,-3.8232,-3.8652,-3.8858,-3.9328,-4.0249,-3.9965,-4.0068,-4.1103,0.0,-4.2783,-4.3057,-4.3099,-4.3296,-4.3851,-4.3346,-4.3165,-4.4066,-4.4634,-4.5,-4.5027,-4.5469,-4.578,-4.5807,-4.5807,-4.5766,-4.57,-4.5294,-4.4962,-4.4927,-4.4616,-4.4354,-4.4314,-4.4229,-4.4119,-4.5594,-4.5316,-4.2082,-4.1654,-4.3119,-4.325,-4.4157,-4.5575,-4.5594,-4.5216,-4.4648,-4.5307,-4.4406,-4.2329,-4.1459,0.0,-4.3307,-4.3294,-4.4105,-4.5594,-4.5594,-4.5594,-4.5594,-4.5594,-4.5594,-4.5594,-4.5594,-4.5594,-4.5566,-4.4681,-4.378,-4.29,-4.2889,-4.1969,-4.0305,-4.1829,-4.2941,-4.3397,-4.506,-4.602,-4.63,-4.6302,-4.6302,-4.6302,-4.6302,-4.6273,-4.6211,-4.6211,-4.6084,-4.5757,-4.3567,-4.1706,-4.0273,0.0,0.0,0.0,0.0,0.0,0.0,0.0,0.0,0.0,0.0,0.0,0.0,0.0,0.0,0.0,-3.6204,0.0,-3.687,-3.5375,0.0,0.0,0.0,-3.4017,-3.5272,-3.6175,-3.6943,-3.7614,0.0,0.0,-3.8826,0.0,-4.0297,-4.1046,-4.1341,-4.177,-4.2518,-4.3605,-4.4191,-4.3384,-4.331,-4.3357,-4.3609,-4.4102,-4.4793,-4.5537,-4.5847,-4.5761,-4.5742,-4.5761,-4.5807,-4.5759,-4.5786,-4.5715,-4.5526,-4.5284,-4.5159,-4.5052,-4.4668,-4.4314,-4.43,-4.4162,-4.407,-4.5594,-4.5537,-4.4694,-4.4589,-4.4963,-4.4989,-4.5238,-4.5594,-4.5594,-4.5496,-4.5357,-4.5535,-4.5291,-4.4739,-4.4534,-4.4636,-4.5007,-4.5017,-4.5201,-4.5594,-4.5594,-4.5594,-4.5594,-4.5594,-4.5594,-4.5594,-4.5594,-4.5594,-4.5614,-4.6031,-4.5323,-4.3748,-4.4291,-4.3431,-4.1178,-4.1769,-4.2787,-4.413,-4.4758,-4.5478,-4.6259,-4.6302,-4.6302,-4.6302,-4.6302,-4.6298,-4.6275,-4.6275,-4.6144,-4.5883,-4.5293,-4.3608,-4.0654,-3.6692,0.0,0.0,0.0,0.0,0.0,0.0,0.0,0.0,0.0,-3.2546,-2.8777,0.0,-3.4491,0.0,-3.9767,-4.1585,-4.0327,-3.9279,0.0,0.0,-3.6025,-3.5932,-3.6988,-3.7884,-3.8431,-3.849,-3.9347,-3.9929,-3.9919,-4.009,-4.0567,-4.1424,-4.1484,-4.1559,-4.2006,-4.3379,-4.4314,-4.4249,-4.4689,-4.5165,-4.5167,-4.5414,-4.5615,-4.5801,-4.5814,-4.5807,-4.5807,-4.5807,-4.5752,-4.561,-4.5577,-4.549,-4.5304,-4.5055,-4.4903,-4.4807,-4.4562,-4.4354,-4.4314,-4.4211,-4.4169,-4.5594,-4.5594,-4.5594,-4.5594,-4.5594,-4.5594,-4.5594,-4.5594,-4.5594,-4.5594,-4.5594,-4.5594,-4.5594,-4.5594,-4.5594,-4.5594,-4.5633,-4.599,-4.6182,-4.6201,-4.6547,-4.6721,-4.6721,-4.6701,-4.6721,-4.6721,-4.6701,-4.6721,-4.674,-4.7201,-4.6868,-4.5802,-4.6242,-4.5591,-4.3867,-4.2689,-4.2572,-4.3538,-4.4234,-4.5097,-4.6167,-4.6147,-4.5796,-4.5124,-4.5042,-4.466,-4.3925,-4.3886,-4.3622,-4.3036,-4.2989,-4.2086,-4.0038,-3.6752,-3.4238,0.0,0.0,0.0,0.0,0.0,0.0,0.0,0.0,0.0,0.0,0.0,-3.6226,-3.6861,-4.0893,-4.2545,-4.0335,-3.9677,-3.9029,-3.8125,-3.7593,-3.7737,-3.8764,-3.9298,-3.9557,-3.9481,-4.0004,-4.0342,-4.0349,-4.0422,-4.0816,-4.1719,-4.2106,-4.2441,-4.2949,-4.4122,-4.5024,-4.5104,-4.5488,-4.5814,-4.5854,-4.5854,-4.5847,-4.5807,-4.5807,-4.5807,-4.58,-4.573,-4.5626,-4.5516,-4.5427,-4.5294,-4.5074,-4.4927,-4.477,-4.4642,-4.4532,-4.4411,-4.4329,-4.4289,-4.4244,-4.5594,-4.5594,-4.5594,-4.5594,-4.5594,-4.5594,-4.5594,-4.5594,-4.5594,-4.5671,-4.5787,-4.5768,-4.5825,-4.5922,-4.5932,-4.5922,-4.596,-4.6701,-4.7067,-4.7077,-4.7778,-4.8096,-4.8096,-4.8096,-4.8096,-4.8096,-4.8096,-4.8096,-4.8096,-4.8202,-4.8135,-4.7895,-4.801,-4.7597,-4.6561,-4.3953,-4.2666,-4.2737,-4.389,-4.4996,-4.6041,-4.5735,-4.4943,-4.364,-4.3361,-4.2543,-4.1138,-4.106,-4.0587,-3.9652,-3.9679,-3.9728,-3.9623,-3.6559,-3.5116,0.0,-3.2872,0.0,0.0,0.0,0.0,0.0,0.0,0.0,0.0,-3.8109,-3.8192,-3.8166,-4.1074,-4.1895,-3.9298,-3.9077,-3.9012,-3.8903,-3.8914,-3.9278,-4.0167,-4.032,-4.032,-4.032,-4.036,-4.0406,-4.0419,-4.0679,-4.1183,-4.1935,-4.2916,-4.3666,-4.4276,-4.5172,-4.5802,-4.5814,-4.5807,-4.5807,-4.5807,-4.5807,-4.5807,-4.5807,-4.5759,-4.5778,-4.5745,-4.5594,-4.5445,-4.538,-4.5254,-4.5063,-4.4819,-4.4758,-4.4701,-4.4532,-4.4496,-4.444,-4.4358,-4.4314,-4.4314,-4.5594,-4.5594,-4.5594,-4.5594,-4.5594,-4.5594,-4.5594,-4.5594,-4.5594,-4.599,-4.6663,-4.6663,-4.7009,-4.7605,-4.7625,-4.7625,-4.7625,-4.7798,-4.7875,-4.7875,-4.8029,-4.8096,-4.8096,-4.8096,-4.8096,-4.8096,-4.8096,-4.8096,-4.8096,-4.8817,-4.8356,-4.6863,-4.7505,-4.698,-4.5346,0.0,0.0,0.0,-4.4947,-4.5654,-4.5886,-4.4579,-4.3748,-4.3441,-4.2727,0.0,-4.1883,-4.1887,-4.1432,-4.0537,-4.1144,0.0,0.0,0.0,0.0,0.0,0.0,0.0,0.0,0.0,0.0,0.0,-3.8,-3.8231,-3.8058,-3.9691,-4.1084,-4.1762,-4.3015,-4.3331,-4.2267,-4.2105,-4.1504,-4.0167,-3.9996,-4.0082,-4.0301,-4.032,-4.032,-4.031,-4.0379,-4.0446,-4.0622,-4.1248,-4.1831,-4.2271,-4.3493,-4.443,-4.4602,-4.537,-4.588,-4.5886,-4.5821,-4.5807,-4.5807,-4.58,-4.5793,-4.5793,-4.5669,-4.5558,-4.5533,-4.539,-4.5152,-4.5011,-4.4896,-4.4826,-4.4595,-4.4565,-4.456,-4.4496,-4.4482,-4.4487,-4.4383,-4.4368,-4.4387,-4.5594,0.0,-4.5594,-4.5594,0.0,-4.6067,-4.624,-4.624,-4.624,-4.6721,-4.7481,-4.7481,-4.7721,-4.8096,-4.8096,-4.8096,-4.8115,-4.8548,-4.874,-4.8759,-4.9183,-4.9394,-4.9394,-4.9394,-4.9394,-4.9394,-4.9375,-4.9375,-4.9413,-4.9817,-4.9548,-4.8575,-4.9016,-4.8724,-4.7753,-4.7734,-4.6938,-4.5352,-4.5867,-4.6229,-4.639,-4.5589,-4.4544,-4.3352,0.0,0.0,0.0,0.0,0.0,0.0,0.0,0.0,0.0,0.0,0.0,-4.0362,-3.8869,-3.8304,-3.9173,-3.9627,-4.0396,-4.1643,-4.2162,-4.1881,-4.0604,-4.2375,-4.3712,-4.4153,-4.4565,-4.4306,-4.3141,-4.2944,-4.22,-4.0565,-4.0319,-4.032,-4.032,-4.032,-4.032,-4.0329,-4.04,-4.0665,-4.1179,-4.1698,-4.2488,-4.333,-4.415,-4.486,-4.5289,-4.566,-4.5893,-4.5854,-4.584,-4.5807,-4.58,-4.5715,-4.565,-4.5626,-4.5481,-4.5381,-4.5343,-4.5142,-4.4962,-4.4812,-4.4726,-4.4608,-4.4537,-4.4482,-4.4482,-4.4482,-4.4482,-4.4501,-4.4473,-4.444,-4.4444,-4.5618,-4.5762,-4.5808,-4.5913,-4.6105,-4.6797,-4.7192,-4.7336,0.0,0.0,0.0,-4.8336,-4.8413,-4.8567,-4.8567,-4.8567,-4.8606,-4.9298,-4.9625,-4.9663,-5.0366,-5.0683,-5.0683,-5.0683,-5.0683,-5.0683,-5.0683,-5.0683,-5.0683,-5.0683,-5.0683,-5.0683,-5.0683,-5.0663,-5.0623,-5.0613,-4.9506,-4.7352,-4.6959,-4.6858,-4.697,-4.6617,-4.5404,-4.3213,-4.2992,-4.2181,-4.0804,-4.0727,-4.0342,-3.9565,-3.9669,-3.9815,-3.9958,-3.995,-4.04,-4.1324,-4.142,-4.2016,-4.3431,-4.3547,-4.4124,-4.5518,-4.5594,-4.5017,-4.3643,-4.4806,-4.5594,-4.5594,-4.546,-4.4712,-4.3169,-4.279,-4.2055,-4.0488,-4.0319,-4.032,-4.032,-4.032,-4.032,-4.0329,-4.0606,-4.1048,-4.1772,-4.2375,-4.3131,-4.4418,-4.4863,-4.514,-4.5737,-4.5874,-4.5854,-4.5752,-4.5723,-4.573,-4.5685,-4.5549,-4.5464,-4.5436,-4.5274,-4.5129,-4.5085,-4.4915,-4.4758,-4.4739,-4.4595,-4.4524,-4.4515,-4.4482,-4.4482,-4.4482,-4.4482,-4.4482,-4.4482,-4.4482,-4.4487,-4.5693,-4.6383,-4.6618,-4.7105,-4.7759,-4.7875,-4.8375,-4.8971,-4.8259,-4.8432,-4.9221,-4.9221,-4.9625,-5.0327,-5.0317,-5.0346,-5.0346,-5.0452,-5.0519,0.0,-5.0635,-5.0683,-5.0683,-5.0683,-5.0683,-5.0683,-5.0683,-5.0683,-5.0683,-5.0683,-5.0683,-5.0683,-5.0683,-5.0683,-5.0673,-5.0673,-5.05,-5.0096,-4.8625,-4.7548,-4.6929,-4.5441,-4.4171,-4.3156,-4.2401,-4.1893,-4.1635,-4.1643,-4.1219,-4.04,-4.1046,-4.1797,-4.2508,-4.2547,-4.3258,-4.4729,-4.4883,-4.4998,-4.522,-4.5248,-4.5344,-4.5575,-4.5594,-4.5479,-4.5287,-4.546,-4.5594,-4.5575,-4.4951,-4.4096,-4.3092,-4.2349,-4.149,-4.0488,-4.0319,-4.032,-4.032,-4.0358,-4.0358,-4.0387,-4.1039,-4.1612,-4.2078,-4.3266,-4.4238,-4.4785,-4.5276,-4.5757,-4.5672,-4.5805,-4.5798,-4.561,-4.5533,-4.5463,-4.5362,-4.5283,-4.5234,-4.5234,-4.5011,-4.4849,-4.4868,-4.4707,-4.4573,-4.4546,-4.4524,-4.4496,-4.4482,-4.4482,-4.4482,-4.4482,-4.4482,-4.4482,-4.4482,-4.4482,-4.4501,-4.6559,-4.6944,-4.7068,-4.7323,-4.7716,-4.8326,-4.9171,-5.0048,-4.9683,-4.9721,-5.0077,-5.0087,-5.0327,-5.0693,-5.0683,-5.0683,-5.0683,-5.0683,-5.0683,-5.0683,-5.0683,-5.0683,-5.0683,-5.0683,-5.0683,-5.0683,-5.0683,-5.0683,-5.0683,-5.0683,-5.0683,-5.0683,-5.0653,-5.0673,-5.0683,-5.0653,-5.0653,-5.0683,-4.9923,-4.8875,-4.7586,-4.6759,-4.5759,-4.4509,-4.4066,-4.3874,-4.3874,-4.3874,-4.3671,-4.3286,-4.3624,-4.4028,-4.4432,-4.4451,-4.4806,-4.5537,-4.5594,-4.5594,-4.5594,-4.5594,-4.5594,-4.5594,-4.5594,-4.5594,-4.5594,-4.5594,-4.5594,-4.5575,-4.4825,-4.3951,-4.3118,-4.2242,-4.1346,-4.0457,-4.0328,-4.032,-4.0358,-4.0731,-4.0941,-4.1027,-4.1769,-4.2554,-4.3082,-4.3933,-4.4728,-4.5169,-4.5573,-4.5599,-4.5428,-4.5455,-4.5491,-4.5362,-4.5333,-4.5294,-4.5211,-4.5063,-4.5007,-4.4966,-4.4789,-4.4655,-4.4648,-4.4532,-4.451,-4.4482,-4.4482,-4.4482,-4.4482,-4.4482,-4.4482,-4.4482,-4.4482,-4.4482,-4.4482,-4.4482,-4.4482,-4.7322,-4.7492,-4.754,-4.768,-4.7952,-4.8814,-4.9728,-5.0565,-5.0594,-5.0624,-5.0683,-5.0683,-5.0683,-5.0683,-5.0683,-5.0683,-5.0683,-5.0683,-5.0683,-5.0683,-5.0683,-5.0683,-5.0683,-5.0683,-5.0683,-5.0683,-5.0683,-5.0683,-5.0683,-5.0683,-5.0683,-5.0683,-5.0663,-5.0663,-5.0683,-5.0643,-5.0643,-5.0683,-5.0683,-4.9952,-4.8471,-4.8202,-4.7375,-4.6037,-4.5691,-4.5594,-4.5594,-4.5594,-4.5594,-4.5594,-4.5594,-4.5594,-4.5594,-4.5594,-4.5594,-4.5594,-4.5594,-4.5594,-4.5594,-4.5594,-4.5594,-4.5594,-4.5594,-4.5594,-4.5594,-4.5594,-4.5498,-4.5267,-4.4489,-4.3662,-4.2827,-4.1961,-4.1161,-4.052,-4.0547,-4.0644,-4.0683,-4.1294,-4.18,-4.1896,-4.2593,-4.3425,-4.4044,-4.4468,-4.4935,-4.5499,-4.5518,-4.5333,-4.5203,-4.5118,-4.5082,-4.506,-4.5082,-4.5063,-4.5049,-4.4887,-4.4752,-4.4739,-4.4608,-4.4537,-4.451,-4.4496,-4.4482,-4.4482,-4.4482,-4.4482,-4.4482,-4.4482,-4.4482,-4.4482,-4.4482,-4.4482,-4.4482,-4.4482,-4.4482,-4.7379,-4.8006,-4.8272,-4.8861,-4.9487,-4.9641,-4.9905,-5.0218,-5.023,-5.0421,-5.0653,-5.0683,-5.0683,-5.0683,-5.0683,-5.0683,-5.0683,-5.0683,-5.0683,-5.0683,-5.0683,-5.0683,-5.0683,-5.0683,-5.0683,-5.0683,-5.0683,-5.0683,-5.0683,-5.0683,-5.0683,-5.0683,-5.0683,-5.0683,-5.0683,-5.0683,-5.0683,-5.0683,-5.0683,-5.0221,-4.9298,-4.8509,-4.7663,-4.6797,-4.599,-4.5594,-4.5594,-4.5594,-4.5594,-4.5594,-4.5594,-4.5594,-4.5594,-4.5594,-4.5594,-4.5594,-4.5594,-4.5594,-4.5594,-4.5594,-4.5594,-4.5594,-4.5594,-4.5594,-4.5594,-4.5594,-4.5267,-4.4547,-4.372,-4.2989,-4.2019,-4.1248,-4.0839,-4.0792,-4.1156,-4.1475,-4.1571,-4.2202,-4.2679,-4.2679,-4.3406,-4.3991,-4.4306,-4.487,-4.5385,-4.5596,-4.5428,-4.5253,-4.5096,-4.4929,-4.477,-4.4661,-4.472,-4.4752,-4.4648,-4.4565,-4.4546,-4.4551,-4.4524,-4.4482,-4.4482,-4.4482,-4.4482,-4.4482,-4.4482,-4.4482,-4.4482,-4.4482,-4.4482,-4.4482,-4.4482,-4.4482,-4.4482,-4.4482,-4.4496,-4.8273,-4.8569,-4.8696,-4.9055,-4.9521,-4.9573,-4.9707,-4.9943,-4.9974,-5.0057,-5.0178,-5.0336,-5.0504,-5.0683,-5.0683,-5.0683,-5.0683,-5.0683,-5.0683,-5.0683,-5.0683,-5.0683,-5.0683,-5.0683,-5.0683,-5.0683,-5.0683,-5.0683,-5.0683,-5.0683,-5.0683,-5.0683,-5.0683,-5.0683,-5.0683,-5.0683,-5.0683,-5.0683,-5.0683,-5.0519,-5.0067,-4.8798,-4.7721,-4.6904,-4.6067,-4.5594,-4.5594,-4.5594,-4.5594,-4.5594,-4.5594,-4.5594,-4.5594,-4.5594,-4.5594,-4.5594,-4.5594,-4.5594,-4.5594,-4.5594,-4.5594,-4.5594,-4.5594,-4.5594,-4.5594,-4.5594,-4.522,-4.4432,-4.3989,-4.3643,-4.3231,-4.2475,-4.1989,-4.201,-4.2189,-4.2317,-4.2317,-4.3034,-4.3491,-4.3567,-4.4246,-4.4782,-4.4862,-4.515,-4.5361,-4.537,-4.5239,-4.5154,-4.5007,-4.4821,-4.468,-4.4613,-4.464,-4.46,-4.451,-4.4482,-4.4482,-4.4482,-4.4482,-4.4482,-4.4482,-4.4482,-4.4482,-4.4482,-4.4482,-4.4482,-4.4482,-4.4482,-4.4482,-4.4482,-4.4482,-4.4482,-4.4482,-4.4482,-4.451,-4.889,-4.889,-4.889,-4.9044,-4.9273,-4.9273,-4.9423,-4.9684,-4.9679,-4.9721,-4.9811,-5.0006,-5.026,-5.0554,-5.0663,-5.0683,-5.0683,-5.0683,-5.0683,-5.0683,-5.0683,-5.0683,-5.0683,-5.0683,-5.0683,-5.0683,-5.0683,-5.0683,-5.0683,-5.0683,-5.0683,-5.0683,-5.0683,-5.0683,-5.0683,-5.0683,-5.0683,-5.0683,-5.0683,-5.0683,-5.0452,-4.899,-4.7827,-4.7192,-4.6163,-4.5594,-4.5594,-4.5594,-4.5594,-4.5594,-4.5594,-4.5594,-4.5594,-4.5594,-4.5594,-4.5594,-4.5594,-4.5594,-4.5594,-4.5594,-4.5594,-4.5594,-4.5594,-4.5594,-4.5594,-4.5594,-4.5325,-4.4806,-4.4643,-4.4547,-4.3932,-4.3406,-4.3062,-4.3043,-4.307,-4.3187,-4.3235,-4.3885,-4.436,-4.4418,-4.4876,-4.5277,-4.5277,-4.5288,-4.5297,-4.5194,-4.517,-4.5114,-4.4979,-4.487,-4.4796,-4.4725,-4.4619,-4.457,-4.4515,-4.4482,-4.4482,-4.4482,-4.4482,-4.4482,-4.4482,-4.4482,-4.4482,-4.4482,-4.4482,-4.4482,-4.4482,-4.4482,-4.4482,-4.4482,-4.4482,-4.4482,-4.4482,-4.451,-4.4592,-4.889,-4.889,-4.889,-4.8926,-4.8926,-4.8925,-4.9108,-4.9411,-4.9411,-4.9539,-4.973,-4.9803,-4.9974,-5.0218,-5.0493,-5.0683,-5.0683,-5.0683,-5.0683,-5.0683,-5.0683,-5.0683,-5.0683,-5.0683,-5.0683,-5.0683,-5.0683,-5.0683,-5.0683,-5.0683,-5.0683,-5.0683,-5.0683,-5.0683,-5.0683,-5.0683,-5.0683,-5.0683,-5.0683,-5.0683,-5.0471,-4.899,-4.8086,-4.7855,-4.6451,-4.5594,-4.5594,-4.5594,-4.5594,-4.5594,-4.5594,-4.5594,-4.5594,-4.5594,-4.5594,-4.5594,-4.5594,-4.5594,-4.5594,-4.5594,-4.5594,-4.5594,-4.5594,-4.5594,-4.5594,-4.5594,-4.5537,-4.5518,-4.5421,-4.4883,-4.3682,-4.35,-4.3308,-4.3327,-4.3787,-4.4077,-4.4125,-4.4689,-4.5173,-4.5163,-4.522,-4.5277,-4.5277,-4.5277,-4.5297,-4.5267,-4.5286,-4.5243,-4.5125,-4.508,-4.4955,-4.477,-4.468,-4.4646,-4.4524,-4.4482,-4.4482,-4.4482,-4.4482,-4.4482,-4.4482,-4.4482,-4.4482,-4.4482,-4.4482,-4.4482,-4.4482,-4.4482,-4.4482,-4.4482,-4.4482,-4.4482,-4.4537,-4.4619,-4.4712,-4.889,-4.889,-4.889,-4.889,-4.889,-4.889,-4.8976,-4.9077,-4.9077,-4.9125,-4.9268,-4.9454,-4.9598,-4.9693,-5.0006,-5.0344,-5.0673,-5.0683,-5.0683,-5.0683,-5.0683,-5.0683,-5.0683,-5.0683,-5.0683,-5.0683,-5.0683,-5.0683,-5.0683,-5.0683,-5.0683,-5.0683,-5.0683,-5.0683,-5.0683,-5.0683,-5.0683,-5.0683,-5.0683,-5.0683,-5.0548,-4.899,-4.8096,-4.8,-4.649,-4.5594,-4.5594,-4.5594,-4.5594,-4.5594,-4.5594,-4.5594,-4.5594,-4.5594,-4.5594,-4.5594,-4.5594,-4.5594,-4.5594,-4.5594,-4.5594,-4.5594,-4.5594,-4.5594,-4.5594,-4.5594,-4.5594,-4.5594,-4.5594,-4.5229,-4.4932,-4.4682,-4.4701,-4.4731,-4.4852,-4.494,-4.4978,-4.5158,-4.5277,-4.5277,-4.5277,-4.5277,-4.5277,-4.5277,-4.5277,-4.5277,-4.5277,-4.5275,-4.5243,-4.5159,-4.5026,-4.4858,-4.4764,-4.4685,-4.4646,-4.4537,-4.4482,-4.4482,-4.4482,-4.4482,-4.4482,-4.4482,-4.4482,-4.4482,-4.4482,-4.4482,-4.4482,-4.4482,-4.4496,-4.4528,-4.4528,-4.4565,-4.4619,-4.4725,-4.4808,-4.889,-4.889,-4.889,-4.8891,-4.8874,-4.8875,-4.8874,-4.8856,-4.8856,-4.8874,-4.8942,-4.9125,-4.9305,-4.943,-4.9583,-4.9942,-5.0388,-5.0483,-5.0604,-5.0683,-5.0683,-5.0683,-5.0683,-5.0683,-5.0683,-5.0683,-5.0683,-5.0683,-5.0683,-5.0683,-5.0683,-5.0683,-5.0683,-5.0683,-5.0683,-5.0683,-5.0683,-5.0683,-5.0683,-5.0683,-5.0481,-4.9009,-4.8096,-4.7855,-4.6499,-4.5594,-4.5594,-4.5594,-4.5594,-4.5594,-4.5594,-4.5568,-4.5485,-4.5381,-4.5361,-4.5361,-4.5313,-4.5342,-4.5352,-4.5419,-4.5476,-4.5466,-4.554,-4.5594,-4.5594,-4.5594,-4.5594,-4.5594,-4.5594,-4.5594,-4.5594,-4.5575,-4.5594,-4.5577,-4.5485,-4.541,-4.54,-4.535,-4.5288,-4.5277,-4.5277,-4.5277,-4.5277,-4.5277,-4.5277,-4.5277,-4.5277,-4.5277,-4.5267,-4.5224,-4.5125,-4.4979,-4.4895,-4.4821,-4.477,-4.4693,-4.4632,-4.4605,-4.4528,-4.4515,-4.4482,-4.4482,-4.4496,-4.4496,-4.4496,-4.4496,-4.4496,-4.4496,-4.4528,-4.457,-4.4592,-4.4646,-4.4706,-4.4808,-4.4907,-4.889,-4.889,-4.889,-4.8856,-4.8804,-4.8804,-4.8804,-4.8787,-4.8804,-4.8821,-4.8874,-4.8926,-4.9094,-4.9321,-4.9365,-4.9558,-4.9844,-5.0062,-5.0355,-5.0624,-5.0644,-5.0673,-5.0683,-5.0683,-5.0683,-5.0683,-5.0683,-5.0683,-5.0683,-5.0683,-5.0683,-5.0683,-5.0683,-5.0683,-5.0683,-5.0683,-5.0683,-5.0683,-5.0683,-5.0673,-5.0471,-4.8952,-4.8038,-4.7855,-4.6432,-4.5594,-4.5594,-4.5594,-4.5594,-4.5594,-4.5594,-4.5476,-4.5243,-4.5041,-4.4837,-4.4861,-4.4856,-4.4843,-4.4849,-4.5074,-4.5201,-4.5222,-4.5419,-4.5504,-4.5495,-4.5531,-4.5559,-4.554,-4.5586,-4.5594,-4.5594,-4.5594,-4.5594,-4.5586,-4.5485,-4.541,-4.539,-4.533,-4.5277,-4.5277,-4.5277,-4.5277,-4.5277,-4.5277,-4.5277,-4.5277,-4.5277,-4.5277,-4.5277,-4.5267,-4.5243,-4.5136,-4.5045,-4.4967,-4.4931,-4.4883,-4.4808,-4.4738,-4.4605,-4.4542,-4.4496,-4.4496,-4.4524,-4.4537,-4.4551,-4.4565,-4.4619,-4.4619,-4.4632,-4.4659,-4.4699,-4.4732,-4.4846,-4.4943,-4.5014,-4.889,-4.889,-4.889,-4.8856,-4.8804,-4.8804,-4.875,-4.8678,-4.8769,-4.8769,-4.8732,-4.8838,-4.8943,-4.8995,-4.9027,-4.9222,-4.9514,-4.9646,-4.9897,-5.0272,-5.0358,-5.0483,-5.0663,-5.0683,-5.0683,-5.0683,-5.0683,-5.0683,-5.0683,-5.0683,-5.0683,-5.0683,-5.0683,-5.0683,-5.0683,-5.0683,-5.0683,-5.0683,-5.0683,-5.0442,-4.9798,-4.8702,-4.7846,-4.7221,-4.6163,-4.5594,-4.5594,-4.5594,-4.5594,-4.5594,-4.5594,-4.5485,-4.5232,-4.5118,-4.4996,-4.4825,-4.4788,-4.4788,-4.48,-4.4861,-4.4919,-4.4931,-4.5019,-4.5041,-4.5074,-4.5232,-4.5322,-4.5352,-4.5485,-4.5594,-4.5594,-4.5594,-4.5594,-4.5594,-4.5485,-4.54,-4.539,-4.535,-4.5288,-4.5277,-4.5277,-4.5277,-4.5277,-4.5277,-4.5277,-4.5277,-4.5277,-4.5277,-4.5277,-4.5277,-4.5235,-4.5136,-4.5095,-4.5095,-4.5049,-4.5003,-4.4943,-4.4846,-4.4725,-4.4592,-4.4537,-4.4524,-4.4565,-4.4605,-4.4632,-4.4659,-4.4693,-4.4719,-4.4738,-4.4789,-4.4821,-4.4907,-4.5003,-4.5091,-4.5148,-4.889,-4.889,-4.889,-4.8839,-4.8751,-4.8715,-4.8642,-4.8587,-4.8661,-4.8697,-4.8697,-4.875,-4.8785,-4.8804,-4.8839,-4.8959,-4.9179,-4.9209,-4.9469,-4.991,-5.0147,-5.0306,-5.0514,-5.0644,-5.0683,-5.0683,-5.0683,-5.0683,-5.0683,-5.0683,-5.0683,-5.0683,-5.0683,-5.0683,-5.0683,-5.0683,-5.0683,-5.0683,-5.0683,-5.0279,-4.9413,-4.8548,-4.7702,-4.6913,-4.6047,-4.5633,-4.5594,-4.5594,-4.5594,-4.5577,-4.5513,-4.5362,-4.5211,-4.5096,-4.4985,-4.4837,-4.4788,-4.4751,-4.4676,-4.4758,-4.4739,-4.4688,-4.4739,-4.48,-4.4825,-4.4985,-4.5063,-4.5222,-4.5342,-4.5495,-4.5577,-4.5594,-4.5594,-4.5594,-4.5485,-4.539,-4.5351,-4.5329,-4.5307,-4.5277,-4.5277,-4.5277,-4.5277,-4.5277,-4.5277,-4.5277,-4.5277,-4.5277,-4.5277,-4.5277,-4.5224,-4.5192,-4.5211,-4.5192,-4.5162,-4.5117,-4.508,-4.4955,-4.4833,-4.4693,-4.4619,-4.4605,-4.4632,-4.4719,-4.477,-4.4789,-4.4808,-4.4796,-4.4808,-4.4883,-4.4967,-4.5038,-4.5136,-4.517,-4.5213,-4.889,-4.889,-4.8891,-4.8785,-4.8605,-4.8587,-4.855,-4.8494,-4.8494,-4.8606,-4.8678,-4.866,-4.8678,-4.8769,-4.8769,-4.8822,-4.8822,-4.8909,-4.9094,-4.945,-4.9825,-5.0135,-5.0272,-5.0554,-5.0683,-5.0683,-5.0683,-5.0683,-5.0683,-5.0683,-5.0683,-5.0683,-5.0683,-5.0683,-5.0683,-5.0683,-5.0683,-5.0683,-5.0616,-5.0106,-4.926,-4.8413,-4.7586,-4.6797,-4.6009,-4.5594,-4.5594,-4.5594,-4.5594,-4.5568,-4.54,-4.5272,-4.5159,-4.4938,-4.4831,-4.4701,-4.4726,-4.4604,-4.4498,-4.4533,-4.4599,-4.443,-4.4546,-4.4782,-4.4758,-4.48,-4.4962,-4.5161,-4.5272,-4.5362,-4.5559,-4.5594,-4.5586,-4.5568,-4.5457,-4.5371,-4.5309,-4.5288,-4.5277,-4.5277,-4.5277,-4.5277,-4.5277,-4.5277,-4.5277,-4.5277,-4.5277,-4.5277,-4.5277,-4.5277,-4.5277,-4.5286,-4.5265,-4.5265,-4.5224,-4.5213,-4.517,-4.5114,-4.4967,-4.4846,-4.4732,-4.4732,-4.4757,-4.4858,-4.4907,-4.4907,-4.4919,-4.4931,-4.4967,-4.5068,-4.5136,-4.5181,-4.5213,-4.5235,-4.5246,-4.889,-4.8891,-4.8857,-4.8732,-4.8587,-4.855,-4.8457,-4.8382,-4.8457,-4.8457,-4.8476,-4.8569,-4.8587,-4.8587,-4.8642,-4.8696,-4.8787,-4.8822,-4.8874,-4.9059,-4.9423,-4.9844,-5.0183,-5.0544,-5.0683,-5.0683,-5.0683,-5.0683,-5.0683,-5.0683,-5.0683,-5.0683,-5.0683,-5.0683,-5.0683,-5.0683,-5.0683,-5.0587,-5.0019,-4.9356,-4.8471,-4.7682,-4.6797,-4.5998,-4.571,-4.5594,-4.5594,-4.5594,-4.5594,-4.5594,-4.555,-4.5302,-4.4985,-4.4856,-4.4669,-4.436,-4.425,-4.4206,-4.4166,-4.421,-4.4196,-4.4121,-4.4206,-4.4275,-4.4493,-4.4688,-4.4896,-4.515,-4.5352,-4.5504,-4.5577,-4.5594,-4.5549,-4.5457,-4.5419,-4.5361,-4.5309,-4.5277,-4.5277,-4.5277,-4.5277,-4.5277,-4.5277,-4.5277,-4.5277,-4.5277,-4.5277,-4.5277,-4.5277,-4.5277,-4.5277,-4.5277,-4.5286,-4.5297,-4.5277,-4.5277,-4.5256,-4.5243,-4.5136,-4.4991,-4.4931,-4.4919,-4.4967,-4.5038,-4.5038,-4.5038,-4.5084,-4.5117,-4.5192,-4.5222,-4.5224,-4.5246,-4.5256,-4.5267,-4.5267,-4.889,-4.889,-4.8856,-4.8732,-4.8605,-4.8569,-4.8457,-4.8325,-4.8382,-4.8419,-4.8382,-4.842,-4.8495,-4.8494,-4.8532,-4.8587,-4.8679,-4.8751,-4.8822,-4.8909,-4.9257,-4.9712,-5.0178,-5.0544,-5.0683,-5.0683,-5.0683,-5.0683,-5.0683,-5.0683,-5.0683,-5.0683,-5.0683,-5.0683,-5.0683,-5.0693,-5.0481,-5.0144,-4.9586,-4.8856,-4.7663,-4.7154,-4.6471,-4.5787,-4.5594,-4.5594,-4.5586,-4.5475,-4.5466,-4.555,-4.5495,-4.5292,-4.5019,-4.4868,-4.4669,-4.4332,-4.4318,-4.4303,-4.4177,-4.4181,-4.4106,-4.4017,-4.4005,-4.4079,-4.4206,-4.4388,-4.4585,-4.4966,-4.5161,-4.5352,-4.5568,-4.5594,-4.5531,-4.5438,-4.541,-4.538,-4.5298,-4.5277,-4.5277,-4.5277,-4.5277,-4.5277,-4.5277,-4.5277,-4.5277,-4.5277,-4.5277,-4.5277,-4.5277,-4.5277,-4.5277,-4.5277,-4.5277,-4.5277,-4.5277,-4.5277,-4.5277,-4.5275,-4.5254,-4.5125,-4.508,-4.5049,-4.5095,-4.5148,-4.517,-4.5181,-4.5213,-4.5235,-4.5246,-4.5275,-4.5297,-4.5277,-4.5277,-4.5277,-4.5277,-4.889,-4.889,-4.8891,-4.8785,-4.8605,-4.8587,-4.8476,-4.8325,-4.8324,-4.8363,-4.842,-4.8363,-4.8382,-4.8494,-4.8457,-4.8476,-4.8531,-4.8661,-4.8751,-4.8891,-4.9174,-4.9579,-4.9981,-5.0399,-5.0614,-5.0663,-5.0673,-5.0673,-5.0663,-5.0663,-5.0663,-5.0673,-5.0683,-5.0702,-5.0615,-5.0567,-5.0125,-4.9558,-4.9048,-4.8269,-4.7183,-4.675,-4.624,-4.5748,-4.5594,-4.5594,-4.554,-4.541,-4.5371,-4.5586,-4.5322,-4.5118,-4.5063,-4.4849,-4.472,-4.463,-4.4533,-4.4465,-4.4369,-4.426,-4.4236,-4.4048,-4.4005,-4.4036,-4.4109,-4.4162,-4.4388,-4.4896,-4.4837,-4.5169,-4.5495,-4.5594,-4.5531,-4.5429,-4.541,-4.537,-4.5309,-4.5277,-4.5277,-4.5277,-4.5277,-4.5277,-4.5277,-4.5277,-4.5277,-4.5277,-4.5277,-4.5277,-4.5277,-4.5277,-4.5277,-4.5277,-4.5277,-4.5277,-4.5277,-4.5277,-4.5277,-4.5297,-4.5286,-4.5213,-4.517,-4.5159,-4.5192,-4.5224,-4.5224,-4.5235,-4.5256,-4.5267,-4.5297,-4.5297,-4.5277,-4.5277,-4.5277,-4.5277,-4.5277,-4.889,-4.8891,-4.8839,-4.8732,-4.8587,-4.855,-4.8438,-4.8324,-4.8324,-4.8324,-4.8343,-4.8306,-4.8306,-4.8344,-4.8363,-4.8401,-4.8494,-4.8569,-4.8624,-4.884,-4.9023,-4.9214,-4.9541,-5.0019,-5.0432,-5.0554,-5.0421,-5.0453,-5.0585,-5.0504,-5.044,-5.0594,-5.0663,-5.0663,-5.0518,-5.001,-4.9606,-4.9144,-4.8145,-4.7375,-4.6838,-4.6203,-4.5864,-4.5594,-4.5594,-4.5594,-4.5586,-4.5531,-4.5531,-4.5457,-4.515,-4.4812,-4.4676,-4.4546,-4.4416,-4.4279,-4.4225,-4.4166,-4.4106,-4.4091,-4.406,-4.4036,-4.4005,-4.4075,-4.4303,-4.4289,-4.4559,-4.4966,-4.5118,-4.5262,-4.5531,-4.5594,-4.5522,-4.5457,-4.54,-4.5361,-4.5309,-4.5277,-4.5277,-4.5277,-4.5277,-4.5277,-4.5277,-4.5277,-4.5277,-4.5277,-4.5277,-4.5277,-4.5277,-4.5277,-4.5277,-4.5277,-4.5277,-4.5277,-4.5277,-4.5277,-4.5277,-4.5277,-4.5277,-4.5277,-4.5235,-4.5224,-4.5246,-4.5256,-4.5267,-4.5277,-4.5277,-4.5277,-4.5297,-4.5277,-4.5277,-4.5277,-4.5277,-4.5277,-4.5105,-4.889,-4.8891,-4.8822,-4.8715,-4.8605,-4.8513,-4.842,-4.8324,-4.8324,-4.8324,-4.8324,-4.8324,-4.8324,-4.8324,-4.8324,-4.8363,-4.8401,-4.8476,-4.855,-4.866,-4.8801,-4.8919,-4.9164,-4.9646,-5.0075,-5.0347,-5.0421,-5.0504,-5.0594,-5.0534,-5.0523,-5.0573,-5.0644,-5.0365,-5.0037,-4.9538,-4.8942,-4.8154,-4.7395,-4.6722,-4.6213,-4.5865,-4.5594,-4.5594,-4.5594,-4.5594,-4.5594,-4.5476,-4.5419,-4.5292,-4.4908,-4.4624,-4.4533,-4.4346,-4.4151,-4.4051,-4.4005,-4.4005,-4.4005,-4.4005,-4.4005,-4.4005,-4.4005,-4.4151,-4.4318,-4.4416,-4.4644,-4.5052,-4.5211,-4.5312,-4.5568,-4.5594,-4.5522,-4.5448,-4.541,-4.538,-4.5309,-4.5277,-4.5277,-4.5277,-4.5277,-4.5277,-4.5277,-4.5277,-4.5277,-4.5277,-4.5277,-4.5277,-4.5277,-4.5277,-4.5277,-4.5277,-4.5277,-4.5277,-4.5277,-4.5277,-4.5277,-4.5277,-4.5277,-4.5277,-4.5267,-4.5267,-4.5277,-4.5277,-4.5277,-4.5277,-4.5277,-4.5277,-4.5277,-4.5277,-4.5277,-4.5277,-4.5258,-4.5239,-4.4914,-4.889,-4.8891,-4.8822,-4.8715,-4.8605,-4.8513,-4.8438,-4.8324,-4.8324,-4.8324,-4.8324,-4.8324,-4.8324,-4.8324,-4.8324,-4.8324,-4.8325,-4.8401,-4.8476,-4.8532,-4.855,-4.8677,-4.8919,-4.9259,-4.9603,-4.9936,-5.0279,-5.0502,-5.0554,-5.0614,-5.0553,-5.0565,-5.0452,-5.0077,-4.9471,-4.8962,-4.8327,-4.7212,-4.6769,-4.6327,-4.5788,-4.5624,-4.5594,-4.5594,-4.5594,-4.5594,-4.5531,-4.5371,-4.5251,-4.5222,-4.4726,-4.4599,-4.4585,-4.4322,-4.4005,-4.4005,-4.4005,-4.4005,-4.4005,-4.4005,-4.4005,-4.4005,-4.4005,-4.414,-4.4336,-4.4438,-4.4688,-4.5019,-4.5272,-4.539,-4.5568,-4.5594,-4.5531,-4.5448,-4.5419,-4.538,-4.5329,-4.5288,-4.5277,-4.5277,-4.5277,-4.5277,-4.5277,-4.5277,-4.5277,-4.5277,-4.5277,-4.5277,-4.5277,-4.5277,-4.5277,-4.5277,-4.5277,-4.5277,-4.5277,-4.5277,-4.5277,-4.5277,-4.5277,-4.5277,-4.5277,-4.5277,-4.5277,-4.5277,-4.5277,-4.5277,-4.5277,-4.5277,-4.5277,-4.5277,-4.5277,-4.5277,-4.5239,-4.5182,-4.4685,-4.889,-4.8891,-4.8822,-4.8715,-4.8605,-4.8532,-4.8419,-4.8324,-4.8324,-4.8324,-4.8324,-4.8324,-4.8324,-4.8324,-4.8324,-4.8324,-4.8306,-4.8343,-4.8419,-4.8457,-4.8438,-4.8458,-4.8623,-4.8885,-4.9083,-4.9265,-4.9773,-5.0159,-5.0195,-5.0241,-5.0213,-5.0342,-4.9884,-4.9375,-4.8817,-4.8106,-4.7366,-4.6694,-4.6222,-4.5769,-4.5617,-4.5577,-4.5594,-4.5594,-4.5594,-4.5594,-4.554,-4.5362,-4.5302,-4.5429,-4.4812,-4.4637,-4.4637,-4.4308,-4.4067,-4.4005,-4.4005,-4.4005,-4.4005,-4.4005,-4.4005,-4.4005,-4.4036,-4.4151,-4.4332,-4.4452,-4.4763,-4.5107,-4.541,-4.554,-4.5586,-4.5594,-4.5568,-4.5495,-4.5429,-4.5381,-4.536,-4.5328,-4.5277,-4.5277,-4.5277,-4.5277,-4.5277,-4.5277,-4.5277,-4.5277,-4.5277,-4.5277,-4.5277,-4.5277,-4.5277,-4.5277,-4.5277,-4.5277,-4.5277,-4.5277,-4.5277,-4.5277,-4.5277,-4.5277,-4.5277,-4.5277,-4.5277,-4.5277,-4.5277,-4.5277,-4.5277,-4.5277,-4.5277,-4.5277,-4.5277,-4.5277,-4.501,-4.4743,-4.4227,-4.8714,-4.8874,-4.8532,-4.8476,-4.8569,-4.8439,-4.8363,-4.8324,-4.8324,-4.8324,-4.8324,-4.8324,-4.8324,-4.8324,-4.8324,-4.8324,-4.8324,-4.8324,-4.8343,-4.8382,-4.8325,-4.8325,-4.8438,-4.8658,-4.8799,-4.8996,-4.9431,-4.9741,-4.9749,-4.9372,-4.9465,-4.9362,-4.8881,-4.8351,-4.7922,-4.7271,-4.6579,-4.6195,-4.579,-4.5586,-4.554,-4.5586,-4.5594,-4.5594,-4.5594,-4.5594,-4.5577,-4.5504,-4.5476,-4.5466,-4.5096,-4.4861,-4.4688,-4.4471,-4.4151,-4.4067,-4.4005,-4.4005,-4.4005,-4.4005,-4.4005,-4.4002,-4.4106,-4.4332,-4.4559,-4.4757,-4.4977,-4.5293,-4.5457,-4.5594,-4.5594,-4.5594,-4.5568,-4.5504,-4.5438,-4.541,-4.5389,-4.5338,-4.5317,-4.5277,-4.5277,-4.5277,-4.5277,-4.5277,-4.5277,-4.5277,-4.5277,-4.5277,-4.5277,-4.5277,-4.5277,-4.5277,-4.5277,-4.5277,-4.5277,-4.5277,-4.5277,-4.5277,-4.5277,-4.5277,-4.5277,-4.5277,-4.5277,-4.5277,-4.5277,-4.5277,-4.5277,-4.5277,-4.5277,-4.5258,-4.522,-4.5067,-4.4666,-4.4236,-4.3643,-4.8587,-4.8838,-4.8326,-4.8307,-4.8532,-4.8383,-4.8324,-4.8324,-4.8324,-4.8324,-4.8324,-4.8324,-4.8324,-4.8324,-4.8324,-4.8324,-4.8324,-4.8324,-4.8306,-4.8306,-4.8306,-4.8306,-4.8401,-4.8513,-4.8583,-4.8304,-4.8595,-4.9036,-4.9084,-4.8775,-4.8509,-4.8307,-4.7804,-4.7256,-4.6836,-4.6599,-4.6081,-4.5791,-4.5568,-4.5594,-4.5594,-4.5594,-4.5594,-4.5594,-4.5594,-4.5594,-4.5594,-4.5495,-4.5513,-4.5485,-4.5282,-4.503,-4.4861,-4.4624,-4.4388,-4.4196,-4.4079,-4.4017,-4.4094,-4.4109,-4.414,-4.4136,-4.4346,-4.4599,-4.4861,-4.5096,-4.5342,-4.554,-4.5594,-4.5594,-4.5594,-4.5594,-4.5577,-4.5522,-4.5467,-4.541,-4.538,-4.5359,-4.5307,-4.5277,-4.5277,-4.5277,-4.5277,-4.5277,-4.5277,-4.5277,-4.5277,-4.5277,-4.5277,-4.5277,-4.5277,-4.5277,-4.5277,-4.5277,-4.5277,-4.5277,-4.5277,-4.5277,-4.5277,-4.5277,-4.5277,-4.5277,-4.5277,-4.5277,-4.5277,-4.5277,-4.5277,-4.5201,-4.5086,-4.5029,-4.5048,-4.4704,-4.4017,-4.3367,-4.2775,-4.8874,-4.8891,-4.8623,-4.855,-4.855,-4.8364,-4.8324,-4.8324,-4.8324,-4.8324,-4.8324,-4.8324,-4.8324,-4.8324,-4.8324,-4.8324,-4.8324,-4.8324,-4.8324,-4.8324,-4.8324,-4.8324,-4.8306,-4.8325,-4.7979,-4.7647,-4.7499,-4.777,-4.7995,-4.8108,-4.799,-4.7516,-4.6915,-4.6579,-4.6521,-4.6091,-4.5637,-4.5596,-4.5586,-4.5594,-4.5594,-4.5594,-4.5594,-4.5594,-4.5594,-4.5594,-4.5577,-4.5448,-4.5419,-4.5522,-4.5148,-4.4996,-4.5071,-4.4915,-4.4776,-4.4572,-4.4351,-4.4124,-4.4303,-4.4346,-4.4346,-4.4402,-4.4599,-4.4861,-4.5118,-4.5342,-4.5522,-4.5577,-4.5594,-4.5594,-4.5594,-4.5594,-4.5586,-4.5559,-4.5485,-4.5438,-4.54,-4.5379,-4.5328,-4.5277,-4.5277,-4.5277,-4.5277,-4.5277,-4.5277,-4.5277,-4.5277,-4.5277,-4.5277,-4.5277,-4.5277,-4.5277,-4.5277,-4.5277,-4.5277,-4.5277,-4.5277,-4.5277,-4.5277,-4.5277,-4.5277,-4.5277,-4.5277,-4.5277,-4.5277,-4.5163,-4.501,-4.4895,-4.4819,-4.4609,-4.4399,-4.3825,-4.3119,-4.2507,-4.2011,-4.855,-4.855,-4.8345,-4.8249,-4.8268,-4.8287,-4.8324,-4.8324,-4.8324,-4.8324,-4.8324,-4.8324,-4.8324,-4.8324,-4.8324,-4.8324,-4.8324,-4.8324,-4.8324,-4.8288,-4.8288,-4.8288,-4.8196,-4.7884,-4.7389,-4.7186,-4.6745,-4.6332,-4.6579,-4.6448,-4.6293,-4.6369,-4.5799,-4.5544,-4.5991,-4.563,-4.5496,-4.5485,-4.554,-4.5594,-4.5594,-4.5594,-4.5594,-4.5594,-4.5594,-4.5594,-4.5568,-4.5513,-4.5476,-4.5568,-4.5341,-4.5241,-4.5201,-4.5085,-4.503,-4.4996,-4.4676,-4.4533,-4.463,-4.4643,-4.4624,-4.4688,-4.4872,-4.5129,-4.539,-4.5513,-4.5594,-4.5594,-4.5594,-4.5594,-4.5594,-4.5594,-4.5594,-4.5568,-4.5523,-4.5457,-4.54,-4.5399,-4.5367,-4.5328,-4.5277,-4.5277,-4.5277,-4.5277,-4.5277,-4.5277,-4.5277,-4.5277,-4.5277,-4.5277,-4.5277,-4.5277,-4.5277,-4.5277,-4.5277,-4.5277,-4.5277,-4.5277,-4.5277,-4.5277,-4.5277,-4.5277,-4.5277,-4.5277,-4.5269,-4.5067,-4.4762,-4.4532,-4.436,-4.4006,-4.3624,-4.2966,-4.2316,-4.2049,-4.1533,-4.8034,-4.8094,-4.8014,-4.7992,-4.8012,-4.8093,-4.8191,-4.8324,-4.8324,-4.8324,-4.8324,-4.8324,-4.8324,-4.8324,-4.8324,-4.8324,-4.8324,-4.8324,-4.8324,-4.8288,-4.8104,-4.7976,-4.7682,-4.7242,-4.6764,-4.6877,-4.5973,-4.5363,-4.4895,-4.4722,-4.4888,-4.5159,-4.4952,-4.4896,-4.5159,-4.5359,-4.5429,-4.5448,-4.5559,-4.5586,-4.5594,-4.5594,-4.5594,-4.5594,-4.5594,-4.5594,-4.5594,-4.5586,-4.5586,-4.5586,-4.5577,-4.5467,-4.5342,-4.5322,-4.5302,-4.5282,-4.5074,-4.5019,-4.5007,-4.4966,-4.4908,-4.4985,-4.5148,-4.5371,-4.5522,-4.5594,-4.5594,-4.5594,-4.5594,-4.5594,-4.5594,-4.5594,-4.5594,-4.5577,-4.5522,-4.5457,-4.541,-4.539,-4.5359,-4.5317,-4.5277,-4.5277,-4.5277,-4.5277,-4.5277,-4.5277,-4.5277,-4.5277,-4.5277,-4.5277,-4.5277,-4.5277,-4.5277,-4.5277,-4.5277,-4.5277,-4.5277,-4.5277,-4.5277,-4.5277,-4.5277,-4.5277,-4.5277,-4.5277,-4.5173,-4.4781,-4.4331,-4.4102,-4.3834,-4.3157,-4.2526,-4.2068,-4.159,-4.1361,-4.1151,-4.7248,-4.7653,-4.7838,-4.7917,-4.7972,-4.7733,-4.7897,-4.823,-4.8287,-4.8324,-4.8324,-4.8324,-4.8324,-4.8324,-4.8324,-4.8324,-4.8324,-4.8324,-4.8251,-4.7994,-4.7627,-4.7296,-4.6929,-4.6379,-4.5681,-4.5202,-4.4856,-4.4395,-4.3861,-4.3876,-4.3917,-4.4073,-4.4378,-4.4656,-4.4973,-4.526,-4.541,-4.5457,-4.554,-4.5586,-4.5594,-4.5594,-4.5594,-4.5594,-4.5594,-4.5594,-4.5594,-4.5594,-4.5594,-4.5594,-4.5594,-4.5594,-4.5513,-4.5504,-4.5504,-4.5485,-4.5467,-4.541,-4.5371,-4.5263,-4.5191,-4.5243,-4.5362,-4.5522,-4.5586,-4.5594,-4.5594,-4.5594,-4.5594,-4.5594,-4.5594,-4.5594,-4.5594,-4.5586,-4.5559,-4.5485,-4.5438,-4.5409,-4.5379,-4.5317,-4.5277,-4.5277,-4.5277,-4.5277,-4.5277,-4.5277,-4.5277,-4.5277,-4.5277,-4.5277,-4.5277,-4.5277,-4.5277,-4.5277,-4.5277,-4.5277,-4.5277,-4.5277,-4.5277,-4.5277,-4.5277,-4.5277,-4.5277,-4.4914,-4.4704,-4.4322,-4.3873,-4.3463,-4.2889,-4.2049,-4.1476,-4.1237,-4.1008,-4.0807,-4.0654,-4.7004,-4.716,-4.7164,-4.7295,-4.7509,-4.7653,-4.7775,-4.7915,-4.8172,-4.8324,-4.8305,-4.8324,-4.8324,-4.8305,-4.8324,-4.8324,-4.8324,-4.8324,-4.8031,-4.7608,-4.7204,-4.6819,-4.6324,-4.5626,-4.5002,-4.4617,-4.425,-4.3883,-4.3588,-4.3479,-4.3531,-4.3795,-4.4072,-4.4471,-4.48,-4.5169,-4.5381,-4.5467,-4.5531,-4.5594,-4.5594,-4.5594,-4.5594,-4.5594,-4.5594,-4.5594,-4.5594,-4.5594,-4.5594,-4.5594,-4.5594,-4.5594,-4.5594,-4.5594,-4.5594,-4.5594,-4.5594,-4.5594,-4.5594,-4.5495,-4.5448,-4.5448,-4.5531,-4.5594,-4.5594,-4.5594,-4.5594,-4.5594,-4.5594,-4.5594,-4.5594,-4.5594,-4.5594,-4.5586,-4.5568,-4.5504,-4.5457,-4.5429,-4.5389,-4.5319,-4.5288,-4.5277,-4.5277,-4.5277,-4.5277,-4.5277,-4.5277,-4.5277,-4.5277,-4.5277,-4.5277,-4.5277,-4.5277,-4.5277,-4.5277,-4.5277,-4.5277,-4.5277,-4.5277,-4.5277,-4.5277,-4.5288,-4.5192,-4.4743,-4.4093,-4.3539,-4.3042,-4.2603,-4.2068,-4.1495,-4.1027,-4.0673,-4.0453,-4.0328,-4.0318,-4.6771,-4.6863,-4.6654,-4.673,-4.7053,-4.727,-4.7378,-4.7485,-4.7895,-4.8094,-4.8093,-4.8093,-4.8113,-4.8132,-4.8267,-4.8305,-4.8214,-4.8012,-4.759,-4.7094,-4.6562,-4.6104,-4.5443,-4.4819,-4.4287,-4.4195,-4.3901,-4.3497,-4.3497,-4.3479,-4.3513,-4.3582,-4.373,-4.4114,-4.4578,-4.506,-4.5341,-4.5448,-4.5504,-4.5586,-4.5586,-4.5594,-4.5594,-4.5594,-4.5594,-4.5594,-4.5594,-4.5594,-4.5594,-4.5594,-4.5594,-4.5594,-4.5594,-4.5594,-4.5594,-4.5594,-4.5594,-4.5594,-4.5594,-4.5594,-4.5594,-4.5577,-4.5577,-4.5594,-4.5594,-4.5594,-4.5594,-4.5594,-4.5594,-4.5594,-4.5594,-4.5594,-4.5594,-4.5594,-4.5594,-4.555,-4.5476,-4.5429,-4.539,-4.5339,-4.5309,-4.5277,-4.5277,-4.5277,-4.5277,-4.5277,-4.5277,-4.5277,-4.5277,-4.5277,-4.5277,-4.5277,-4.5277,-4.5277,-4.5277,-4.5277,-4.5277,-4.5277,-4.5277,-4.5277,-4.5277,-4.5231,-4.4906,-4.436,-4.3634,-4.2794,-4.2202,-4.1762,-4.1437,-4.1113,-4.0749,-4.0424,-4.0385,-4.0326,-4.0353,-4.6477,-4.6817,-4.6405,-4.6374,-4.6572,-4.6501,-4.6649,-4.6976,-4.7399,-4.763,-4.7611,-4.7632,-4.7674,-4.7775,-4.8113,-4.8213,-4.7975,-4.7498,-4.7021,-4.6562,-4.5682,-4.4966,-4.4525,-4.4066,-4.3773,-4.3552,-4.3479,-4.3479,-4.3479,-4.3479,-4.3479,-4.3496,-4.3599,-4.3812,-4.4185,-4.477,-4.5208,-4.5438,-4.5476,-4.5513,-4.5577,-4.5586,-4.5594,-4.5594,-4.5594,-4.5594,-4.5594,-4.5594,-4.5594,-4.5594,-4.5594,-4.5594,-4.5594,-4.5594,-4.5594,-4.5594,-4.5594,-4.5594,-4.5594,-4.5594,-4.5594,-4.5594,-4.5594,-4.5594,-4.5594,-4.5594,-4.5594,-4.5594,-4.5594,-4.5594,-4.5594,-4.5594,-4.5594,-4.5594,-4.5594,-4.5577,-4.5504,-4.5448,-4.541,-4.538,-4.5329,-4.5288,-4.5277,-4.5277,-4.5277,-4.5277,-4.5277,-4.5277,-4.5297,-4.5277,-4.5277,-4.5277,-4.5277,-4.5277,-4.5277,-4.5277,-4.5277,-4.5277,-4.5307,-4.5328,-4.506,-4.4784,-4.441,-4.3912,-4.3062,-4.2135,-4.1485,-4.0922,-4.0807,-4.0739,-4.0548,-4.0336,-4.0316,-4.0342,-4.0396,-4.6295,-4.6405,-4.627,-4.6147,-4.6147,-4.6423,-4.6501,-4.6531,-4.689,-4.7138,-4.7204,-4.7442,-4.7611,-4.7754,-4.7944,-4.7956,-4.7461,-4.7333,-4.6819,-4.548,-4.4856,-4.4397,-4.3975,-4.3718,-4.3479,-4.3479,-4.3479,-4.3479,-4.3479,-4.3479,-4.3479,-4.3496,-4.3548,-4.3763,-4.4121,-4.457,-4.491,-4.5186,-4.5281,-4.5362,-4.5513,-4.5568,-4.5586,-4.5586,-4.5594,-4.5594,-4.5594,-4.5594,-4.5594,-4.5594,-4.5594,-4.5594,-4.5594,-4.5594,-4.5594,-4.5594,-4.5594,-4.5594,-4.5594,-4.5594,-4.5594,-4.5594,-4.5594,-4.5594,-4.5594,-4.5594,-4.5594,-4.5594,-4.5594,-4.5594,-4.5594,-4.5594,-4.5594,-4.5594,-4.5586,-4.5568,-4.5513,-4.5475,-4.5457,-4.541,-4.538,-4.5329,-4.5309,-4.5309,-4.5309,-4.5328,-4.5328,-4.5317,-4.5307,-4.5288,-4.5288,-4.5277,-4.5277,-4.5277,-4.5288,-4.5309,-4.5329,-4.5359,-4.5369,-4.5379,-4.5044,-4.446,-4.3838,-4.3302,-4.2374,-4.1483,-4.1015,-4.0623,-4.0507,-4.0391,-4.0353,-4.0353,-4.037,-4.0413,-4.0455,-4.6214,-4.6214,-4.6214,-4.6048,-4.5871,-4.6179,-4.6277,-4.6211,-4.6363,-4.6465,-4.6701,-4.6981,-4.7006,-4.7078,-4.7343,-4.7368,-4.669,-4.6305,-4.603,-4.469,-4.436,-4.3993,-4.3644,-4.3479,-4.3479,-4.3479,-4.3479,-4.3479,-4.3479,-4.3479,-4.3479,-4.3496,-4.3548,-4.3716,-4.4017,-4.4327,-4.4707,-4.4981,-4.5137,-4.5201,-4.54,-4.5513,-4.5504,-4.5568,-4.5594,-4.5594,-4.5594,-4.5594,-4.5594,-4.5594,-4.5594,-4.5594,-4.5594,-4.5594,-4.5594,-4.5594,-4.5594,-4.5594,-4.5594,-4.5594,-4.5594,-4.5594,-4.5594,-4.5594,-4.5594,-4.5594,-4.5594,-4.5594,-4.5594,-4.5594,-4.5594,-4.5594,-4.5594,-4.5594,-4.5586,-4.5568,-4.5559,-4.5522,-4.5495,-4.5467,-4.541,-4.5361,-4.532,-4.533,-4.533,-4.5339,-4.5348,-4.5338,-4.5338,-4.5338,-4.5319,-4.5329,-4.5329,-4.535,-4.533,-4.5341,-4.5361,-4.5409,-4.5361,-4.5275,-4.4662,-4.403,-4.3378,-4.2648,-4.1729,-4.0992,-4.0666,-4.0398,-4.0388,-4.0388,-4.0388,-4.0396,-4.0432,-4.0466,-4.0495,-4.6214,-4.6214,-4.6214,-4.6065,-4.5846,-4.5846,-4.5972,-4.6112,-4.5667,-4.5727,-4.6186,-4.6189,-4.6076,-4.586,-4.6206,-4.6142,-4.581,-4.515,-4.4801,-4.4452,-4.3956,-4.3626,-4.3534,-4.3479,-4.3479,-4.3479,-4.3479,-4.3479,-4.3479,-4.3479,-4.3479,-4.3479,-4.3496,-4.3632,-4.3846,-4.4094,-4.4498,-4.4763,-4.4868,-4.503,-4.5322,-4.5342,-4.5419,-4.5513,-4.5594,-4.5594,-4.5594,-4.5594,-4.5594,-4.5594,-4.5594,-4.5594,-4.5594,-4.5594,-4.5594,-4.5594,-4.5594,-4.5594,-4.5594,-4.5594,-4.5594,-4.5594,-4.5594,-4.5594,-4.5594,-4.5594,-4.5594,-4.5594,-4.5594,-4.5594,-4.5594,-4.5594,-4.5594,-4.5594,-4.5594,-4.5586,-4.5577,-4.5559,-4.5541,-4.5505,-4.5448,-4.5419,-4.54,-4.539,-4.538,-4.537,-4.538,-4.54,-4.539,-4.5389,-4.538,-4.539,-4.539,-4.539,-4.539,-4.5371,-4.539,-4.5438,-4.5141,-4.4959,-4.4288,-4.3597,-4.2837,-4.2031,-4.1104,-4.0547,-4.0468,-4.043,-4.0413,-4.0422,-4.0438,-4.0449,-4.0466,-4.0479,-4.05,-4.6214,-4.6214,-4.6214,-4.6115,-4.5939,-4.5761,-4.5667,-4.5589,-4.545,-4.5528,-4.5632,-4.5425,-4.5299,-4.524,-4.5465,-4.5148,-4.4854,-4.4602,-4.4288,-4.3938,-4.3644,-4.3534,-4.3479,-4.3479,-4.3479,-4.3479,-4.3479,-4.3479,-4.3479,-4.3479,-4.3479,-4.3479,-4.3479,-4.3565,-4.3666,-4.3814,-4.4206,-4.4471,-4.4493,-4.4825,-4.5129,-4.5191,-4.5332,-4.5495,-4.5586,-4.5586,-4.5594,-4.5594,-4.5594,-4.5594,-4.5594,-4.5594,-4.5594,-4.5594,-4.5594,-4.5594,-4.5594,-4.5594,-4.5594,-4.5594,-4.5594,-4.5594,-4.5594,-4.5594,-4.5594,-4.5594,-4.5594,-4.5594,-4.5594,-4.5594,-4.5594,-4.5594,-4.5594,-4.5594,-4.5594,-4.5594,-4.5586,-4.5577,-4.5559,-4.555,-4.5495,-4.5476,-4.5457,-4.5438,-4.5429,-4.5419,-4.5419,-4.5438,-4.5438,-4.5438,-4.5438,-4.5448,-4.5429,-4.5438,-4.5419,-4.5381,-4.5429,-4.5428,-4.5073,-4.4641,-4.4044,-4.3304,-4.2371,-4.1574,-4.0866,-4.0595,-4.0495,-4.0468,-4.0444,-4.0468,-4.0484,-4.0487,-4.0507,-4.0492,-4.0496,-4.6214,-4.6214,-4.6214,-4.6097,-4.5897,-4.5632,-4.5476,-4.5397,-4.5414,-4.5414,-4.5363,-4.4927,-4.4666,-4.4513,-4.4453,-4.4191,-4.3737,-4.398,-4.392,-4.3699,-4.3479,-4.3479,-4.3479,-4.3479,-4.3479,-4.3479,-4.3479,-4.3479,-4.3479,-4.3479,-4.3479,-4.3479,-4.3479,-4.3549,-4.3634,-4.3751,-4.3929,-4.4124,-4.4279,-4.4565,-4.4831,-4.5041,-4.5201,-4.5429,-4.5541,-4.5586,-4.5594,-4.5594,-4.5594,-4.5594,-4.5594,-4.5594,-4.5594,-4.5594,-4.5594,-4.5594,-4.5594,-4.5594,-4.5594,-4.5594,-4.5594,-4.5594,-4.5594,-4.5594,-4.5594,-4.5594,-4.5594,-4.5594,-4.5594,-4.5594,-4.5594,-4.5594,-4.5594,-4.5594,-4.5594,-4.5594,-4.5594,-4.5594,-4.5586,-4.5586,-4.5568,-4.5541,-4.5504,-4.5485,-4.5476,-4.5467,-4.5476,-4.5485,-4.5485,-4.5467,-4.5495,-4.5523,-4.5504,-4.5485,-4.5466,-4.5438,-4.5437,-4.5282,-4.483,-4.4367,-4.3797,-4.2923,-4.1934,-4.1319,-4.0808,-4.0623,-4.05,-4.0508,-4.0481,-4.0496,-4.0496,-4.05,-4.0503,-4.05,-4.0496,-4.6214,-4.6214,-4.6214,-4.6023,-4.577,-4.5554,-4.5423,-4.5397,-4.5294,-4.5294,-4.513,-4.4518,-4.3957,-4.3588,-4.3324,-4.3148,-4.3093,-4.3342,-4.3611,-4.3479,-4.3479,-4.3479,-4.3479,-4.3479,-4.3479,-4.3479,-4.3479,-4.3479,-4.3479,-4.3479,-4.3479,-4.3479,-4.3479,-4.3513,-4.3582,-4.3736,-4.3867,-4.3929,-4.4079,-4.4322,-4.4676,-4.4856,-4.495,-4.5272,-4.5467,-4.5594,-4.5594,-4.5594,-4.5594,-4.5594,-4.5594,-4.5594,-4.5594,-4.5594,-4.5594,-4.5594,-4.5594,-4.5594,-4.5594,-4.5594,-4.5594,-4.5594,-4.5594,-4.5594,-4.5594,-4.5594,-4.5594,-4.5594,-4.5594,-4.5594,-4.5594,-4.5594,-4.5594,-4.5594,-4.5594,-4.5594,-4.5594,-4.5594,-4.5594,-4.5594,-4.5586,-4.5568,-4.5568,-4.555,-4.5541,-4.5522,-4.5522,-4.555,-4.5531,-4.5513,-4.5522,-4.5568,-4.5559,-4.554,-4.554,-4.5502,-4.5433,-4.5182,-4.4596,-4.3808,-4.3028,-4.2239,-4.145,-4.1008,-4.0642,-4.0593,-4.0489,-4.0496,-4.0496,-4.0496,-4.0496,-4.0496,-4.0496,-4.0527,-4.0504,-4.6214,-4.6189,-4.6115,-4.5947,-4.577,-4.5632,-4.5485,-4.5328,-4.4785,-4.4561,-4.4406,-4.3776,-4.3101,-4.2575,-4.2254,-4.2147,-4.247,-4.292,-4.3214,-4.3392,-4.3462,-4.3479,-4.3479,-4.3479,-4.3479,-4.3479,-4.3479,-4.3479,-4.3479,-4.3479,-4.3479,-4.3479,-4.3479,-4.3513,-4.3531,-4.3703,-4.382,-4.3835,-4.3974,-4.425,-4.4663,-4.4868,-4.4996,-4.5312,-4.5549,-4.5549,-4.5577,-4.5586,-4.5594,-4.5594,-4.5594,-4.5594,-4.5594,-4.5594,-4.5594,-4.5594,-4.5594,-4.5594,-4.5594,-4.5594,-4.5594,-4.5594,-4.5594,-4.5594,-4.5594,-4.5594,-4.5594,-4.5594,-4.5594,-4.5594,-4.5594,-4.5594,-4.5594,-4.5594,-4.5594,-4.5594,-4.5594,-4.5594,-4.5594,-4.5594,-4.5594,-4.5594,-4.5594,-4.5594,-4.5605,-4.5577,-4.5577,-4.5586,-4.5577,-4.5549,-4.5549,-4.5586,-4.5586,-4.5586,-4.5594,-4.5498,-4.5383,-4.4739,-4.4047,-4.3201,-4.2297,-4.1585,-4.095,-4.0758,-4.0516,-4.0512,-4.0512,-4.0504,-4.0504,-4.053,-4.0552,-4.0581,-4.0588,-4.0602,-4.0559,-4.6214,-4.6172,-4.6048,-4.5922,-4.5795,-4.5658,-4.5338,-4.4854,-4.4483,-4.3914,-4.331,-4.2844,-4.2413,-4.1968,-4.166,-4.1583,-4.2011,-4.2614,-4.2957,-4.3214,-4.3428,-4.3479,-4.3479,-4.3479,-4.3479,-4.3479,-4.3479,-4.3479,-4.3479,-4.3479,-4.3479,-4.3479,-4.3479,-4.3496,-4.3532,-4.3686,-4.3788,-4.3804,-4.3945,-4.4221,-4.4599,-4.4688,-4.4726,-4.5033,-4.5263,-4.5362,-4.5485,-4.5504,-4.5594,-4.5594,-4.5594,-4.5594,-4.5594,-4.5594,-4.5594,-4.5594,-4.5594,-4.5594,-4.5594,-4.5594,-4.5594,-4.5594,-4.5594,-4.5594,-4.5594,-4.5594,-4.5594,-4.5594,-4.5594,-4.5594,-4.5594,-4.5594,-4.5594,-4.5594,-4.5594,-4.5594,-4.5594,-4.5594,-4.5594,-4.5594,-4.5594,-4.5594,-4.5594,-4.5594,-4.5586,-4.5586,-4.5594,-4.5594,-4.5594,-4.5594,-4.5594,-4.5594,-4.5594,-4.5594,-4.5594,-4.546,-4.5267,-4.4489,-4.3536,-4.2563,-4.1666,-4.1035,-4.0516,-4.0519,-4.0534,-4.053,-4.053,-4.0559,-4.0623,-4.0674,-4.0674,-4.0661,-4.0661,-4.0674,-4.0674,-4.6214,-4.6189,-4.6023,-4.5897,-4.5752,-4.552,-4.501,-4.4363,-4.4069,-4.3258,-4.2181,-4.1957,-4.1854,-4.1745,-4.158,-4.1518,-4.167,-4.2195,-4.2595,-4.3013,-4.325,-4.3375,-4.3462,-4.3479,-4.3479,-4.3479,-4.3479,-4.3479,-4.3479,-4.3479,-4.3479,-4.3479,-4.3479,-4.3479,-4.3566,-4.3669,-4.3804,-4.3818,-4.3945,-4.4124,-4.4294,-4.4425,-4.4553,-4.4707,-4.4943,-4.5203,-4.5332,-4.5429,-4.5586,-4.5594,-4.5594,-4.5594,-4.5594,-4.5594,-4.5594,-4.5594,-4.5594,-4.5594,-4.5594,-4.5594,-4.5594,-4.5594,-4.5594,-4.5594,-4.5594,-4.5594,-4.5594,-4.5594,-4.5594,-4.5594,-4.5594,-4.5594,-4.5594,-4.5594,-4.5594,-4.5594,-4.5594,-4.5594,-4.5594,-4.5594,-4.5594,-4.5594,-4.5594,-4.5594,-4.5594,-4.5594,-4.5594,-4.5594,-4.5594,-4.5594,-4.5594,-4.5594,-4.5594,-4.5594,-4.5594,-4.5238,-4.4949,-4.408,-4.3088,-4.2017,-4.1161,-4.0828,-4.0603,-4.0564,-4.0586,-4.061,-4.0643,-4.0687,-4.0751,-4.0781,-4.0751,-4.0729,-4.0756,-4.0771,-4.081,-4.6214,-4.6172,-4.5947,-4.5821,-4.57,-4.4923,-4.4457,-4.4104,-4.2982,-4.224,-4.1895,-4.1343,-4.1119,-4.1136,-4.1045,-4.1117,-4.1445,-4.1842,-4.2358,-4.2863,-4.3031,-4.3232,-4.341,-4.3479,-4.3479,-4.3479,-4.3479,-4.3479,-4.3479,-4.3479,-4.3479,-4.3479,-4.3479,-4.3496,-4.3532,-4.3669,-4.3804,-4.3835,-4.3913,-4.4064,-4.4192,-4.4425,-4.4837,-4.5074,-4.5342,-4.5466,-4.555,-4.5568,-4.5586,-4.5594,-4.5594,-4.5594,-4.5594,-4.5594,-4.5594,-4.5594,-4.5594,-4.5594,-4.5594,-4.5594,-4.5594,-4.5594,-4.5594,-4.5594,-4.5594,-4.5594,-4.5594,-4.5594,-4.5594,-4.5594,-4.5594,-4.5594,-4.5594,-4.5594,-4.5594,-4.5594,-4.5594,-4.5594,-4.5594,-4.5594,-4.5594,-4.5594,-4.5594,-4.5594,-4.5594,-4.5603,-4.561,-4.561,-4.5654,-4.5629,-4.5601,-4.5618,-4.5635,-4.5594,-4.5575,-4.487,-4.4405,-4.3554,-4.2695,-4.1705,-4.1086,-4.0895,-4.0749,-4.0674,-4.0674,-4.0718,-4.0754,-4.0795,-4.0811,-4.0837,-4.081,-4.0801,-4.0833,-4.0871,-4.0921]},{"header":{"parameterUnit":"m.s-1","parameterCategory":1,"la1":31.0,"la2":29.5877,"lo1":-88.7671,"lo2":-86.6584,"dy":0.0162,"dx":0.0185,"nx":115,"ny":88,"refTime":"2023-08-24T06:00:00:Z","depth":0,"parameterNumber":3,"parameterNumberName":"V-component_of_WINDS"},"data":[0.0,0.0,0.0,0.0,0.0,0.0,0.0,0.0,0.0,0.0,0.0,0.0,0.0,0.0,0.0,0.0,0.0,0.0,0.0,0.0,0.0,0.0,0.0,0.0,0.0,0.0,0.0,0.0,0.0,0.0,0.0,0.0,0.0,0.0,0.0,0.0,0.0,0.0,0.0,0.0,0.0,0.0,0.0,0.0,0.0,0.0,0.0,0.0,0.0,0.0,0.0,0.0,0.0,0.0,0.0,0.0,0.0,0.0,0.0,0.0,0.0,0.0,0.0,0.0,0.0,0.0,0.0,0.0,0.0,0.0,0.0,0.0,0.0,0.0,0.0,0.0,0.0,0.0,0.0,0.0,0.0,0.0,0.0,0.0,0.0,0.0,0.0,0.0,0.0,0.0,0.0,0.0,0.0,0.0,0.0,0.0,0.0,0.0,0.0,0.0,0.0,0.0,0.0,0.0,0.0,0.0,0.0,0.0,0.0,0.0,0.0,0.0,0.0,0.0,0.0,0.0,0.0,0.0,0.0,0.0,0.0,0.0,0.0,0.0,0.0,0.0,0.0,0.0,0.0,0.0,0.0,0.0,0.0,0.0,0.0,0.0,0.0,0.0,0.0,0.0,0.0,0.0,0.0,0.0,0.0,0.0,0.0,0.0,0.0,0.0,0.0,0.0,0.0,0.0,0.0,0.0,0.0,0.0,0.0,0.0,0.0,0.0,0.0,0.0,0.0,0.0,0.0,0.0,0.0,0.0,0.0,0.0,0.0,0.0,0.0,0.0,0.0,0.0,0.0,0.0,0.0,0.0,0.0,0.0,0.0,0.0,0.0,0.0,0.0,0.0,0.0,0.0,0.0,0.0,0.0,0.0,0.0,0.0,0.0,0.0,0.0,0.0,0.0,0.0,0.0,0.0,0.0,0.0,0.0,0.0,0.0,0.0,0.0,0.0,0.0,0.0,0.0,0.0,0.0,0.0,0.0,0.0,0.0,0.0,0.0,0.0,0.0,0.0,0.0,0.0,0.0,0.0,0.0,0.0,0.0,0.0,0.0,0.0,0.0,0.0,0.0,0.0,0.0,0.0,0.0,0.0,0.0,0.0,0.0,0.0,0.0,0.0,0.0,0.0,0.0,0.0,0.0,0.0,0.0,0.0,0.0,0.0,0.0,0.0,0.0,0.0,0.0,0.0,0.0,0.0,0.0,0.0,0.0,0.0,0.0,0.0,0.0,0.0,0.0,0.0,0.0,0.0,0.0,0.0,0.0,0.0,0.0,0.0,0.0,0.0,0.0,0.0,0.0,0.0,0.0,0.0,0.0,0.0,0.0,0.0,0.0,0.0,0.0,0.0,0.0,0.0,0.0,0.0,0.0,0.0,0.0,0.0,0.0,0.0,0.0,0.0,0.0,0.0,0.0,0.0,0.0,0.0,0.0,0.0,0.0,0.0,0.0,0.0,0.0,0.0,0.0,0.0,0.0,0.0,0.0,0.0,0.0,0.0,0.0,0.0,0.0,0.0,0.0,0.0,0.0,0.0,0.0,0.0,0.0,0.0,0.0,0.0,0.0,0.0,0.0,0.0,0.0,0.0,0.0,0.0,0.0,0.0,0.0,0.0,0.0,0.0,0.0,0.0,0.0,0.0,0.0,0.0,0.0,0.0,0.0,0.0,0.0,0.0,0.0,0.0,0.0,0.0,0.0,0.0,0.0,0.0,0.0,0.0,0.0,0.0,0.0,0.0,0.0,0.0,0.0,0.0,0.0,0.0,0.0,0.0,0.0,0.0,0.0,0.0,0.0,0.0,0.0,0.0,0.0,0.0,0.0,0.0,0.0,0.0,0.0,0.0,0.0,0.0,0.0,0.0,0.0,0.0,0.0,0.0,0.0,0.0,0.0,0.0,0.0,0.0,0.0,0.0,0.0,0.0,0.0,0.0,0.0,0.0,0.0,0.0,0.0,0.0,0.0,0.0,0.0,0.0,0.0,0.0,0.0,0.0,0.0,0.0,0.0,0.0,0.0,0.0,0.0,0.0,0.0,0.0,0.0,0.0,0.0,0.0,0.0,0.0,0.0,0.0,0.0,0.0,0.0,0.0,0.0,0.0,0.0,0.0,0.0,0.0,0.0,0.0,0.0,0.0,0.0,0.0,0.0,0.0,0.0,0.0,0.0,0.0,0.0,0.0,0.0,0.0,0.0,0.0,0.0,0.0,0.0,0.0,0.0,0.0,0.0,0.0,0.0,0.0,0.0,0.0,0.0,0.0,0.0,0.0,0.0,0.0,0.0,0.0,0.0,0.0,0.0,0.0,0.0,0.0,0.0,0.0,0.0,0.0,0.0,0.0,0.0,0.0,0.0,0.0,0.0,0.0,0.0,0.0,0.0,0.0,0.0,0.0,0.0,0.0,0.0,0.0,0.0,0.0,0.0,0.0,0.0,0.0,0.0,0.0,0.0,0.0,0.0,0.0,0.0,0.0,0.0,0.0,0.0,0.0,0.0,0.0,0.0,0.0,0.0,0.0,0.0,0.0,0.0,0.0,0.0,0.0,0.0,0.0,0.0,0.0,0.0,0.0,0.0,0.0,0.0,0.0,0.0,0.0,0.0,0.0,0.0,0.0,0.0,0.0,0.0,0.0,0.0,0.0,0.0,0.0,0.0,0.0,0.0,0.0,0.0,0.0,0.0,0.0,0.0,0.0,0.0,0.0,0.0,0.0,0.0,0.0,0.0,0.0,0.0,0.0,0.0,0.0,0.0,0.0,0.0,0.0,0.0,0.0,0.0,0.0,0.0,0.0,0.0,0.0,0.0,0.0,0.0,0.0,0.0,0.0,0.0,0.0,0.0,0.0,0.0,0.0,0.0,0.0,0.0,0.0,0.0,0.0,0.0,0.0,0.0,0.0,0.0,0.0,0.0,0.0,0.0,0.0,0.0,0.0,0.0,0.0,0.0,0.0,0.0,0.0,0.0,0.0,0.0,0.0,0.0,0.0,0.0,0.0,0.0,0.0,0.0,0.0,0.0,0.0,0.0,0.0,0.0,0.0,0.0,0.0,0.0,0.0,0.0,0.0,0.0,0.0,0.0,0.0,0.0,0.0,0.0,0.0,0.0,0.0,0.0,0.0,0.0,0.0,0.0,0.0,0.0,0.0,0.0,0.0,0.0,0.0,0.0,0.0,0.0,0.0,0.0,0.0,0.0,0.0,0.0,0.0,0.0,0.0,0.0,0.0,0.0,0.0,0.0,0.0,0.0,0.0,0.0,0.0,0.0,0.0,0.0,0.0,0.0,0.0,0.0,0.0,0.0,0.0,0.0,0.0,0.0,0.0,0.0,0.0,0.0,0.0,0.0,0.0,0.0,0.0,0.0,0.0,0.0,0.0,0.0,0.0,0.0,0.0,0.0,0.0,0.0,0.0,0.0,0.0,0.0,0.0,0.0,0.0,0.0,0.0,0.0,0.0,0.0,0.0,0.0,0.0,0.0,0.0,0.0,0.0,0.0,0.0,0.0,0.0,0.0,0.0,0.0,0.0,0.0,0.0,0.0,0.0,0.0,0.0,0.0,0.0,0.0,0.0,0.0,0.0,0.0,0.0,0.0,0.0,0.0,0.0,0.0,0.0,0.0,0.0,0.0,0.0,0.0,0.0,0.0,0.0,0.0,0.0,0.0,0.0,0.0,0.0,0.0,0.0,0.0,0.0,0.0,0.0,0.0,0.0,0.0,0.0,0.0,0.0,0.0,0.0,0.0,0.0,0.0,0.0,0.0,0.0,0.0,0.0,0.0,0.0,0.0,0.0,0.0,0.0,0.0,0.0,0.0,0.0,0.0,0.0,0.0,0.0,0.0,0.0,0.0,0.0,0.0,0.0,0.0,0.0,0.0,0.0,0.0,0.0,0.0,0.0,0.0,0.0,0.0,0.0,0.0,0.0,0.0,0.0,0.0,0.0,0.0,0.0,0.0,0.0,0.0,0.0,0.0,0.0,0.0,0.0,0.0,0.0,0.0,0.0,0.0,0.0,0.0,0.0,0.0,0.0,0.0,0.0,0.0,0.0,0.0,0.0,0.0,0.0,0.0,0.0,0.0,0.0,0.0,0.0,0.0,0.0,0.0,0.0,0.0,0.0,0.0,0.0,0.0,0.0,0.0,0.0,0.0,0.0,0.0,0.0,0.0,0.0,0.0,0.0,0.0,0.0,0.0,0.0,0.0,0.0,0.0,0.0,0.0,0.0,0.0,0.0,0.0,0.0,0.0,0.0,0.0,0.0,0.0,0.0,0.0,0.0,0.8567,0.0,0.0,0.0,0.0,0.0,0.0,0.0,0.0,0.0,0.0,0.0,0.0,0.0,0.0,0.0,0.0,0.0,0.0,0.0,0.0,0.0,0.0,0.0,0.0,0.0,0.0,0.0,0.0,0.0,0.0,0.0,0.0,0.0,0.0,0.0,0.0,0.0,0.0,0.0,0.0,0.0,0.0,0.0,0.0,0.0,0.0,0.0,0.0,0.0,0.0,0.0,0.0,0.0,0.0,0.0,0.0,0.0,0.0,0.0,0.0,0.0,0.0,0.0,0.0,0.0,0.0,0.0,0.0,0.0,0.0,0.0,0.0,0.0,0.0,0.0,0.0,0.0,0.0,0.0,0.0,0.0,0.0,0.0,0.0,0.0,0.0,0.0,0.0,0.0,0.0,0.0,0.0,0.0,0.0,0.0,0.0,0.0,0.0,0.0,0.0,0.0,0.0,0.0,0.0,0.0,0.0,0.0,0.0,0.0,0.0,-0.0542,0.2499,0.4135,0.5528,0.6747,0.0,0.0,0.0,0.0,0.0,0.0,0.0,0.0,0.0,0.0,0.0,0.0,0.0,0.0,0.0,0.0,0.0,0.0,0.0,0.0,0.0,0.0,0.0,0.0,0.0,0.0,0.0,0.0,0.0,0.0,0.0,0.0,0.0,0.0,0.0,0.0,0.0,0.0,0.0,0.0,0.0,0.0,0.0,0.0,0.0,0.0,0.0,0.0,0.0,0.0,0.0,0.0,0.0,0.0,0.0,0.0,0.0,0.0,0.0,0.0,0.0,0.0,0.0,0.0,0.0,0.0,0.0,0.0,0.0,0.0,0.0,0.0,0.0,0.0,0.0,0.0,0.0,0.0,0.0,0.0,0.0,0.0,0.0,0.0,0.0,0.0,0.0,0.0,0.0,0.0,0.0,0.0,0.0,0.0,0.0,0.0,0.0,0.0,0.0,0.0,0.0,0.0,0.0,0.0,0.0,0.0,0.0,0.0,0.0,0.0,0.0,0.0,0.2627,0.3862,0.5254,0.0,0.0,0.0,0.0,0.0,0.0,0.0,0.0,0.0,0.0,0.0,0.0,0.0,0.0,0.0,0.0,0.0,0.0,0.0,0.0,0.0,0.0,0.0,0.0,0.0,0.0,0.0,0.0,0.0,0.0,0.0,0.0,0.0,0.0,0.0,0.0,0.0,0.0,0.0,0.0,0.0,0.0,0.0,0.0,0.0,0.0,0.0,0.0,0.0,0.0,0.0,0.0,0.0,0.0,0.0,0.0,0.0,0.0,0.0,0.0,0.0,0.0,0.0,0.0,0.0,0.0,0.0,0.0,0.0,0.0,0.0,0.0,0.0,0.0,0.0,0.0,0.0,0.0,0.0,0.0,0.0,0.0,0.0,0.0,0.0,0.0,0.0,0.0,0.0,0.0,0.0,0.0,0.0,0.0,0.0,0.0,0.0,0.0,0.0,0.0,0.0,0.0,0.0,0.0,0.0,0.0,0.0,0.0,0.0,0.0,-0.3552,0.1235,0.2771,0.0,0.5285,0.0,0.0,0.0,0.0,0.0,0.0,0.0,0.0,0.0,0.0,0.0,0.0,0.0,0.0,0.0,0.0,0.0,0.0,0.0,0.0,0.0,0.0,0.0,0.0,0.0,0.0,0.0,0.0,0.0,0.0,0.0,0.0,0.0,0.0,0.0,0.0,0.0,0.0,0.0,0.0,0.0,0.0,0.0,0.0,0.0,0.0,0.0,0.0,0.0,0.0,0.0,0.0,0.0,0.0,0.0,0.0,0.0,0.0,0.0,0.0,0.0,0.0,0.0,0.0,0.0,0.0,0.0,0.0,0.0,0.0,0.0,0.0,0.0,0.0,0.0,0.0,0.0,0.0,0.0,0.0,0.0,0.0,0.0,0.0,0.0,0.0,0.0,0.0,0.0,0.0,0.0,0.0,0.0,0.0,0.0,0.0,0.0,0.0,0.0,0.0,0.0,0.0,0.0,0.0,0.0,0.0,0.0,0.0,0.0,0.0,-0.382,-0.0092,0.1255,0.2473,0.0,0.0,0.0,0.0,0.0,0.0,0.0,0.0,0.0,0.0,0.0,0.0,0.0,0.0,0.0,0.0,0.0,0.0,0.0,0.0,0.0,0.0,0.0,0.0,0.0,0.0,0.0,0.0,0.0,0.0,0.0,0.0,0.0,0.0,0.0,0.0,0.0,0.0,0.0,0.0,0.0,0.0,0.0,0.0,0.0,0.0,0.0,0.0,0.0,0.0,0.0,0.0,0.0,0.0,0.0,0.0,0.0,0.0,0.0,0.0,0.0,0.0,0.0,0.0,0.0,0.0,0.0,0.0,0.0,0.0,0.0,0.0,0.0,0.0,0.0,0.0,0.0,0.0,0.0,0.0,0.0,0.0,0.0,0.0,0.0,0.0,0.0,0.0,0.0,0.0,0.0,0.0,0.0,0.0,0.0,0.0,0.0,0.0,0.0,0.0,0.0,0.0,0.0,0.0,0.0,0.0,0.0,0.0,0.0,0.0,-0.5295,-0.3757,-0.0599,0.0252,0.0999,0.1805,0.0,0.0,0.0,0.0,0.0,0.0,0.0,0.0,0.0,0.0,0.0,0.0,0.0,0.0,0.0,0.0,0.0,0.0,0.0,0.0,0.0,0.0,0.0,0.0,0.0,0.0,0.0,0.0,0.0,0.0,0.0,0.0,0.0,0.0,0.0,0.0,0.0,0.0,0.0,0.0,0.0,0.0,0.0,0.0,0.0,0.0,0.0,0.0,0.0,0.0,0.0,0.0,0.0,0.0,0.0,0.0,0.0,0.0,0.0,0.0,0.0,0.0,0.0,0.0,0.0,0.0,0.0,0.0,0.0,0.0,0.0,0.0,0.0,0.0,0.0,0.0,0.0,0.0,0.0,0.0,0.0,0.0,0.0,0.0,0.0,0.0,0.0,0.0,0.0,0.0,0.0,0.0,0.0,0.0,0.0,0.0,0.0,0.0,0.0,0.0,0.0,0.0,0.0,0.0,0.0,0.0,0.0,0.0,-0.5595,-0.5303,-0.3263,0.0766,0.05,0.026,0.0,0.0,0.0,0.0,0.0,0.0,0.0,0.0,0.0,0.0,0.0,0.0,0.0,0.0,0.0,0.0,0.0,0.0,0.0,0.0,0.0,0.0,0.0,0.0,0.0,0.0,0.0,0.0,0.0,0.0,0.0,0.0,0.0,0.0,0.0,0.0,0.0,0.0,0.0,0.0,0.0,0.0,0.0,0.0,0.0,0.0,0.0,0.0,0.0,0.0,0.0,0.0,0.0,0.0,0.0,0.0,0.0,0.0,0.0,0.0,0.0,0.0,0.0,0.0,0.0,0.0,0.0,0.0,0.0,0.0,0.0,0.0,0.0,0.0,0.0,0.0,0.0,0.0,0.0,0.0,0.0,0.0,0.0,0.0,0.0,0.0,0.0,0.0,0.0,0.0,0.0,0.0,0.0,0.0,0.0,0.0,0.0,0.0,0.0,0.0,0.0,0.0,0.0,0.0,0.0,0.0,0.0,0.0,0.0,-0.6103,-0.4097,-0.1922,0.0492,-0.0132,-0.0448,0.0,0.0,0.0,0.0,0.0,0.0,0.0,0.0,0.0,0.0,0.0,0.0,0.0,0.0,0.0,0.0,0.0,0.0,0.0,0.0,0.0,0.0,0.0,0.0,0.0,0.0,0.0,0.0,0.0,0.0,0.0,0.0,0.0,0.0,0.0,0.0,0.0,0.0,0.0,0.0,0.0,0.0,0.0,0.0,0.0,0.0,0.0,0.0,0.0,0.0,0.0,0.0,0.0,0.0,0.0,0.0,0.0,0.0,0.0,0.0,0.0,0.0,0.0,0.0,0.0,0.0,0.0,0.0,0.0,0.0,0.0,0.0,0.0,0.0,0.0,0.0,0.0,0.0,0.0,0.0,0.0,0.0,0.0,0.0,0.0,0.0,0.0,0.0,0.0,0.0,0.0,0.0,0.0,0.0,0.0,0.0,0.0,0.0,0.0,0.0,0.0,0.0,0.0,0.0,0.0,0.0,0.0,0.0,0.0,-0.6043,0.0,-0.0939,0.0,-0.0694,-0.0983,0.0,0.0,0.0,0.0,0.0,0.0,0.0,0.0,0.0,0.0,0.0,0.0,0.0,0.0,0.0,0.0,0.0,0.0,0.0,0.0,0.0,0.0,0.0,0.0,0.0,0.0,0.0,0.0,0.0,0.0,0.0,0.0,0.0,0.0,0.0,0.0,0.0,0.0,0.0,0.0,0.0,0.0,0.0,0.0,0.0,0.0,0.0,0.0,0.0,0.0,0.0,0.0,0.0,0.0,0.0,0.0,0.0,0.0,0.0,0.0,0.0,0.0,0.0,0.0,0.0,0.0,0.0,0.0,0.0,0.0,0.0,0.0,0.0,0.0,0.0,0.0,0.0,0.0,0.0,0.0,0.0,0.0,0.0,0.0,0.0,0.0,0.0,0.0,0.0,0.0,0.0,0.0,0.0,0.0,0.0,0.0,0.0,0.0,0.0,0.0,0.0,0.0,0.0,0.0,0.0,0.0,0.0,0.0,-0.9767,-0.5492,-0.2028,-0.0495,-0.1047,-0.1141,-0.1368,0.0,0.0,0.0,0.0,0.0,0.0,0.0,0.0,0.0,0.0,0.0,0.0,0.0,0.0,0.0,0.0,0.0,0.0,0.0,0.0,0.0,0.0,0.0,0.0,0.0,0.0,0.0,0.0,0.0,0.0,0.0,0.0,0.0,0.0,0.0,0.0,0.0,0.0,0.0,0.0,0.0,0.0,0.0,0.0,0.0,0.0,0.0,0.0,0.0,0.0,0.0,0.0,0.0,0.0,0.0,0.0,0.0,0.0,0.0,0.0,0.0,0.0,0.0,0.0,0.0,0.0,0.0,0.0,0.0,0.0,0.0,0.0,0.0,0.0,0.0,0.0,0.0,0.0,0.0,0.0,0.0,0.0,0.0,0.0,0.0,0.0,0.0,0.0,0.0,0.0,0.0,0.0,0.0,0.0,0.0,0.0,0.0,0.0,0.0,0.0,0.0,0.0,0.0,0.0,0.0,0.0,0.0,0.0,0.0,-0.5306,-0.2323,-0.0597,-0.0327,-0.0734,-0.0993,0.0,0.0,0.0,0.0,0.0,0.0,0.0,0.0,0.0,0.0,0.0,0.0,0.0,0.0,0.0,0.0,0.0,0.0,0.0,0.0,0.0,0.0,0.0,0.0,0.0,0.0,0.0,0.0,0.0,0.0,0.0,0.0,0.0,0.0,0.0,0.0,0.0,0.0,0.0,0.0,0.0,0.0,0.0,0.0,0.0,0.0,0.0,0.0,0.0,0.0,0.0,0.0,0.0,0.0,0.0,0.0,0.0,0.0,0.0,0.0,0.0,0.0,0.0,0.0,0.0,0.0,0.0,0.0,0.0,0.0,0.0,0.0,0.0,0.0,0.0,0.0,0.0,0.0,0.0,0.0,0.0,0.0,0.0,0.0,0.0,0.0,0.0,0.0,0.0,0.0,0.0,0.0,0.0,0.0,0.0,0.0,0.0,0.0,0.0,0.0,0.0,0.0,0.0,0.0,0.0,0.0,0.0,0.0,0.0,-0.4361,-0.2049,-0.0744,-0.0652,-0.087,-0.109,-0.14,0.0,0.0,0.0,0.0,0.0,0.0,0.0,0.0,0.0,0.0,0.0,0.0,0.0,0.0,0.0,0.0,0.0,0.0,0.0,0.0,0.0,0.0,0.0,0.0,0.0,0.0,0.0,0.0,0.0,0.0,0.0,0.0,0.0,0.0,0.0,0.0,0.0,0.0,0.0,0.0,0.0,0.0,0.0,0.0,0.0,0.0,0.0,0.0,0.0,0.0,0.0,0.0,0.0,0.0,0.0,0.0,0.0,0.0,0.0,0.0,0.0,0.0,0.0,0.0,0.0,0.0,0.0,0.0,0.0,0.0,0.0,0.0,0.0,0.0,0.0,0.0,0.0,0.0,0.0,0.0,0.0,0.0,0.0,0.0,0.0,0.0,0.0,0.0,0.0,0.0,0.0,0.0,0.0,0.0,0.0,0.0,0.0,0.0,0.0,0.0,0.0,0.0,0.0,0.0,0.0,0.0,0.0,0.0,-0.2982,-0.1303,-0.0912,-0.1826,-0.1351,-0.153,0.0,0.0,0.0,0.0,0.0,0.0,0.0,0.0,0.0,0.0,0.0,0.0,0.0,0.0,0.0,0.0,0.0,0.0,0.0,0.0,0.0,0.0,0.0,0.0,0.0,0.0,0.0,0.0,0.0,0.0,0.0,0.0,0.0,0.0,0.0,0.0,0.0,0.0,0.0,0.0,0.0,0.0,0.0,0.0,0.0,0.0,0.0,0.0,0.0,0.0,0.0,0.0,0.0,0.0,0.0,0.0,0.0,0.0,0.0,0.0,0.0,0.0,0.0,0.0,0.0,0.0,0.0,0.0,0.0,0.0,0.0,0.0,0.0,0.0,0.0,0.0,0.0,0.0,0.0,0.0,0.0,0.0,0.0,0.0,0.0,0.0,0.0,0.0,0.0,0.0,0.0,0.0,0.0,0.0,0.0,0.0,0.0,0.0,0.0,0.0,0.0,0.0,0.0,0.0,0.0,0.0,0.0,0.0,0.0,-0.2431,-0.1627,-0.1369,-0.1642,-0.1396,-0.1589,0.0,0.0,0.0,0.0,0.0,0.0,0.0,0.0,0.0,0.0,0.0,0.0,0.0,0.0,0.0,0.0,0.0,0.0,0.0,0.0,0.0,0.0,0.0,0.0,0.0,0.0,0.0,0.0,0.0,0.0,0.0,0.0,0.0,0.0,0.0,0.0,0.0,0.0,0.0,0.0,0.0,0.0,0.0,0.0,0.0,0.0,0.0,0.0,0.0,0.0,0.0,0.0,0.0,0.0,0.0,0.0,0.0,0.0,0.0,0.0,0.0,0.0,0.0,0.0,0.0,0.0,0.0,0.0,0.0,0.0,0.0,0.0,0.0,0.0,0.0,0.0,0.0,0.0,0.0,0.0,0.0,0.0,0.0,0.0,0.0,0.0,0.0,0.0,0.0,0.0,0.0,0.0,0.0,0.0,0.0,0.0,0.0,0.0,0.0,0.0,0.0,0.0,0.0,0.0,0.0,0.0,0.0,0.0,-0.3444,-0.2381,-0.1857,-0.1799,-0.2259,-0.2017,-0.2117,0.0,0.0,0.0,0.0,0.0,0.0,0.0,0.0,0.0,0.0,0.0,0.0,0.0,0.0,0.0,0.0,0.0,0.0,0.0,0.0,0.0,0.0,0.0,0.0,0.0,0.0,0.0,0.0,0.0,0.0,0.0,0.0,0.0,0.0,0.0,0.0,0.0,0.0,0.0,0.0,0.0,0.0,0.0,0.0,0.0,0.0,0.0,0.0,0.0,0.0,0.0,0.0,0.0,0.0,0.0,0.0,0.0,0.0,0.0,0.0,0.0,0.0,0.0,0.0,0.0,0.0,0.0,0.0,0.0,0.0,0.0,0.0,0.0,0.0,0.0,0.0,0.0,0.0,0.0,0.0,0.0,0.0,0.0,0.0,0.0,0.0,0.0,0.0,0.0,0.0,0.0,0.0,0.0,0.0,0.0,0.0,0.0,0.0,0.0,0.0,0.0,0.0,0.0,0.0,0.0,0.0,0.0,0.0,-0.3528,-0.2489,-0.1926,-0.207,-0.307,-0.2757,-0.2896,0.0,0.0,0.0,0.0,0.0,0.0,0.0,0.0,0.0,0.0,0.0,0.0,0.0,0.0,0.0,0.0,0.0,0.0,0.0,0.0,0.0,0.0,0.0,0.0,0.0,0.0,0.0,0.0,0.0,0.0,0.0,0.0,0.0,0.0,0.0,0.0,0.0,0.0,0.0,0.0,0.0,0.0,0.0,0.0,0.0,0.0,0.0,0.0,0.0,0.0,0.0,0.0,0.0,0.0,0.0,0.0,0.0,0.0,0.0,0.0,0.0,0.0,0.0,0.0,0.0,0.0,0.0,0.0,0.0,0.0,0.0,0.0,0.0,0.0,0.0,0.0,0.0,0.0,0.0,0.0,0.0,0.0,0.0,0.0,0.0,0.0,0.0,0.0,0.0,0.0,0.0,0.0,0.0,0.0,0.0,0.0,0.0,0.0,0.0,0.0,0.0,0.0,0.0,0.0,0.0,0.0,0.0,0.0,-0.3001,-0.1779,-0.1661,-0.1919,-0.2521,-0.2572,-0.3171,0.0,0.0,0.0,0.0,0.0,0.0,0.0,0.0,0.0,0.0,0.0,0.0,0.0,0.0,0.0,0.0,0.0,0.0,0.0,0.0,0.0,0.0,0.0,0.0,0.0,0.0,0.0,0.0,0.0,0.0,0.0,0.0,0.0,0.0,0.0,0.0,0.0,0.0,0.0,0.0,0.0,0.0,0.0,0.0,0.0,0.0,0.0,0.0,0.4783,0.0,0.0,0.0,0.0,0.0,0.0,0.0,0.0,0.0,0.0,0.0,0.0,0.0,0.0,0.0,0.0,0.0,0.0,0.0,0.0,0.0,0.0,0.0,0.0,0.0,0.0,0.0,0.0,0.0,0.0,0.0,0.0,0.0,0.0,0.0,0.0,0.0,0.0,0.0,0.0,0.0,0.0,0.0,0.0,0.0,0.0,0.0,0.0,0.0,0.0,0.0,0.0,0.0,0.0,0.0,0.0,0.0,0.0,0.0,-0.3257,-0.2856,-0.2561,-0.2624,-0.3119,-0.3159,-0.364,0.0,0.0,0.0,0.0,0.0,0.0,0.0,0.0,0.0,0.0,0.0,0.0,0.0,0.0,0.0,0.0,0.0,0.0,0.0,0.0,0.0,0.0,0.0,0.0,0.0,0.0,0.0,0.0,0.0,0.0,0.0,0.0,0.0,0.0,0.0,0.0,0.0,0.0,0.0,0.0,0.0,0.0,0.0,0.0,0.0,0.0,0.0,0.0,0.0,0.0,0.0,0.0,0.0,0.0,0.0,0.0,0.0,0.0,0.0,0.0,0.0,0.0,0.0,0.0,0.0,0.0,0.0,0.0,0.0,0.0,0.0,0.0,0.0,0.0,0.0,0.0,0.0,0.0,0.0,0.0,0.0,0.0,0.0,0.0,0.0,0.0,0.0,0.0,0.0,0.0,0.0,0.0,0.0,0.0,0.0,0.0,0.0,0.0,0.0,0.0,0.0,0.0,0.0,0.0,0.0,0.0,0.0,-0.419,-0.3671,-0.4172,-0.3574,-0.3482,-0.3981,-0.3933,-0.4176,-0.4737,0.0,0.0,0.0,0.0,0.0,0.0,0.0,0.0,0.0,0.0,0.0,0.0,0.0,0.0,0.0,0.0,0.0,0.0,0.0,0.0,0.0,0.0,0.0,0.0,0.0,0.0,0.0,0.0,0.0,0.0,0.0,0.0,0.0,0.0,0.0,0.0,0.0,0.0,0.9138,0.9882,0.0,0.0,0.0,0.0,0.0,0.0,0.0,0.0,0.2935,0.0,0.0,0.0,0.0,0.0,0.0,0.0,0.0,0.0,0.0,0.0,0.0,0.0,0.0,0.0,0.0,0.0,0.0,0.0,0.0,0.0,0.0,0.0,0.0,0.0,0.0,0.0,0.0,0.0,0.0,0.0,0.0,0.0,0.0,0.0,0.0,0.0,0.0,0.0,0.0,0.0,0.0,0.0,0.0,0.0,0.0,0.0,0.0,0.0,0.0,0.0,0.0,0.0,0.0,0.0,0.0,-0.4577,-0.4303,-0.389,-0.339,-0.3271,-0.3482,-0.3979,-0.4369,-0.4842,-0.5388,0.0,0.0,0.0,0.0,0.0,0.0,0.0,0.0,0.0,0.0,0.0,0.0,0.0,0.0,0.0,0.0,0.0,0.0,0.0,0.0,0.0,0.0,0.0,0.0,0.0,0.0,0.0,0.0,0.0,0.0,0.0,0.0,0.0,0.0,0.0,0.0,0.0,0.0,0.0,0.9565,1.0223,0.0,0.0,0.0,0.0,0.0,0.0,0.0,0.0,-0.1094,0.0,0.0,0.0,0.0,0.0,0.0,0.0,0.0,0.0,0.0,0.0,0.0,0.0,0.0,0.0,0.0,0.0,0.0,0.0,0.0,0.0,0.0,0.0,0.0,0.0,0.0,0.0,0.0,0.0,0.0,0.0,0.0,0.0,0.0,0.0,0.0,0.0,0.0,0.0,0.0,0.0,0.0,0.0,0.0,0.0,0.0,0.0,0.0,0.0,0.0,0.0,0.0,0.0,0.0,0.0,-0.4522,-0.4208,-0.4061,-0.4021,-0.4034,-0.4133,-0.4377,-0.4476,-0.4812,0.0,0.0,0.0,0.0,0.0,0.0,0.0,0.0,0.0,0.0,0.0,0.0,0.0,0.0,0.0,0.0,0.0,0.0,0.0,0.0,0.0,0.0,0.0,0.0,0.0,0.0,0.0,0.0,0.0,0.0,0.0,0.0,0.0,0.0,0.0,0.0,0.0,0.0,0.0,0.0,0.4454,0.466,0.0672,0.0,0.0,0.0,0.0,0.0,0.0,-0.2949,-0.282,0.0,0.0,0.0,0.0,0.0,0.0,0.0,0.0,0.0,0.0,0.0,0.0,0.0,0.0,0.0,0.0,0.0,0.0,0.0,0.0,0.0,0.0,0.0,0.0,0.0,0.0,0.0,0.0,0.0,0.0,0.0,0.0,0.0,0.0,0.0,0.0,0.0,0.0,0.0,0.0,0.0,0.0,0.0,0.0,0.0,0.0,0.0,0.0,0.0,0.0,0.0,0.0,0.0,0.0,0.0,-0.467,-0.4257,-0.4234,-0.4622,-0.4734,-0.4734,-0.4628,-0.4532,-0.4779,0.0,0.0,0.0,0.0,0.0,0.0,0.0,0.0,0.0,0.0,0.0,0.0,0.0,0.0,0.0,0.0,0.0,0.0,0.0,0.0,0.0,0.0,0.0,0.0,0.0,0.0,0.0,0.0,0.0,0.0,0.0,0.0,0.0,0.0,0.0,0.0,0.0,0.0,0.0,0.0,0.0,-0.0713,-0.429,-0.2044,0.0,0.0,0.0,0.0,-0.3906,-0.4129,0.0,0.0,0.0,0.0,0.0,0.0,0.0,0.0,0.0,0.0,0.0,0.0,0.0,0.0,0.0,0.0,0.0,0.0,0.0,0.0,0.0,0.0,0.0,0.0,0.0,0.0,0.0,0.0,0.0,0.0,0.0,0.0,0.0,0.0,0.0,0.0,0.0,0.0,0.0,0.0,0.0,0.0,0.0,0.0,0.0,0.0,0.0,0.0,0.0,0.0,0.0,0.0,0.0,0.0,0.0,0.0,-0.4737,-0.461,-0.4451,-0.4116,-0.4533,-0.4583,-0.413,-0.4765,-0.5168,0.0,0.0,0.0,0.0,0.0,0.0,0.0,0.0,0.0,0.0,0.0,0.0,0.0,0.0,0.0,0.0,0.0,0.0,0.0,0.0,0.0,0.0,0.0,0.0,0.0,0.0,0.0,0.0,0.0,0.0,0.0,0.0,0.0,0.0,0.0,0.0,0.0,0.0,0.0,0.0,0.0,-0.0463,-0.4508,-0.2452,-0.0404,0.0,0.0,-0.558,-0.5043,-0.6492,0.0,0.0,0.0,0.0,0.0,0.0,0.0,0.0,0.0,0.0,0.0,0.0,0.0,0.0,0.0,0.0,0.0,0.0,0.0,0.0,0.0,0.0,0.0,0.0,0.0,0.0,0.0,0.0,0.0,0.0,0.0,0.0,0.0,0.0,0.0,0.0,0.0,0.0,0.0,0.0,0.0,0.0,0.0,0.0,0.0,0.0,0.0,0.0,0.0,0.0,0.0,0.0,0.0,0.0,0.0,-0.5353,-0.5137,-0.4898,-0.4534,-0.4028,-0.4234,-0.4234,-0.3982,-0.4068,-0.4292,0.0,0.0,0.0,0.0,0.0,0.0,0.0,0.0,0.0,0.0,0.0,0.0,0.0,0.0,0.0,0.0,0.0,0.0,0.0,0.0,0.0,0.0,0.0,0.0,0.0,0.0,0.0,0.0,0.0,0.0,0.0,0.0,0.0,0.0,0.0,0.0,0.0,0.0,0.0,0.0,0.0,0.0,-0.6276,-0.5194,0.0,0.0,0.0,-0.6229,-0.4068,0.0,0.0,0.0,0.0,0.0,0.0,0.0,0.0,0.0,0.0,0.0,0.0,0.0,0.0,0.0,0.0,0.0,0.0,0.0,0.0,0.0,0.0,0.0,0.0,0.0,0.0,0.0,0.0,0.0,0.0,0.0,0.0,0.0,0.0,0.0,0.0,0.0,0.0,0.0,0.0,0.0,0.0,0.0,0.0,0.0,0.0,0.0,0.0,0.0,0.0,0.0,0.0,0.0,0.0,0.0,0.0,0.0,-0.5482,-0.5021,-0.4483,-0.3831,-0.3934,-0.3934,-0.3776,-0.3485,0.0,0.0,0.0,0.0,0.0,0.0,0.0,0.0,0.0,0.0,0.0,0.0,0.0,0.0,0.0,0.0,0.0,0.0,0.0,0.0,0.0,0.0,0.0,0.0,0.0,0.0,0.0,-0.2276,0.0,0.0,0.0,0.0,0.0,0.0,0.0,0.0,0.0,0.0,0.0,0.0,0.0,0.0,-0.8097,-0.7352,-0.7196,-0.6919,0.0,0.0,-0.6457,-0.4145,-0.6795,-0.8118,0.0,0.0,0.0,0.0,0.0,0.0,0.0,0.0,0.0,0.0,0.0,0.0,0.0,0.0,0.0,0.0,0.0,0.0,0.0,0.0,0.0,0.0,0.0,0.0,0.0,0.0,0.0,0.0,0.0,0.0,0.0,0.0,0.0,0.0,0.0,0.0,0.0,0.0,0.0,0.0,0.0,0.0,0.0,0.0,0.0,0.0,0.0,0.0,0.0,0.0,0.0,0.0,0.0,0.0,0.0,-0.55,-0.5023,-0.4284,-0.333,-0.3732,-0.3783,-0.3278,-0.3577,-0.415,0.0,0.0,0.0,0.0,0.0,0.0,0.0,0.0,0.0,0.0,0.0,0.0,0.0,0.0,0.0,0.0,0.0,0.0,0.0,0.0,0.0,0.0,0.0,0.0,0.0,0.0,0.0,0.0,0.0,0.0,0.0,0.0,0.0,0.0,0.0,0.0,0.0,0.0,0.0,0.0,0.0,-0.8048,-0.6806,-0.7,-0.7166,0.0,0.0,-0.6356,-0.6586,-0.8239,-0.8957,-0.7178,0.0,0.0,0.0,0.0,0.0,0.0,0.0,0.0,0.0,0.0,0.0,0.0,0.0,0.0,0.0,0.0,0.0,0.0,0.0,0.0,0.0,0.0,0.0,0.0,0.0,0.0,0.0,0.0,0.0,0.0,0.0,0.0,0.0,0.0,0.0,0.0,0.0,0.0,0.0,0.0,0.0,0.0,0.0,0.0,0.0,0.0,0.0,0.0,0.0,0.0,0.0,0.0,0.0,-0.5726,-0.5002,-0.4558,-0.3934,-0.323,-0.3077,-0.3228,-0.3682,-0.345,-0.3798,0.0,0.0,0.0,0.0,0.0,0.0,0.0,0.0,0.0,0.0,0.0,0.0,0.0,0.0,0.0,0.0,0.0,0.0,0.0,0.0,0.0,0.0,0.0,0.0,0.0,0.0,0.0,0.0,-0.7037,-0.7382,-0.6415,0.0,0.0,0.0,0.0,0.0,0.0,0.0,0.0,0.0,0.0,-0.7885,-0.8095,-0.7962,0.0,0.0,-0.7196,-0.7247,-0.6783,-0.8175,-0.89,-0.7821,-0.7741,0.0,0.0,0.0,0.0,0.0,0.0,0.0,0.0,0.0,0.0,0.0,0.0,0.0,0.0,0.0,0.0,0.0,0.0,0.0,0.0,0.0,0.0,0.0,0.0,0.0,0.0,0.0,0.0,0.0,0.0,0.0,0.0,0.0,0.0,0.0,0.0,0.0,0.0,0.0,0.0,0.0,0.0,0.0,0.0,0.0,0.0,0.0,0.0,0.0,0.0,0.0,0.0,-0.5977,-0.5073,-0.4384,-0.3632,-0.2978,-0.2573,-0.2773,-0.3476,-0.3195,-0.3526,0.0,0.0,0.0,0.0,0.0,0.0,0.0,0.0,0.0,0.0,0.0,0.0,0.0,0.0,0.0,0.0,0.0,0.0,0.0,0.0,0.0,0.0,0.0,0.0,0.0,0.0,0.0,0.0,-0.8255,-0.8522,-0.7716,0.0,0.0,0.0,0.0,0.0,0.0,0.0,0.0,0.0,0.0,-0.7994,-0.8632,-0.84,-0.8002,-0.762,-0.778,-0.7837,-0.7353,-0.8226,-0.88,-0.8185,0.0,0.0,0.0,0.0,0.0,0.0,0.0,0.0,0.0,0.0,0.0,0.0,0.0,0.0,0.0,0.0,0.0,0.0,0.0,0.0,0.0,0.0,0.0,0.0,0.0,0.0,0.0,0.0,0.0,0.0,-0.129,0.0,0.0,0.0,0.0,0.0,0.0,0.0,0.0,0.0,0.0,0.0,0.0,0.0,0.0,0.0,0.0,0.0,0.0,0.0,0.0,0.0,0.0,-0.6252,-0.5952,-0.4644,-0.3479,-0.2472,-0.2422,-0.2422,-0.2472,-0.2924,-0.3498,-0.4202,0.0,0.0,0.0,0.0,0.0,0.0,0.0,0.0,0.0,0.0,0.0,0.0,0.0,0.0,0.0,0.0,0.0,0.0,0.0,0.0,0.0,0.0,0.0,0.0,0.0,0.0,-0.5571,-0.6801,-0.8135,0.0,0.0,0.0,0.0,0.0,0.0,0.0,0.0,0.0,0.0,-0.7348,-0.8404,-0.8038,-0.8005,-0.8239,-0.8913,-0.8166,-0.7827,-0.857,-0.8775,-0.8702,0.0,0.0,0.0,0.0,0.0,0.0,0.0,0.0,0.0,0.0,0.0,0.0,0.0,0.0,0.0,0.0,0.0,0.0,0.0,0.0,0.0,0.0,0.0,0.0,0.0,0.0,0.0,-0.2421,-0.1434,0.0,0.0,0.0,0.0,0.0,0.0,0.0,0.0,0.0,0.0,0.0,-0.836,-0.8286,0.0,0.0,0.0,0.0,0.0,0.0,0.0,0.0,0.0,0.0,0.0,0.0,-0.6064,-0.5287,-0.4111,-0.3128,-0.2422,-0.207,-0.2221,-0.2927,-0.2775,-0.3162,-0.4174,0.0,0.0,0.0,0.0,0.0,0.0,0.0,0.0,0.0,0.0,0.0,0.0,0.0,0.0,0.0,0.0,0.0,0.0,0.0,0.0,0.0,0.0,0.0,0.0,0.0,-0.78,0.0,0.0,0.0,0.0,0.0,0.0,0.0,0.0,0.0,0.0,0.0,-0.7422,-0.7797,-0.805,-0.8309,-0.8674,-0.8726,-0.8707,0.0,0.0,0.0,0.0,0.0,0.0,0.0,0.0,0.0,0.0,0.0,0.0,0.0,0.0,-0.8405,-0.9627,-1.0025,-1.0166,-1.0178,0.0,0.0,0.0,0.0,0.0,0.0,0.0,0.0,0.0,0.0,0.0,0.0,0.0,0.0,0.0,0.0,-0.3059,0.0,0.0,0.0,0.0,0.0,0.0,0.0,0.0,-0.7375,-0.7765,-0.8385,-0.8329,-0.8582,0.0,-0.8866,-0.8974,0.0,0.0,0.0,0.0,0.0,0.0,0.0,0.0,-0.613,-0.5029,-0.381,-0.2826,-0.212,-0.1768,-0.192,-0.2625,-0.2472,-0.3053,-0.4536,-0.5357,-0.5796,0.0,0.0,0.0,0.0,0.0,0.0,0.0,0.0,0.0,0.0,0.0,0.0,0.0,0.0,0.0,0.0,0.0,0.0,0.0,0.0,0.0,0.0,0.0,-0.9058,0.0,0.0,0.0,0.0,0.0,0.0,0.0,0.0,0.0,-0.7293,-0.7763,-0.8303,-0.8709,-0.834,-0.8284,-0.8904,0.0,0.0,0.0,0.0,0.0,0.0,0.0,-0.8142,-0.8636,-0.859,-0.8602,-0.9114,-0.8591,-0.8288,-0.9004,0.0,0.0,-0.9774,-1.0341,-1.0623,-1.0706,-1.1062,-1.1495,-1.1817,-1.1891,-1.1986,0.0,0.0,0.0,0.0,0.0,0.0,0.0,0.0,-0.5003,-0.4087,0.0,-0.3697,0.0,0.0,0.0,0.0,0.0,-0.6539,0.0,0.0,-0.7828,-0.7875,-0.7715,-0.8398,-0.8863,-0.9084,-0.8909,-0.904,-0.9381,-0.8591,0.0,0.0,0.0,0.0,0.0,0.0,-0.6489,-0.516,-0.389,-0.2676,-0.1667,-0.1566,-0.1617,-0.1617,-0.212,-0.3222,-0.4966,-0.4666,-0.5299,-0.717,-0.5918,0.0,0.0,0.0,0.0,0.0,0.0,0.0,0.0,0.0,0.0,0.0,0.0,0.0,0.0,0.0,0.0,0.0,0.0,0.0,0.0,-0.952,0.0,0.0,0.0,0.0,0.0,0.0,0.0,0.0,0.0,0.0,-0.7306,-0.8326,-0.8982,-0.8467,0.0,0.0,0.0,0.0,-0.8086,-0.8472,-0.8395,-0.8294,-0.8216,-0.7763,-0.7549,-0.7891,0.0,0.0,-0.8488,-0.8153,-0.8095,-0.9367,-0.903,-0.8652,-0.8222,-0.9366,-1.0278,-1.0316,-1.1299,-1.2123,-1.2403,-1.2481,-1.2539,-0.9455,0.0,0.0,0.0,0.0,-0.6838,-0.67,-0.6624,-0.6624,-0.601,-0.5012,-0.5752,0.0,0.0,0.0,0.0,0.0,0.0,-0.7465,-0.7615,-0.7654,-0.779,-0.7913,-0.8105,-0.8349,-0.8586,-0.8348,-0.842,-0.8657,-0.829,-0.8408,-0.9078,0.0,0.0,0.0,0.0,-0.6208,-0.5839,-0.4159,-0.2676,-0.1617,-0.1566,-0.1566,-0.1566,-0.212,-0.2672,-0.3173,-0.3965,-0.4849,-0.5804,-0.6082,0.0,0.0,0.0,0.0,0.0,0.0,0.0,0.0,0.0,0.0,0.0,0.0,0.0,0.0,0.0,0.0,0.0,0.0,0.0,-0.9089,-0.9445,-0.9342,0.0,0.0,0.0,0.0,0.0,0.0,0.0,0.0,0.0,-0.891,-0.9794,-1.021,0.0,0.0,-0.9438,-0.8754,-0.8558,-0.8219,-0.7643,0.0,0.0,0.0,-0.7037,-0.7304,-0.736,-0.7216,-0.7224,-0.7468,-0.7118,-0.6946,-0.7327,-0.7252,-0.7085,-0.7115,-0.9108,-1.0758,-1.1007,-1.1952,-1.2852,-1.3147,-1.3345,-1.352,-0.8633,-0.8902,-0.8717,-0.8318,-0.7801,-0.7491,-0.745,-0.7574,-0.7578,-0.706,-0.6225,-0.7001,-0.6346,-0.4735,-0.5421,0.0,0.0,0.0,-0.7721,-0.7773,-0.7773,-0.782,-0.7982,-0.7988,-0.8088,-0.8233,-0.8088,-0.8088,-0.8233,-0.8417,-0.8663,-0.9036,0.0,0.0,-0.9887,-0.7985,-0.6576,-0.5808,-0.4292,-0.2927,-0.1667,-0.1566,-0.1566,-0.1617,-0.1919,-0.217,-0.2422,-0.3175,-0.421,-0.5446,-0.585,-0.6218,0.0,0.0,0.0,0.0,0.0,0.0,0.0,0.0,0.0,0.0,0.0,-0.5726,-0.4947,0.0,0.0,0.0,-0.7143,-0.874,-1.0466,-1.0528,0.0,0.0,0.0,0.0,0.0,0.0,0.0,-0.8094,-0.8568,-0.9002,-0.9592,-1.0049,-1.0262,-1.0129,-0.9733,-0.9297,-0.8877,0.0,-0.7736,-0.7302,-0.7406,-0.7294,-0.6798,-0.6865,-0.6885,-0.6684,-0.672,-0.6776,-0.6729,-0.6542,-0.6434,-0.6387,-0.6387,-0.6534,-0.6983,-0.8958,-1.0587,-1.0734,-1.2111,-1.3244,-1.3443,-1.3786,-1.407,-0.7988,-0.7991,-0.8085,-0.8238,-0.8381,-0.7675,-0.7588,-0.7985,-0.7988,-0.7415,-0.6623,-0.7582,-0.6785,-0.4776,-0.5458,0.0,-0.7344,-0.7537,-0.7777,-0.7988,-0.7988,-0.7988,-0.7988,-0.7988,-0.7988,-0.7988,-0.7988,-0.7988,-0.8035,-0.8736,-0.9056,-0.8874,-0.9116,-0.9304,-0.9398,-0.8653,-0.7282,-0.5232,-0.4388,-0.3218,-0.1617,-0.1566,-0.1566,-0.1566,-0.1566,-0.1818,-0.2321,-0.2321,-0.3425,-0.572,-0.5446,-0.6093,-0.7874,0.0,0.0,0.0,0.0,0.0,0.0,0.0,0.0,0.0,0.0,0.0,0.0,0.0,0.0,0.0,-0.8234,0.0,-1.2113,-1.1965,0.0,0.0,0.0,-0.8956,-0.7658,-0.7731,-0.8063,-0.8554,0.0,0.0,-0.9456,0.0,-0.935,-0.9997,-0.8976,-0.8356,-0.8892,-0.7689,-0.69,-0.7357,-0.7442,-0.7401,-0.72,-0.6837,-0.6445,-0.6197,-0.6239,-0.6431,-0.6429,-0.6431,-0.6387,-0.6584,-0.6537,-0.6883,-0.7925,-0.911,-0.9805,-1.0194,-1.1917,-1.3443,-1.3491,-1.3871,-1.416,-0.7988,-0.7978,-0.8032,-0.8063,-0.808,-0.7933,-0.7875,-0.7988,-0.7988,-0.7869,-0.7641,-0.7875,-0.7681,-0.7186,-0.7353,-0.757,-0.7835,-0.7887,-0.797,-0.7988,-0.7988,-0.7988,-0.7988,-0.7988,-0.7988,-0.7988,-0.7988,-0.7988,-0.7992,-0.8324,-0.881,-0.9399,-0.9566,-0.9479,-0.9082,-0.7741,-0.6777,-0.6251,-0.4655,-0.313,-0.1666,-0.1566,-0.1566,-0.1566,-0.1566,-0.1667,-0.1768,-0.1768,-0.2822,-0.4974,-0.516,-0.5741,-0.6986,-0.6511,0.0,0.0,0.0,0.0,0.0,0.0,0.0,0.0,0.0,-0.6955,-0.5171,0.0,-0.876,0.0,-0.8589,-0.941,-0.9728,-0.9657,0.0,0.0,-0.9066,-0.8709,-0.7946,-0.8052,-0.8388,-0.8842,-0.8768,-0.8669,-0.8531,-0.8476,-0.8392,-0.8193,-0.8393,-0.8314,-0.7643,-0.7503,-0.7366,-0.7157,-0.6878,-0.6599,-0.6448,-0.6231,-0.6208,-0.6284,-0.6337,-0.6387,-0.6387,-0.6387,-0.6634,-0.7428,-0.7627,-0.8021,-0.9011,-1.0092,-1.0832,-1.1224,-1.2306,-1.3244,-1.3443,-1.3781,-1.3979,-0.7988,-0.7988,-0.7988,-0.7988,-0.7988,-0.7988,-0.7988,-0.7988,-0.7988,-0.7988,-0.7988,-0.7988,-0.7988,-0.7988,-0.7988,-0.7988,-0.7995,-0.8109,-0.8143,-0.8147,-0.8208,-0.8238,-0.8238,-0.8235,-0.8238,-0.8238,-0.8235,-0.8238,-0.8241,-0.8323,-0.8634,-0.9111,-0.9198,-0.9069,-0.8726,-0.854,-0.8227,-0.7726,-0.5774,-0.3995,-0.242,-0.2772,-0.2751,-0.2167,-0.2607,-0.278,-0.2638,-0.2636,-0.3337,-0.4951,-0.5183,-0.5774,-0.688,-0.6398,-0.5922,0.0,0.0,0.0,0.0,0.0,0.0,0.0,0.0,0.0,0.0,0.0,-0.8906,-0.8341,-0.8739,-0.914,-0.9358,-0.9343,-0.928,-0.9197,-0.9155,-0.8886,-0.8328,-0.8353,-0.8543,-0.8798,-0.8412,-0.8025,-0.7889,-0.7401,-0.6968,-0.6654,-0.6952,-0.7197,-0.7235,-0.7087,-0.688,-0.6741,-0.6545,-0.6337,-0.6189,-0.6189,-0.6239,-0.6387,-0.6387,-0.6387,-0.6437,-0.6783,-0.7329,-0.7872,-0.8368,-0.9061,-1.0096,-1.0734,-1.137,-1.2014,-1.2559,-1.305,-1.3394,-1.3593,-1.3738,-0.7988,-0.7988,-0.7988,-0.7988,-0.7988,-0.7988,-0.7988,-0.7988,-0.7988,-0.8002,-0.8022,-0.8019,-0.8029,-0.8046,-0.8099,-0.8046,-0.8052,-0.8235,-0.8299,-0.8354,-0.8425,-0.8535,-0.8535,-0.8535,-0.8535,-0.8535,-0.8535,-0.8535,-0.8535,-0.8499,-0.8542,-0.8661,-0.8682,-0.8661,-0.8682,-1.0097,-1.0194,-0.8987,-0.705,-0.5176,-0.3472,-0.4303,-0.4179,-0.3099,-0.3889,-0.4237,-0.3961,-0.3954,-0.4355,-0.5264,-0.5356,-0.5982,-0.721,-0.6364,-0.6113,0.0,-0.5907,0.0,0.0,0.0,0.0,0.0,0.0,0.0,0.0,-0.7537,-0.8292,-0.8767,-0.8824,-0.9096,-0.9662,-0.9743,-0.9682,-0.9385,-0.9342,-0.9158,-0.8675,-0.8616,-0.8616,-0.8616,-0.7937,-0.7489,-0.7309,-0.6352,-0.5605,-0.5428,-0.546,-0.5894,-0.6864,-0.655,-0.6132,-0.6337,-0.6387,-0.6387,-0.6387,-0.6387,-0.6387,-0.6387,-0.6584,-0.6587,-0.6684,-0.7528,-0.8269,-0.8513,-0.9258,-1.0145,-1.1175,-1.1419,-1.1717,-1.2559,-1.2759,-1.2953,-1.3298,-1.3443,-1.3443,-0.7988,-0.7988,-0.7988,-0.7988,-0.7988,-0.7988,-0.7988,-0.7988,-0.7988,-0.8109,-0.8228,-0.8228,-0.8289,-0.8394,-0.8397,-0.8397,-0.8397,-0.8428,-0.8442,-0.8442,-0.8469,-0.8535,-0.8535,-0.8535,-0.8535,-0.8535,-0.8535,-0.8535,-0.8535,-0.8608,-0.8962,-0.9481,-0.9557,-0.9879,-1.0313,0.0,0.0,0.0,-0.6868,-0.5757,-0.457,-0.4489,-0.4357,-0.4087,-0.4161,0.0,-0.4171,-0.4126,-0.4538,-0.5427,-0.5599,0.0,0.0,0.0,0.0,0.0,0.0,0.0,0.0,0.0,0.0,0.0,-0.6743,-0.6784,-0.6753,-0.7895,-0.8686,-0.8782,-0.8996,-0.8914,-0.836,-0.8471,-0.8586,-0.8492,-0.8638,-0.8703,-0.8612,-0.8616,-0.8616,-0.8568,-0.794,-0.7268,-0.6707,-0.5981,-0.5322,-0.4769,-0.4907,-0.5308,-0.5822,-0.5973,-0.5989,-0.6092,-0.6287,-0.6387,-0.6387,-0.6437,-0.6487,-0.6487,-0.7182,-0.7624,-0.7773,-0.8566,-0.9649,-1.0288,-1.0779,-1.1228,-1.2262,-1.2516,-1.2462,-1.2759,-1.2807,-1.2861,-1.3147,-1.3195,-1.3201,-0.7988,0.0,-0.7988,-0.7988,0.0,-0.8123,-0.8153,-0.8153,-0.8153,-0.8238,-0.8426,-0.8426,-0.8414,-0.8535,-0.8535,-0.8535,-0.8538,-0.856,-0.8594,-0.8598,-0.8672,-0.871,-0.871,-0.871,-0.871,-0.871,-0.8706,-0.8706,-0.8713,-0.8784,-0.896,-0.9277,-0.9361,-0.9637,-1.0096,-1.0092,-0.9603,-0.8662,-0.8242,-0.727,-0.585,-0.6103,-0.5963,-0.5275,0.0,0.0,0.0,0.0,0.0,0.0,0.0,0.0,0.0,0.0,0.0,-0.7071,-0.6985,-0.6927,-0.6951,-0.7076,-0.7214,-0.7343,-0.7434,-0.7338,-0.716,-0.7902,-0.8398,-0.8383,-0.8511,-0.8412,-0.7947,-0.8153,-0.8298,-0.8207,-0.8432,-0.8616,-0.8616,-0.8616,-0.8616,-0.848,-0.7625,-0.6805,-0.6568,-0.5582,-0.4935,-0.4602,-0.4835,-0.5161,-0.536,-0.5708,-0.6042,-0.6189,-0.6289,-0.6387,-0.6437,-0.6883,-0.7179,-0.7329,-0.8071,-0.8718,-0.8814,-0.9698,-1.0587,-1.1121,-1.1619,-1.2214,-1.2613,-1.2807,-1.2807,-1.2807,-1.2807,-1.2813,-1.291,-1.2953,-1.3007,-0.83,-0.8275,-0.8129,-0.8096,-0.813,-0.8252,-0.8374,-0.8347,0.0,0.0,0.0,-0.8523,-0.8537,-0.8564,-0.8564,-0.8564,-0.857,-0.8693,-0.875,-0.8757,-0.8824,-0.8937,-0.8937,-0.8937,-0.8937,-0.8937,-0.8937,-0.8937,-0.8937,-0.8937,-0.8937,-0.8937,-0.8937,-0.9047,-0.9268,-0.9323,-0.9399,-0.9526,-0.9501,-0.8685,-0.7072,-0.7801,-0.7598,-0.6314,-0.7098,-0.7438,-0.7149,-0.7136,-0.7068,-0.6976,-0.695,-0.7021,-0.7001,-0.7044,-0.7078,-0.724,-0.7257,-0.7361,-0.7658,-0.7678,-0.778,-0.7975,-0.7988,-0.7887,-0.7695,-0.785,-0.7988,-0.7988,-0.7965,-0.7934,-0.7904,-0.8124,-0.8222,-0.8191,-0.8432,-0.8616,-0.8616,-0.8616,-0.8616,-0.848,-0.748,-0.6639,-0.6569,-0.5532,-0.4628,-0.4718,-0.4963,-0.5293,-0.5565,-0.5887,-0.6189,-0.6634,-0.6833,-0.6783,-0.7083,-0.7673,-0.8273,-0.8319,-0.916,-0.985,-1.0047,-1.0783,-1.1419,-1.157,-1.2262,-1.2662,-1.2764,-1.2807,-1.2807,-1.2807,-1.2807,-1.2807,-1.2807,-1.2807,-1.2861,-0.9452,-0.9489,-0.8588,-0.8306,-0.8421,-0.8442,-0.853,-0.8635,-0.8509,-0.854,-0.8679,-0.8679,-0.875,-0.8817,-0.8872,-0.8821,-0.8821,-0.8896,-0.8851,0.0,-0.8871,-0.8937,-0.8937,-0.8937,-0.8937,-0.8937,-0.8937,-0.8937,-0.8937,-0.8937,-0.8937,-0.8937,-0.8937,-0.8937,-0.8992,-0.8992,-0.8961,-0.9002,-0.8793,-0.8491,-0.8064,-0.7961,-0.7739,-0.7416,-0.7429,-0.7387,-0.7388,-0.7343,-0.7268,-0.7078,-0.7238,-0.737,-0.7495,-0.7502,-0.7628,-0.7837,-0.7864,-0.7884,-0.7974,-0.7928,-0.7944,-0.7985,-0.7988,-0.7968,-0.7934,-0.7965,-0.7988,-0.7985,-0.7926,-0.7825,-0.7889,-0.804,-0.8159,-0.8191,-0.8432,-0.8616,-0.8616,-0.8624,-0.8624,-0.8584,-0.8024,-0.7291,-0.6759,-0.6081,-0.5432,-0.4954,-0.5309,-0.572,-0.6775,-0.6539,-0.6589,-0.7428,-0.7773,-0.817,-0.8715,-0.9213,-0.9357,-0.9357,-1.0288,-1.0974,-1.0979,-1.177,-1.2414,-1.2511,-1.2662,-1.2759,-1.2807,-1.2807,-1.2807,-1.2807,-1.2807,-1.2807,-1.2807,-1.2807,-1.2813,-1.0963,-1.0946,-1.0489,-1.0329,-1.036,-0.9832,-0.928,-0.8825,-0.876,-0.8767,-0.8774,-0.8832,-0.8817,-0.8881,-0.8937,-0.8937,-0.8937,-0.8937,-0.8937,-0.8937,-0.8937,-0.8937,-0.8937,-0.8937,-0.8937,-0.8937,-0.8937,-0.8937,-0.8937,-0.8937,-0.8937,-0.8937,-0.9103,-0.9106,-0.8937,-0.9103,-0.9103,-0.8937,-0.8747,-0.8618,-0.8391,-0.8245,-0.8069,-0.7848,-0.777,-0.7736,-0.7736,-0.7736,-0.7651,-0.7584,-0.7692,-0.7763,-0.7834,-0.7838,-0.785,-0.7978,-0.7988,-0.7988,-0.7988,-0.7988,-0.7988,-0.7988,-0.7988,-0.7988,-0.7988,-0.7988,-0.7988,-0.7985,-0.7853,-0.775,-0.7748,-0.7972,-0.8084,-0.8047,-0.8388,-0.8616,-0.8624,-0.8658,-0.8702,-0.8674,-0.8261,-0.7791,-0.75,-0.6909,-0.6485,-0.6147,-0.6506,-0.7375,-0.8471,-0.8322,-0.8124,-0.8715,-0.8863,-0.9061,-0.9558,-1.0145,-1.0391,-1.0485,-1.1375,-1.1965,-1.2068,-1.2559,-1.271,-1.2807,-1.2807,-1.2807,-1.2807,-1.2807,-1.2807,-1.2807,-1.2807,-1.2807,-1.2807,-1.2807,-1.2807,-1.2348,-1.2393,-1.2129,-1.2054,-1.2011,-1.1269,-1.0287,-0.9372,-0.932,-0.9154,-0.8937,-0.8937,-0.8937,-0.8937,-0.8937,-0.8937,-0.8937,-0.8937,-0.8937,-0.8937,-0.8937,-0.8937,-0.8937,-0.8937,-0.8937,-0.8937,-0.8937,-0.8937,-0.8937,-0.8937,-0.8937,-0.8937,-0.9161,-0.9161,-0.8937,-0.9158,-0.9158,-0.8937,-0.8937,-0.8808,-0.8547,-0.8499,-0.8353,-0.8066,-0.8005,-0.7988,-0.7988,-0.7988,-0.7988,-0.7988,-0.7988,-0.7988,-0.7988,-0.7988,-0.7988,-0.7988,-0.7988,-0.7988,-0.7988,-0.7988,-0.7988,-0.7988,-0.7988,-0.7988,-0.7988,-0.7988,-0.7971,-0.7931,-0.7845,-0.7699,-0.76,-0.7777,-0.7908,-0.783,-0.8295,-0.8593,-0.8601,-0.873,-0.8885,-0.881,-0.8521,-0.8343,-0.8113,-0.7741,-0.7318,-0.7257,-0.7975,-0.8863,-0.9505,-0.9899,-1.0149,-1.0248,-1.0149,-1.0145,-1.0297,-1.0984,-1.1521,-1.157,-1.2214,-1.2613,-1.271,-1.2759,-1.2807,-1.2807,-1.2807,-1.2807,-1.2807,-1.2807,-1.2807,-1.2807,-1.2807,-1.2807,-1.2807,-1.2807,-1.2807,-1.3474,-1.3483,-1.2653,-1.2239,-1.2396,-1.2262,-1.1579,-1.0617,-1.0562,-0.9915,-0.9103,-0.8937,-0.8937,-0.8937,-0.8937,-0.8937,-0.8937,-0.8937,-0.8937,-0.8937,-0.8937,-0.8937,-0.8937,-0.8937,-0.8937,-0.8937,-0.8937,-0.8937,-0.8937,-0.8937,-0.8937,-0.8937,-0.8937,-0.8937,-0.8937,-0.8937,-0.8937,-0.8937,-0.8937,-0.8855,-0.8693,-0.8554,-0.8404,-0.8252,-0.8109,-0.7988,-0.7988,-0.7988,-0.7988,-0.7988,-0.7988,-0.7988,-0.7988,-0.7988,-0.7988,-0.7988,-0.7988,-0.7988,-0.7988,-0.7988,-0.7988,-0.7988,-0.7988,-0.7988,-0.7988,-0.7988,-0.7931,-0.7855,-0.7709,-0.758,-0.7456,-0.7552,-0.7615,-0.7652,-0.814,-0.8532,-0.8552,-0.8874,-0.9072,-0.9072,-0.9127,-0.9,-0.8412,-0.8266,-0.8054,-0.763,-0.8471,-0.9361,-0.9998,-1.089,-1.1683,-1.2019,-1.1722,-1.1521,-1.2068,-1.2516,-1.2511,-1.2565,-1.2662,-1.2807,-1.2807,-1.2807,-1.2807,-1.2807,-1.2807,-1.2807,-1.2807,-1.2807,-1.2807,-1.2807,-1.2807,-1.2807,-1.2807,-1.2807,-1.2759,-1.4989,-1.5023,-1.454,-1.4008,-1.3501,-1.3457,-1.2797,-1.176,-1.171,-1.1442,-1.0895,-1.0241,-0.9588,-0.8937,-0.8937,-0.8937,-0.8937,-0.8937,-0.8937,-0.8937,-0.8937,-0.8937,-0.8937,-0.8937,-0.8937,-0.8937,-0.8937,-0.8937,-0.8937,-0.8937,-0.8937,-0.8937,-0.8937,-0.8937,-0.8937,-0.8937,-0.8937,-0.8937,-0.8937,-0.8851,-0.8828,-0.8604,-0.8414,-0.8323,-0.8123,-0.7988,-0.7988,-0.7988,-0.7988,-0.7988,-0.7988,-0.7988,-0.7988,-0.7988,-0.7988,-0.7988,-0.7988,-0.7988,-0.7988,-0.7988,-0.7988,-0.7988,-0.7988,-0.7988,-0.7988,-0.7988,-0.7974,-0.7834,-0.7756,-0.7695,-0.7671,-0.7681,-0.7735,-0.7834,-0.8249,-0.8609,-0.8609,-0.9,-0.9294,-0.931,-0.9405,-0.9417,-0.9127,-0.9083,-0.9126,-0.9076,-0.9616,-1.001,-1.065,-1.1487,-1.2024,-1.2268,-1.217,-1.2316,-1.271,-1.2807,-1.2807,-1.2807,-1.2807,-1.2807,-1.2807,-1.2807,-1.2807,-1.2807,-1.2807,-1.2807,-1.2807,-1.2807,-1.2807,-1.2807,-1.2807,-1.2807,-1.2807,-1.2807,-1.271,-1.5885,-1.5885,-1.5885,-1.5405,-1.4654,-1.4654,-1.3997,-1.2965,-1.2906,-1.2743,-1.2304,-1.1487,-1.0511,-0.9427,-0.9047,-0.8937,-0.8937,-0.8937,-0.8937,-0.8937,-0.8937,-0.8937,-0.8937,-0.8937,-0.8937,-0.8937,-0.8937,-0.8937,-0.8937,-0.8937,-0.8937,-0.8937,-0.8937,-0.8937,-0.8937,-0.8937,-0.8937,-0.8937,-0.8937,-0.8937,-0.8896,-0.8638,-0.8487,-0.8374,-0.814,-0.7988,-0.7988,-0.7988,-0.7988,-0.7988,-0.7988,-0.7988,-0.7988,-0.7988,-0.7988,-0.7988,-0.7988,-0.7988,-0.7988,-0.7988,-0.7988,-0.7988,-0.7988,-0.7988,-0.7988,-0.7988,-0.7941,-0.785,-0.7872,-0.7855,-0.7746,-0.78,-0.7835,-0.7832,-0.8323,-0.8639,-0.8698,-0.9128,-0.9429,-0.9441,-0.9539,-0.9624,-0.9624,-0.9575,-0.9628,-0.9916,-1.0117,-1.0364,-1.085,-1.1292,-1.1585,-1.1932,-1.2322,-1.257,-1.2764,-1.2807,-1.2807,-1.2807,-1.2807,-1.2807,-1.2807,-1.2807,-1.2807,-1.2807,-1.2807,-1.2807,-1.2807,-1.2807,-1.2807,-1.2807,-1.2807,-1.2807,-1.2807,-1.271,-1.2419,-1.5885,-1.5885,-1.5885,-1.5838,-1.5838,-1.5779,-1.5131,-1.411,-1.411,-1.3506,-1.263,-1.2417,-1.171,-1.0617,-0.9644,-0.8937,-0.8937,-0.8937,-0.8937,-0.8937,-0.8937,-0.8937,-0.8937,-0.8937,-0.8937,-0.8937,-0.8937,-0.8937,-0.8937,-0.8937,-0.8937,-0.8937,-0.8937,-0.8937,-0.8937,-0.8937,-0.8937,-0.8937,-0.8937,-0.8937,-0.8899,-0.8638,-0.8479,-0.8438,-0.8191,-0.7988,-0.7988,-0.7988,-0.7988,-0.7988,-0.7988,-0.7988,-0.7988,-0.7988,-0.7988,-0.7988,-0.7988,-0.7988,-0.7988,-0.7988,-0.7988,-0.7988,-0.7988,-0.7988,-0.7988,-0.7988,-0.7978,-0.7975,-0.7958,-0.7864,-0.7702,-0.7719,-0.7685,-0.7688,-0.8214,-0.8568,-0.8627,-0.9194,-0.955,-0.96,-0.9612,-0.9624,-0.9624,-0.9624,-0.9628,-0.9673,-0.9677,-0.9875,-1.0314,-1.0511,-1.0949,-1.1683,-1.2024,-1.2224,-1.2662,-1.2807,-1.2807,-1.2807,-1.2807,-1.2807,-1.2807,-1.2807,-1.2807,-1.2807,-1.2807,-1.2807,-1.2807,-1.2807,-1.2807,-1.2807,-1.2807,-1.2807,-1.2613,-1.2322,-1.198,-1.5885,-1.5885,-1.5885,-1.5885,-1.5885,-1.5885,-1.5618,-1.5298,-1.5298,-1.5078,-1.4535,-1.3889,-1.329,-1.2852,-1.166,-1.03,-0.8992,-0.8937,-0.8937,-0.8937,-0.8937,-0.8937,-0.8937,-0.8937,-0.8937,-0.8937,-0.8937,-0.8937,-0.8937,-0.8937,-0.8937,-0.8937,-0.8937,-0.8937,-0.8937,-0.8937,-0.8937,-0.8937,-0.8937,-0.8937,-0.8913,-0.8638,-0.8535,-0.8518,-0.8197,-0.7988,-0.7988,-0.7988,-0.7988,-0.7988,-0.7988,-0.7988,-0.7988,-0.7988,-0.7988,-0.7988,-0.7988,-0.7988,-0.7988,-0.7988,-0.7988,-0.7988,-0.7988,-0.7988,-0.7988,-0.7988,-0.7988,-0.7988,-0.7988,-0.7924,-0.7923,-0.7879,-0.7882,-0.7938,-0.8363,-0.8735,-0.8845,-0.9239,-0.9624,-0.9624,-0.9624,-0.9624,-0.9624,-0.9624,-0.9624,-0.9624,-0.9624,-0.9727,-0.9875,-1.0167,-1.0654,-1.134,-1.1785,-1.2078,-1.2224,-1.2613,-1.2807,-1.2807,-1.2807,-1.2807,-1.2807,-1.2807,-1.2807,-1.2807,-1.2807,-1.2807,-1.2807,-1.2807,-1.2759,-1.2716,-1.2716,-1.2516,-1.2322,-1.1932,-1.1536,-1.5885,-1.5885,-1.5885,-1.5945,-1.5998,-1.6057,-1.5998,-1.6051,-1.6051,-1.5998,-1.5725,-1.5078,-1.4546,-1.4116,-1.3344,-1.1932,-1.008,-0.9699,-0.9265,-0.8937,-0.8937,-0.8937,-0.8937,-0.8937,-0.8937,-0.8937,-0.8937,-0.8937,-0.8937,-0.8937,-0.8937,-0.8937,-0.8937,-0.8937,-0.8937,-0.8937,-0.8937,-0.8937,-0.8937,-0.8937,-0.8844,-0.8642,-0.8535,-0.8438,-0.8147,-0.7988,-0.7988,-0.7988,-0.7988,-0.7988,-0.7988,-0.8137,-0.8482,-0.8821,-0.9023,-0.9023,-0.9065,-0.9019,-0.897,-0.8726,-0.8531,-0.8478,-0.8184,-0.7988,-0.7988,-0.7988,-0.7988,-0.7988,-0.7988,-0.7988,-0.7988,-0.7985,-0.7988,-0.8088,-0.8482,-0.8775,-0.8825,-0.9278,-0.9575,-0.9624,-0.9624,-0.9624,-0.9624,-0.9624,-0.9624,-0.9624,-0.9624,-0.9624,-0.9673,-0.9871,-1.0314,-1.085,-1.1194,-1.1487,-1.1683,-1.1975,-1.2273,-1.237,-1.2716,-1.2764,-1.2807,-1.2807,-1.2759,-1.2759,-1.2759,-1.2759,-1.2759,-1.2759,-1.2716,-1.257,-1.2419,-1.2224,-1.1927,-1.1536,-1.1145,-1.5885,-1.5885,-1.5885,-1.6051,-1.6271,-1.6271,-1.6271,-1.6324,-1.6271,-1.6158,-1.5998,-1.5838,-1.5244,-1.4493,-1.4272,-1.3511,-1.2254,-1.1328,-1.0245,-0.9154,-0.9044,-0.8992,-0.8937,-0.8937,-0.8937,-0.8937,-0.8937,-0.8937,-0.8937,-0.8937,-0.8937,-0.8937,-0.8937,-0.8937,-0.8937,-0.8937,-0.8937,-0.8937,-0.8937,-0.8878,-0.8899,-0.8632,-0.8525,-0.8438,-0.8187,-0.7988,-0.7988,-0.7988,-0.7988,-0.7988,-0.7988,-0.8531,-0.941,-1.0243,-1.1023,-1.0925,-1.1028,-1.1077,-1.0974,-1.0096,-0.9608,-0.9509,-0.8726,-0.8382,-0.8432,-0.8233,-0.8187,-0.8184,-0.8038,-0.7988,-0.7988,-0.7988,-0.7988,-0.8038,-0.8482,-0.8775,-0.8874,-0.9274,-0.9624,-0.9624,-0.9624,-0.9624,-0.9624,-0.9624,-0.9624,-0.9624,-0.9624,-0.9624,-0.9624,-0.9673,-0.9875,-1.0265,-1.0659,-1.09,-1.1047,-1.1243,-1.1536,-1.1883,-1.237,-1.2667,-1.2759,-1.2759,-1.2662,-1.2613,-1.2565,-1.2516,-1.2322,-1.2322,-1.2273,-1.2175,-1.2029,-1.1829,-1.1389,-1.0998,-1.0703,-1.5885,-1.5885,-1.5885,-1.6051,-1.6271,-1.6271,-1.6371,-1.6524,-1.6377,-1.6377,-1.6365,-1.6045,-1.5785,-1.5624,-1.5458,-1.4756,-1.3673,-1.3186,-1.2037,-1.0457,-1.0131,-0.9699,-0.9047,-0.8937,-0.8937,-0.8937,-0.8937,-0.8937,-0.8937,-0.8937,-0.8937,-0.8937,-0.8937,-0.8937,-0.8937,-0.8937,-0.8937,-0.8937,-0.8937,-0.8838,-0.8781,-0.8587,-0.849,-0.8326,-0.814,-0.7988,-0.7988,-0.7988,-0.7988,-0.7988,-0.7988,-0.8482,-0.946,-0.9899,-1.044,-1.1072,-1.1219,-1.1219,-1.117,-1.0925,-1.0681,-1.0632,-1.0342,-1.0243,-1.0096,-0.946,-0.9118,-0.897,-0.8482,-0.7988,-0.7988,-0.7988,-0.7988,-0.7988,-0.8482,-0.8825,-0.8874,-0.9278,-0.9575,-0.9624,-0.9624,-0.9624,-0.9624,-0.9624,-0.9624,-0.9624,-0.9624,-0.9624,-0.9624,-0.9624,-0.9821,-1.0265,-1.0359,-1.0359,-1.0556,-1.0752,-1.0998,-1.1389,-1.1932,-1.2419,-1.2613,-1.2662,-1.2516,-1.237,-1.2273,-1.2175,-1.1975,-1.1878,-1.1883,-1.1688,-1.1487,-1.1145,-1.0752,-1.0462,-1.0216,-1.5885,-1.5885,-1.5885,-1.6105,-1.643,-1.6477,-1.663,-1.6849,-1.6696,-1.659,-1.653,-1.6311,-1.6205,-1.6271,-1.6105,-1.5672,-1.5035,-1.4869,-1.3835,-1.1982,-1.0945,-1.0292,-0.9533,-0.9044,-0.8937,-0.8937,-0.8937,-0.8937,-0.8937,-0.8937,-0.8937,-0.8937,-0.8937,-0.8937,-0.8937,-0.8937,-0.8937,-0.8937,-0.8937,-0.8866,-0.8713,-0.856,-0.8411,-0.8272,-0.8119,-0.7995,-0.7988,-0.7988,-0.7988,-0.8088,-0.8333,-0.892,-0.9558,-0.9998,-1.0489,-1.1023,-1.1219,-1.1365,-1.1658,-1.1419,-1.1414,-1.1609,-1.1414,-1.117,-1.1072,-1.0489,-1.0145,-0.9509,-0.9019,-0.8432,-0.8088,-0.7988,-0.7988,-0.7988,-0.8482,-0.8874,-0.9072,-0.9377,-0.9579,-0.9624,-0.9624,-0.9624,-0.9624,-0.9624,-0.9624,-0.9624,-0.9624,-0.9624,-0.9624,-0.9624,-0.9871,-1.0019,-1.0023,-1.0019,-1.0064,-1.0261,-1.0511,-1.0949,-1.1438,-1.1975,-1.2322,-1.237,-1.2273,-1.1878,-1.1683,-1.1688,-1.1536,-1.1585,-1.1536,-1.1243,-1.09,-1.0605,-1.0265,-1.0117,-0.992,-1.5885,-1.5885,-1.5945,-1.6205,-1.6677,-1.673,-1.6895,-1.7173,-1.7173,-1.6855,-1.6583,-1.6577,-1.6583,-1.6377,-1.6377,-1.6217,-1.6217,-1.5891,-1.5244,-1.383,-1.225,-1.1,-1.0457,-0.9427,-0.8937,-0.8937,-0.8937,-0.8937,-0.8937,-0.8937,-0.8937,-0.8937,-0.8937,-0.8937,-0.8937,-0.8937,-0.8937,-0.8937,-0.8868,-0.8835,-0.8686,-0.8537,-0.8391,-0.8252,-0.8113,-0.7988,-0.7988,-0.7988,-0.7988,-0.8137,-0.8825,-0.9365,-0.9805,-1.0685,-1.1126,-1.156,-1.1463,-1.2004,-1.2393,-1.2193,-1.195,-1.2635,-1.2145,-1.1321,-1.1419,-1.117,-1.0587,-0.9702,-0.9365,-0.892,-0.8187,-0.7988,-0.8038,-0.8137,-0.8528,-0.8973,-0.9476,-0.9575,-0.9624,-0.9624,-0.9624,-0.9624,-0.9624,-0.9624,-0.9624,-0.9624,-0.9624,-0.9624,-0.9624,-0.9624,-0.9624,-0.9677,-0.9776,-0.9776,-0.9871,-0.992,-1.0117,-1.0364,-1.09,-1.1389,-1.1829,-1.1829,-1.1731,-1.134,-1.1145,-1.1145,-1.1096,-1.1047,-1.09,-1.056,-1.0265,-1.0068,-0.992,-0.9821,-0.9772,-1.5885,-1.5945,-1.6111,-1.6424,-1.673,-1.6955,-1.7219,-1.743,-1.7279,-1.7219,-1.7166,-1.6842,-1.6789,-1.6908,-1.669,-1.6471,-1.6324,-1.6217,-1.5998,-1.5292,-1.3997,-1.2254,-1.0781,-0.9482,-0.8937,-0.8937,-0.8937,-0.8937,-0.8937,-0.8937,-0.8937,-0.8937,-0.8937,-0.8937,-0.8937,-0.8937,-0.8937,-0.892,-0.8763,-0.8703,-0.8547,-0.8408,-0.8252,-0.8059,-0.8008,-0.7988,-0.7988,-0.7988,-0.7988,-0.7988,-0.8237,-0.9217,-1.0489,-1.1028,-1.176,-1.2877,-1.3318,-1.3463,-1.3661,-1.3516,-1.3565,-1.3806,-1.3463,-1.3167,-1.2339,-1.1609,-1.0779,-0.9752,-0.897,-0.8382,-0.8088,-0.7988,-0.8134,-0.8528,-0.8726,-0.9023,-0.9476,-0.9624,-0.9624,-0.9624,-0.9624,-0.9624,-0.9624,-0.9624,-0.9624,-0.9624,-0.9624,-0.9624,-0.9624,-0.9624,-0.9624,-0.9624,-0.9677,-0.9628,-0.9624,-0.9624,-0.9723,-0.9875,-1.0265,-1.0801,-1.1047,-1.1096,-1.09,-1.0605,-1.0605,-1.0605,-1.0408,-1.0261,-1.0019,-0.9974,-0.9871,-0.9772,-0.9723,-0.9673,-0.9673,-1.5885,-1.5885,-1.6051,-1.6365,-1.6677,-1.6902,-1.7219,-1.7529,-1.743,-1.7384,-1.7371,-1.7206,-1.7113,-1.7173,-1.7008,-1.6849,-1.6643,-1.643,-1.6217,-1.5891,-1.4708,-1.2856,-1.0895,-0.9482,-0.8937,-0.8937,-0.8937,-0.8937,-0.8937,-0.8937,-0.8937,-0.8937,-0.8937,-0.8937,-0.8937,-0.8881,-0.8844,-0.8842,-0.8743,-0.8615,-0.8404,-0.8368,-0.8194,-0.8022,-0.7988,-0.7988,-0.8038,-0.8428,-0.8478,-0.8237,-0.8432,-0.9266,-1.0342,-1.0979,-1.176,-1.2974,-1.3022,-1.3071,-1.3559,-1.3613,-1.3854,-1.4196,-1.4298,-1.4004,-1.3463,-1.278,-1.1999,-1.0485,-0.9702,-0.897,-0.8137,-0.7988,-0.8233,-0.8627,-0.8775,-0.9027,-0.9525,-0.9624,-0.9624,-0.9624,-0.9624,-0.9624,-0.9624,-0.9624,-0.9624,-0.9624,-0.9624,-0.9624,-0.9624,-0.9624,-0.9624,-0.9624,-0.9624,-0.9624,-0.9624,-0.9624,-0.9624,-0.9727,-0.9826,-1.0314,-1.0511,-1.0556,-1.0359,-1.0216,-1.0117,-1.0068,-0.992,-0.9821,-0.9772,-0.9727,-0.9628,-0.9624,-0.9624,-0.9624,-0.9624,-1.5885,-1.5885,-1.5945,-1.6205,-1.6677,-1.673,-1.7107,-1.7529,-1.7589,-1.7483,-1.7325,-1.7483,-1.743,-1.7232,-1.7219,-1.7226,-1.7126,-1.6696,-1.643,-1.5945,-1.4917,-1.3285,-1.1596,-1.0025,-0.921,-0.9047,-0.8992,-0.8992,-0.9047,-0.9047,-0.9047,-0.8992,-0.8937,-0.894,-0.8982,-0.8916,-0.8838,-0.8794,-0.8648,-0.8565,-0.8426,-0.8296,-0.8153,-0.8015,-0.7988,-0.7988,-0.8184,-0.8673,-0.8871,-0.8038,-0.9118,-0.9899,-1.0145,-1.0974,-1.1565,-1.1907,-1.2193,-1.2436,-1.2775,-1.3216,-1.3366,-1.41,-1.4298,-1.4202,-1.3908,-1.3607,-1.278,-1.0779,-1.1023,-0.9756,-0.8432,-0.7988,-0.8233,-0.8676,-0.8775,-0.9076,-0.9476,-0.9624,-0.9624,-0.9624,-0.9624,-0.9624,-0.9624,-0.9624,-0.9624,-0.9624,-0.9624,-0.9624,-0.9624,-0.9624,-0.9624,-0.9624,-0.9624,-0.9624,-0.9624,-0.9624,-0.9624,-0.9628,-0.9677,-0.992,-1.0117,-1.0167,-1.0019,-0.9871,-0.9871,-0.9821,-0.9723,-0.9673,-0.9628,-0.9628,-0.9624,-0.9624,-0.9624,-0.9624,-0.9624,-1.5885,-1.5945,-1.6105,-1.6424,-1.673,-1.6955,-1.7272,-1.7589,-1.7589,-1.7589,-1.7536,-1.7582,-1.7582,-1.7477,-1.7483,-1.7378,-1.7232,-1.702,-1.6802,-1.6164,-1.5339,-1.4578,-1.3275,-1.1433,-0.986,-0.9427,-0.9915,-0.975,-0.9261,-0.9588,-0.9919,-0.932,-0.9047,-0.9047,-0.9192,-0.8931,-0.8858,-0.8887,-0.8598,-0.846,-0.847,-0.8251,-0.8035,-0.7988,-0.7988,-0.7988,-0.8038,-0.8233,-0.8233,-0.8528,-0.9752,-1.1121,-1.1658,-1.2145,-1.2684,-1.3221,-1.3468,-1.3661,-1.3854,-1.3902,-1.3998,-1.4202,-1.4298,-1.395,-1.3071,-1.3119,-1.2096,-1.0485,-0.9899,-0.9414,-0.8233,-0.7988,-0.8283,-0.863,-0.8825,-0.9023,-0.9476,-0.9624,-0.9624,-0.9624,-0.9624,-0.9624,-0.9624,-0.9624,-0.9624,-0.9624,-0.9624,-0.9624,-0.9624,-0.9624,-0.9624,-0.9624,-0.9624,-0.9624,-0.9624,-0.9624,-0.9624,-0.9624,-0.9624,-0.9624,-0.9821,-0.9871,-0.9772,-0.9723,-0.9673,-0.9624,-0.9624,-0.9624,-0.9628,-0.9624,-0.9624,-0.9624,-0.9624,-0.9624,-0.9587,-1.5885,-1.5945,-1.6217,-1.6477,-1.6736,-1.706,-1.7325,-1.7589,-1.7589,-1.7589,-1.7589,-1.7589,-1.7589,-1.7589,-1.7589,-1.7483,-1.7378,-1.7226,-1.7014,-1.6636,-1.6033,-1.5541,-1.468,-1.2955,-1.1273,-1.0186,-0.9915,-0.9588,-0.932,-0.9537,-0.9592,-0.943,-0.9044,-0.9051,-0.9217,-0.8902,-0.8685,-0.8653,-0.8464,-0.8343,-0.8305,-0.8139,-0.7988,-0.7988,-0.7988,-0.7988,-0.7988,-0.8531,-0.8726,-0.9266,-1.073,-1.1853,-1.2193,-1.2926,-1.3709,-1.4154,-1.4298,-1.4298,-1.4298,-1.4298,-1.4298,-1.4298,-1.4298,-1.3709,-1.3022,-1.2684,-1.1702,-1.0194,-0.9558,-0.9167,-0.8137,-0.7988,-0.8283,-0.868,-0.8775,-0.9027,-0.9476,-0.9624,-0.9624,-0.9624,-0.9624,-0.9624,-0.9624,-0.9624,-0.9624,-0.9624,-0.9624,-0.9624,-0.9624,-0.9624,-0.9624,-0.9624,-0.9624,-0.9624,-0.9624,-0.9624,-0.9624,-0.9624,-0.9624,-0.9624,-0.9673,-0.9673,-0.9624,-0.9624,-0.9624,-0.9624,-0.9624,-0.9624,-0.9624,-0.9624,-0.9624,-0.9624,-0.962,-0.9616,-0.9547,-1.5885,-1.5945,-1.6217,-1.6477,-1.6736,-1.706,-1.7331,-1.7589,-1.7589,-1.7589,-1.7589,-1.7589,-1.7589,-1.7589,-1.7589,-1.7589,-1.7529,-1.7378,-1.7226,-1.7067,-1.6895,-1.6405,-1.5541,-1.4358,-1.3117,-1.1701,-1.0515,-0.9702,-0.9427,-0.921,-0.9541,-0.9372,-0.901,-0.8999,-0.9057,-0.8799,-0.8576,-0.8484,-0.8299,-0.8221,-0.8125,-0.8045,-0.7988,-0.7988,-0.7988,-0.7988,-0.8233,-0.8871,-0.9464,-0.9509,-1.1463,-1.195,-1.1999,-1.3076,-1.4298,-1.4298,-1.4298,-1.4298,-1.4298,-1.4298,-1.4298,-1.4298,-1.4298,-1.3811,-1.3028,-1.2533,-1.1609,-1.0342,-0.9365,-0.8874,-0.8137,-0.7988,-0.8233,-0.8577,-0.8726,-0.9027,-0.9377,-0.9575,-0.9624,-0.9624,-0.9624,-0.9624,-0.9624,-0.9624,-0.9624,-0.9624,-0.9624,-0.9624,-0.9624,-0.9624,-0.9624,-0.9624,-0.9624,-0.9624,-0.9624,-0.9624,-0.9624,-0.9624,-0.9624,-0.9624,-0.9624,-0.9624,-0.9624,-0.9624,-0.9624,-0.9624,-0.9624,-0.9624,-0.9624,-0.9624,-0.9624,-0.9624,-0.9616,-0.9604,-0.9498,-1.5885,-1.5945,-1.6217,-1.6477,-1.6736,-1.7067,-1.7384,-1.7589,-1.7589,-1.7589,-1.7589,-1.7589,-1.7589,-1.7589,-1.7589,-1.7589,-1.7582,-1.7536,-1.7384,-1.7279,-1.7272,-1.71,-1.6624,-1.5648,-1.4948,-1.4126,-1.2295,-1.0891,-1.0726,-1.0507,-1.0159,-0.9501,-0.9077,-0.904,-0.9048,-0.8699,-0.8512,-0.8496,-0.8254,-0.8122,-0.8197,-0.8088,-0.7988,-0.7988,-0.7988,-0.7988,-0.8184,-0.892,-0.9217,-0.8676,-1.1121,-1.1804,-1.1804,-1.3125,-1.4106,-1.4298,-1.4298,-1.4298,-1.4298,-1.4298,-1.4298,-1.4298,-1.4202,-1.3709,-1.2974,-1.2484,-1.1317,-0.9948,-0.8775,-0.8184,-0.8038,-0.7988,-0.8137,-0.8432,-0.8676,-0.8924,-0.9229,-0.948,-0.9624,-0.9624,-0.9624,-0.9624,-0.9624,-0.9624,-0.9624,-0.9624,-0.9624,-0.9624,-0.9624,-0.9624,-0.9624,-0.9624,-0.9624,-0.9624,-0.9624,-0.9624,-0.9624,-0.9624,-0.9624,-0.9624,-0.9624,-0.9624,-0.9624,-0.9624,-0.9624,-0.9624,-0.9624,-0.9624,-0.9624,-0.9624,-0.9624,-0.9624,-0.9567,-0.951,-0.9401,-1.6418,-1.5998,-1.6948,-1.7107,-1.6842,-1.7213,-1.7483,-1.7589,-1.7589,-1.7589,-1.7589,-1.7589,-1.7589,-1.7589,-1.7589,-1.7589,-1.7589,-1.7589,-1.7536,-1.743,-1.7529,-1.7529,-1.7272,-1.6399,-1.5914,-1.5097,-1.3534,-1.2344,-1.2231,-1.1796,-1.1136,-1.0605,-0.9945,-0.9508,-0.9261,-0.8815,-0.858,-0.851,-0.8229,-0.8038,-0.8184,-0.8038,-0.7988,-0.7988,-0.7988,-0.7988,-0.8088,-0.8382,-0.8531,-0.8478,-0.9998,-1.0925,-1.1609,-1.249,-1.3709,-1.4106,-1.4298,-1.4298,-1.4298,-1.4298,-1.4298,-1.4244,-1.3854,-1.2974,-1.2096,-1.1263,-1.0435,-0.9164,-0.8528,-0.7988,-0.7988,-0.7988,-0.8137,-0.8382,-0.8627,-0.8878,-0.9183,-0.943,-0.9529,-0.9624,-0.9624,-0.9624,-0.9624,-0.9624,-0.9624,-0.9624,-0.9624,-0.9624,-0.9624,-0.9624,-0.9624,-0.9624,-0.9624,-0.9624,-0.9624,-0.9624,-0.9624,-0.9624,-0.9624,-0.9624,-0.9624,-0.9624,-0.9624,-0.9624,-0.9624,-0.9624,-0.9624,-0.9624,-0.9624,-0.962,-0.9612,-0.9579,-0.9494,-0.9453,-0.9326,-1.673,-1.6045,-1.747,-1.7523,-1.6889,-1.7312,-1.7589,-1.7589,-1.7589,-1.7589,-1.7589,-1.7589,-1.7589,-1.7589,-1.7589,-1.7589,-1.7589,-1.7589,-1.7582,-1.7582,-1.7582,-1.7582,-1.7318,-1.6823,-1.6256,-1.6104,-1.5205,-1.4003,-1.3095,-1.2501,-1.2038,-1.1208,-1.0598,-0.9991,-0.9316,-0.8794,-0.8593,-0.8332,-0.8137,-0.7988,-0.7988,-0.7988,-0.7988,-0.7988,-0.7988,-0.7988,-0.7988,-0.8432,-0.8333,-0.8482,-0.9316,-1.0293,-1.0925,-1.1853,-1.278,-1.3565,-1.4004,-1.4196,-1.3956,-1.3908,-1.3811,-1.3757,-1.2926,-1.195,-1.0925,-0.9998,-0.9019,-0.8184,-0.7988,-0.7988,-0.7988,-0.7988,-0.8088,-0.8283,-0.8581,-0.8878,-0.913,-0.9331,-0.9579,-0.9624,-0.9624,-0.9624,-0.9624,-0.9624,-0.9624,-0.9624,-0.9624,-0.9624,-0.9624,-0.9624,-0.9624,-0.9624,-0.9624,-0.9624,-0.9624,-0.9624,-0.9624,-0.9624,-0.9624,-0.9624,-0.9624,-0.9624,-0.9624,-0.9624,-0.9624,-0.9624,-0.9624,-0.9608,-0.9583,-0.9571,-0.9575,-0.9502,-0.9356,-0.9218,-0.9092,-1.5998,-1.5945,-1.6624,-1.6836,-1.6836,-1.7364,-1.7589,-1.7589,-1.7589,-1.7589,-1.7589,-1.7589,-1.7589,-1.7589,-1.7589,-1.7589,-1.7589,-1.7589,-1.7589,-1.7589,-1.7589,-1.7589,-1.7582,-1.7529,-1.6931,-1.6697,-1.6588,-1.5349,-1.3876,-1.289,-1.2021,-1.1243,-1.0723,-0.9794,-0.9096,-0.8751,-0.8304,-0.8091,-0.8038,-0.7988,-0.7988,-0.7988,-0.7988,-0.7988,-0.7988,-0.7988,-0.8088,-0.8577,-0.8726,-0.8283,-0.9854,-1.044,-1.0199,-1.0783,-1.1268,-1.2047,-1.298,-1.3859,-1.3071,-1.2926,-1.2926,-1.2732,-1.195,-1.0925,-0.9899,-0.9019,-0.8283,-0.8088,-0.7988,-0.7988,-0.7988,-0.7988,-0.8038,-0.8187,-0.8482,-0.873,-0.8928,-0.9232,-0.948,-0.9624,-0.9624,-0.9624,-0.9624,-0.9624,-0.9624,-0.9624,-0.9624,-0.9624,-0.9624,-0.9624,-0.9624,-0.9624,-0.9624,-0.9624,-0.9624,-0.9624,-0.9624,-0.9624,-0.9624,-0.9624,-0.9624,-0.9624,-0.9624,-0.9624,-0.9624,-0.96,-0.9567,-0.9543,-0.9527,-0.9482,-0.9437,-0.9315,-0.9165,-0.9035,-0.893,-1.6836,-1.6895,-1.7417,-1.7681,-1.7628,-1.7635,-1.7589,-1.7589,-1.7589,-1.7589,-1.7589,-1.7589,-1.7589,-1.7589,-1.7589,-1.7589,-1.7589,-1.7589,-1.7589,-1.7575,-1.7575,-1.7575,-1.7542,-1.7369,-1.7073,-1.6536,-1.6496,-1.584,-1.4519,-1.4145,-1.3713,-1.2208,-1.1525,-1.0672,-0.9357,-0.8973,-0.8741,-0.8482,-0.8184,-0.7988,-0.7988,-0.7988,-0.7988,-0.7988,-0.7988,-0.7988,-0.8137,-0.8333,-0.8531,-0.8137,-0.9122,-0.9513,-0.9608,-1.0047,-1.0293,-1.044,-1.1658,-1.2193,-1.1907,-1.1858,-1.1853,-1.1609,-1.0877,-0.985,-0.8874,-0.8333,-0.7988,-0.7988,-0.7988,-0.7988,-0.7988,-0.7988,-0.7988,-0.8137,-0.8386,-0.863,-0.8825,-0.9133,-0.9385,-0.948,-0.9624,-0.9624,-0.9624,-0.9624,-0.9624,-0.9624,-0.9624,-0.9624,-0.9624,-0.9624,-0.9624,-0.9624,-0.9624,-0.9624,-0.9624,-0.9624,-0.9624,-0.9624,-0.9624,-0.9624,-0.9624,-0.9624,-0.9624,-0.9624,-0.9571,-0.9579,-0.9514,-0.9466,-0.9429,-0.9404,-0.9322,-0.9133,-0.8995,-0.8938,-0.8828,-1.8258,-1.8042,-1.8311,-1.8422,-1.837,-1.8101,-1.7838,-1.7589,-1.7589,-1.7589,-1.7589,-1.7589,-1.7589,-1.7589,-1.7589,-1.7589,-1.7589,-1.7589,-1.7589,-1.7575,-1.7508,-1.7462,-1.7355,-1.7136,-1.6617,-1.5628,-1.6336,-1.5952,-1.5513,-1.5236,-1.4802,-1.3484,-1.2361,-1.135,-1.0167,-0.9331,-0.8882,-0.8577,-0.8187,-0.8038,-0.7988,-0.7988,-0.7988,-0.7988,-0.7988,-0.7988,-0.7988,-0.8038,-0.8038,-0.8038,-0.8088,-0.8581,-0.9019,-0.9118,-0.9217,-0.9316,-1.0096,-1.0342,-1.0391,-1.0485,-1.073,-1.0489,-0.9854,-0.8871,-0.8283,-0.7988,-0.7988,-0.7988,-0.7988,-0.7988,-0.7988,-0.7988,-0.7988,-0.8088,-0.8283,-0.8528,-0.8775,-0.908,-0.9331,-0.9529,-0.9624,-0.9624,-0.9624,-0.9624,-0.9624,-0.9624,-0.9624,-0.9624,-0.9624,-0.9624,-0.9624,-0.9624,-0.9624,-0.9624,-0.9624,-0.9624,-0.9624,-0.9624,-0.9624,-0.9624,-0.9624,-0.9624,-0.9624,-0.9624,-0.955,-0.9518,-0.9473,-0.9424,-0.9367,-0.9173,-0.9039,-0.8942,-0.884,-0.8792,-0.8747,-2.0055,-1.9072,-1.8603,-1.8454,-1.8475,-1.8923,-1.8506,-1.7733,-1.7635,-1.7589,-1.7589,-1.7589,-1.7589,-1.7589,-1.7589,-1.7589,-1.7589,-1.7589,-1.7562,-1.7468,-1.7335,-1.7273,-1.7139,-1.6881,-1.657,-1.6229,-1.6326,-1.6049,-1.5802,-1.5645,-1.5175,-1.4214,-1.3093,-1.1809,-1.0538,-0.9517,-0.8878,-0.8528,-0.8184,-0.8038,-0.7988,-0.7988,-0.7988,-0.7988,-0.7988,-0.7988,-0.7988,-0.7988,-0.7988,-0.7988,-0.7988,-0.7988,-0.8333,-0.8382,-0.8382,-0.8482,-0.8581,-0.8775,-0.8871,-0.9312,-0.9657,-0.941,-0.892,-0.8283,-0.8038,-0.7988,-0.7988,-0.7988,-0.7988,-0.7988,-0.7988,-0.7988,-0.7988,-0.8038,-0.8187,-0.8482,-0.873,-0.8981,-0.9232,-0.9529,-0.9624,-0.9624,-0.9624,-0.9624,-0.9624,-0.9624,-0.9624,-0.9624,-0.9624,-0.9624,-0.9624,-0.9624,-0.9624,-0.9624,-0.9624,-0.9624,-0.9624,-0.9624,-0.9624,-0.9624,-0.9624,-0.9624,-0.9624,-0.9547,-0.9502,-0.9421,-0.9375,-0.9238,-0.9116,-0.8938,-0.8816,-0.8718,-0.867,-0.8581,-0.8549,-2.0621,-2.0261,-2.0202,-1.9893,-1.9376,-1.9072,-1.8819,-1.8513,-1.7891,-1.7589,-1.7641,-1.7589,-1.7589,-1.7641,-1.7589,-1.7589,-1.7589,-1.7589,-1.7482,-1.7387,-1.7239,-1.7099,-1.686,-1.6607,-1.638,-1.6239,-1.6106,-1.5972,-1.5811,-1.5825,-1.5683,-1.4867,-1.3896,-1.249,-1.117,-0.9756,-0.8924,-0.8581,-0.8233,-0.7988,-0.7988,-0.7988,-0.7988,-0.7988,-0.7988,-0.7988,-0.7988,-0.7988,-0.7988,-0.7988,-0.7988,-0.7988,-0.7988,-0.7988,-0.7988,-0.7988,-0.7988,-0.7988,-0.7988,-0.8432,-0.8577,-0.8577,-0.8233,-0.7988,-0.7988,-0.7988,-0.7988,-0.7988,-0.7988,-0.7988,-0.7988,-0.7988,-0.7988,-0.8038,-0.8137,-0.8382,-0.863,-0.8882,-0.9183,-0.9426,-0.9575,-0.9624,-0.9624,-0.9624,-0.9624,-0.9624,-0.9624,-0.9624,-0.9624,-0.9624,-0.9624,-0.9624,-0.9624,-0.9624,-0.9624,-0.9624,-0.9624,-0.9624,-0.9624,-0.9624,-0.9624,-0.9575,-0.9554,-0.951,-0.9372,-0.9254,-0.9149,-0.9056,-0.8942,-0.882,-0.8674,-0.8553,-0.846,-0.8388,-0.834,-2.1191,-2.0987,-2.1446,-2.1234,-2.0459,-2.0004,-1.9746,-1.9487,-1.8565,-1.8042,-1.8101,-1.8101,-1.8048,-1.7996,-1.7687,-1.7641,-1.7549,-1.7475,-1.738,-1.7199,-1.7005,-1.6837,-1.654,-1.6313,-1.6119,-1.6086,-1.5979,-1.5832,-1.5832,-1.5825,-1.573,-1.554,-1.5057,-1.3698,-1.2101,-1.0248,-0.9122,-0.868,-0.8382,-0.8038,-0.8038,-0.7988,-0.7988,-0.7988,-0.7988,-0.7988,-0.7988,-0.7988,-0.7988,-0.7988,-0.7988,-0.7988,-0.7988,-0.7988,-0.7988,-0.7988,-0.7988,-0.7988,-0.7988,-0.7988,-0.7988,-0.8088,-0.8088,-0.7988,-0.7988,-0.7988,-0.7988,-0.7988,-0.7988,-0.7988,-0.7988,-0.7988,-0.7988,-0.7988,-0.7988,-0.8237,-0.8531,-0.8779,-0.908,-0.9327,-0.9476,-0.9624,-0.9624,-0.9624,-0.9624,-0.9624,-0.9624,-0.9624,-0.9624,-0.9624,-0.9624,-0.9624,-0.9624,-0.9624,-0.9624,-0.9624,-0.9624,-0.9624,-0.9624,-0.9624,-0.9624,-0.9562,-0.9494,-0.9429,-0.9275,-0.9096,-0.897,-0.8877,-0.8808,-0.8739,-0.8569,-0.8408,-0.8308,-0.8204,-0.8072,-2.192,-2.1089,-2.2072,-2.2182,-2.1717,-2.1869,-2.1505,-2.0731,-1.9694,-1.9183,-1.9176,-1.9124,-1.902,-1.8819,-1.8048,-1.7608,-1.7521,-1.7347,-1.7172,-1.7005,-1.6683,-1.6422,-1.6206,-1.6039,-1.5932,-1.5852,-1.5825,-1.5825,-1.5825,-1.5825,-1.5825,-1.5778,-1.5493,-1.4819,-1.3667,-1.1526,-0.9764,-0.8627,-0.8531,-0.8333,-0.8088,-0.8038,-0.7988,-0.7988,-0.7988,-0.7988,-0.7988,-0.7988,-0.7988,-0.7988,-0.7988,-0.7988,-0.7988,-0.7988,-0.7988,-0.7988,-0.7988,-0.7988,-0.7988,-0.7988,-0.7988,-0.7988,-0.7988,-0.7988,-0.7988,-0.7988,-0.7988,-0.7988,-0.7988,-0.7988,-0.7988,-0.7988,-0.7988,-0.7988,-0.7988,-0.8088,-0.8382,-0.8577,-0.8878,-0.913,-0.9377,-0.9575,-0.9624,-0.9624,-0.9624,-0.9624,-0.9624,-0.9624,-0.9628,-0.9624,-0.9624,-0.9624,-0.9624,-0.9624,-0.9624,-0.9624,-0.9624,-0.9624,-0.9579,-0.948,-0.9424,-0.9315,-0.9288,-0.9284,-0.9055,-0.8716,-0.8676,-0.8698,-0.8581,-0.8427,-0.8388,-0.8252,-0.8157,-0.8025,-0.7852,-2.2392,-2.2072,-2.2443,-2.2695,-2.2695,-2.208,-2.1869,-2.1759,-2.0877,-2.0313,-2.0158,-1.9591,-1.9176,-1.8871,-1.8164,-1.7573,-1.7333,-1.7286,-1.7099,-1.661,-1.6326,-1.6159,-1.6005,-1.5912,-1.5825,-1.5825,-1.5825,-1.5825,-1.5825,-1.5825,-1.5825,-1.5778,-1.5635,-1.4962,-1.3806,-1.2204,-1.0886,-0.9862,-0.9418,-0.892,-0.8333,-0.8137,-0.8038,-0.8038,-0.7988,-0.7988,-0.7988,-0.7988,-0.7988,-0.7988,-0.7988,-0.7988,-0.7988,-0.7988,-0.7988,-0.7988,-0.7988,-0.7988,-0.7988,-0.7988,-0.7988,-0.7988,-0.7988,-0.7988,-0.7988,-0.7988,-0.7988,-0.7988,-0.7988,-0.7988,-0.7988,-0.7988,-0.7988,-0.7988,-0.8038,-0.8137,-0.8333,-0.8428,-0.863,-0.8878,-0.913,-0.9377,-0.9476,-0.9476,-0.9476,-0.948,-0.948,-0.9529,-0.9579,-0.9575,-0.9575,-0.9624,-0.9624,-0.9624,-0.9575,-0.9476,-0.9377,-0.9331,-0.9282,-0.9232,-0.9113,-0.9046,-0.8869,-0.8761,-0.8525,-0.8298,-0.8345,-0.8311,-0.8195,-0.808,-0.8072,-0.8072,-0.7984,-0.7764,-0.7544,-2.2603,-2.2603,-2.2603,-2.2896,-2.3247,-2.2585,-2.2384,-2.2476,-2.2114,-2.1853,-2.1344,-2.0672,-2.0074,-1.95,-1.853,-1.7475,-1.7109,-1.6911,-1.6811,-1.6266,-1.6146,-1.6012,-1.5885,-1.5825,-1.5825,-1.5825,-1.5825,-1.5825,-1.5825,-1.5825,-1.5825,-1.5778,-1.5635,-1.5159,-1.4196,-1.313,-1.1614,-1.0592,-0.9903,-0.9608,-0.8825,-0.8333,-0.8382,-0.8137,-0.7988,-0.7988,-0.7988,-0.7988,-0.7988,-0.7988,-0.7988,-0.7988,-0.7988,-0.7988,-0.7988,-0.7988,-0.7988,-0.7988,-0.7988,-0.7988,-0.7988,-0.7988,-0.7988,-0.7988,-0.7988,-0.7988,-0.7988,-0.7988,-0.7988,-0.7988,-0.7988,-0.7988,-0.7988,-0.7988,-0.8038,-0.8137,-0.8187,-0.8283,-0.8432,-0.8684,-0.8878,-0.9126,-0.9324,-0.9274,-0.9274,-0.9327,-0.9381,-0.943,-0.943,-0.943,-0.9426,-0.9377,-0.9377,-0.9278,-0.9274,-0.9225,-0.9126,-0.9084,-0.9023,-0.8954,-0.8833,-0.8708,-0.8481,-0.8242,-0.8159,-0.8061,-0.7997,-0.7944,-0.7896,-0.7896,-0.7896,-0.7852,-0.7768,-0.7591,-0.7323,-2.2603,-2.2603,-2.2603,-2.2904,-2.3297,-2.3297,-2.3046,-2.2677,-2.3646,-2.3488,-2.2526,-2.2341,-2.1486,-2.0358,-1.9257,-1.806,-1.6957,-1.6601,-1.6362,-1.6179,-1.5999,-1.5879,-1.5845,-1.5825,-1.5825,-1.5825,-1.5825,-1.5825,-1.5825,-1.5825,-1.5825,-1.5825,-1.5778,-1.5397,-1.4777,-1.3956,-1.2393,-1.1317,-1.0979,-1.0293,-0.9118,-0.9019,-0.8726,-0.8333,-0.7988,-0.7988,-0.7988,-0.7988,-0.7988,-0.7988,-0.7988,-0.7988,-0.7988,-0.7988,-0.7988,-0.7988,-0.7988,-0.7988,-0.7988,-0.7988,-0.7988,-0.7988,-0.7988,-0.7988,-0.7988,-0.7988,-0.7988,-0.7988,-0.7988,-0.7988,-0.7988,-0.7988,-0.7988,-0.7988,-0.7988,-0.8038,-0.8088,-0.8187,-0.8287,-0.8485,-0.868,-0.8829,-0.8928,-0.8977,-0.9027,-0.9076,-0.913,-0.9031,-0.908,-0.9183,-0.913,-0.8977,-0.8977,-0.8874,-0.8874,-0.8973,-0.8874,-0.8832,-0.8723,-0.8637,-0.8508,-0.8376,-0.8085,-0.7932,-0.7897,-0.779,-0.7683,-0.7676,-0.7764,-0.772,-0.7632,-0.768,-0.7591,-0.7411,-0.7187,-2.2603,-2.2603,-2.2603,-2.2804,-2.3155,-2.3506,-2.3646,-2.3795,-2.4102,-2.3954,-2.3628,-2.2525,-2.1849,-2.1337,-1.9357,-1.8184,-1.7386,-1.6731,-1.6229,-1.5992,-1.5885,-1.5845,-1.5825,-1.5825,-1.5825,-1.5825,-1.5825,-1.5825,-1.5825,-1.5825,-1.5825,-1.5825,-1.5825,-1.5588,-1.5302,-1.4873,-1.3463,-1.249,-1.2339,-1.1072,-0.985,-0.9657,-0.9069,-0.8432,-0.8038,-0.8038,-0.7988,-0.7988,-0.7988,-0.7988,-0.7988,-0.7988,-0.7988,-0.7988,-0.7988,-0.7988,-0.7988,-0.7988,-0.7988,-0.7988,-0.7988,-0.7988,-0.7988,-0.7988,-0.7988,-0.7988,-0.7988,-0.7988,-0.7988,-0.7988,-0.7988,-0.7988,-0.7988,-0.7988,-0.7988,-0.7988,-0.8038,-0.8088,-0.8187,-0.8237,-0.8432,-0.8531,-0.863,-0.873,-0.8779,-0.8829,-0.8829,-0.873,-0.873,-0.8832,-0.8832,-0.868,-0.8676,-0.8627,-0.8726,-0.8821,-0.8676,-0.8574,-0.8456,-0.8324,-0.8113,-0.7928,-0.771,-0.7612,-0.7574,-0.7432,-0.7323,-0.7363,-0.7496,-0.7363,-0.7275,-0.7367,-0.737,-0.7231,-0.7095,-2.2603,-2.2603,-2.2603,-2.2795,-2.3197,-2.3755,-2.4053,-2.4202,-2.4211,-2.4211,-2.4057,-2.3077,-2.2209,-2.1411,-1.9676,-1.8304,-1.7449,-1.6553,-1.5985,-1.5905,-1.5825,-1.5825,-1.5825,-1.5825,-1.5825,-1.5825,-1.5825,-1.5825,-1.5825,-1.5825,-1.5825,-1.5825,-1.5825,-1.5689,-1.5452,-1.5118,-1.4592,-1.3859,-1.3221,-1.215,-1.1126,-1.0243,-0.9608,-0.8676,-0.8287,-0.8038,-0.7988,-0.7988,-0.7988,-0.7988,-0.7988,-0.7988,-0.7988,-0.7988,-0.7988,-0.7988,-0.7988,-0.7988,-0.7988,-0.7988,-0.7988,-0.7988,-0.7988,-0.7988,-0.7988,-0.7988,-0.7988,-0.7988,-0.7988,-0.7988,-0.7988,-0.7988,-0.7988,-0.7988,-0.7988,-0.7988,-0.7988,-0.7988,-0.8038,-0.8038,-0.8137,-0.8287,-0.8382,-0.8482,-0.8531,-0.8581,-0.8531,-0.8482,-0.8482,-0.8581,-0.8535,-0.8386,-0.8382,-0.8379,-0.8478,-0.8524,-0.8421,-0.829,-0.8157,-0.7973,-0.7723,-0.7617,-0.7488,-0.7379,-0.7241,-0.7163,-0.7187,-0.7143,-0.7183,-0.7095,-0.7095,-0.7187,-0.7279,-0.7187,-0.7095,-2.2603,-2.2603,-2.2603,-2.2946,-2.3447,-2.3904,-2.4152,-2.4202,-2.4146,-2.4146,-2.3996,-2.3608,-2.27,-2.1613,-2.0087,-1.8761,-1.774,-1.6746,-1.6089,-1.5825,-1.5825,-1.5825,-1.5825,-1.5825,-1.5825,-1.5825,-1.5825,-1.5825,-1.5825,-1.5825,-1.5825,-1.5825,-1.5825,-1.573,-1.554,-1.522,-1.4838,-1.4592,-1.4004,-1.3076,-1.1658,-1.1028,-1.0636,-0.9365,-0.8581,-0.7988,-0.7988,-0.7988,-0.7988,-0.7988,-0.7988,-0.7988,-0.7988,-0.7988,-0.7988,-0.7988,-0.7988,-0.7988,-0.7988,-0.7988,-0.7988,-0.7988,-0.7988,-0.7988,-0.7988,-0.7988,-0.7988,-0.7988,-0.7988,-0.7988,-0.7988,-0.7988,-0.7988,-0.7988,-0.7988,-0.7988,-0.7988,-0.7988,-0.7988,-0.7988,-0.8038,-0.8137,-0.8137,-0.8237,-0.8287,-0.8283,-0.8283,-0.8237,-0.8233,-0.8333,-0.8283,-0.8137,-0.8187,-0.8184,-0.8184,-0.8177,-0.8113,-0.7967,-0.7914,-0.7774,-0.7587,-0.7448,-0.7309,-0.7231,-0.7166,-0.7112,-0.7139,-0.7095,-0.7095,-0.7095,-0.7095,-0.7095,-0.7095,-0.6918,-0.7051,-2.2603,-2.2653,-2.2804,-2.3097,-2.3447,-2.3755,-2.3994,-2.4165,-2.3813,-2.3694,-2.3611,-2.3215,-2.2737,-2.1928,-2.0609,-1.9374,-1.8411,-1.7232,-1.6534,-1.6062,-1.5872,-1.5825,-1.5825,-1.5825,-1.5825,-1.5825,-1.5825,-1.5825,-1.5825,-1.5825,-1.5825,-1.5825,-1.5825,-1.573,-1.5683,-1.5315,-1.5035,-1.4933,-1.4394,-1.3318,-1.1707,-1.0979,-1.044,-0.9167,-0.8134,-0.8134,-0.8088,-0.8038,-0.7988,-0.7988,-0.7988,-0.7988,-0.7988,-0.7988,-0.7988,-0.7988,-0.7988,-0.7988,-0.7988,-0.7988,-0.7988,-0.7988,-0.7988,-0.7988,-0.7988,-0.7988,-0.7988,-0.7988,-0.7988,-0.7988,-0.7988,-0.7988,-0.7988,-0.7988,-0.7988,-0.7988,-0.7988,-0.7988,-0.7988,-0.7988,-0.7988,-0.7988,-0.7988,-0.7988,-0.8041,-0.8088,-0.8088,-0.8038,-0.8088,-0.8134,-0.8134,-0.8038,-0.8038,-0.8038,-0.7988,-0.7971,-0.7951,-0.7889,-0.7767,-0.7617,-0.7458,-0.7333,-0.7221,-0.7187,-0.7098,-0.7007,-0.7007,-0.7051,-0.7051,-0.6782,-0.665,-0.6473,-0.6428,-0.634,-0.6605,-2.2603,-2.2644,-2.2896,-2.3147,-2.3397,-2.3705,-2.3854,-2.3849,-2.359,-2.3288,-2.2968,-2.2721,-2.2492,-2.208,-2.0884,-2.0113,-1.9201,-1.7924,-1.7138,-1.6534,-1.6021,-1.5825,-1.5825,-1.5825,-1.5825,-1.5825,-1.5825,-1.5825,-1.5825,-1.5825,-1.5825,-1.5825,-1.5825,-1.5778,-1.5737,-1.5363,-1.5131,-1.5083,-1.4544,-1.3414,-1.195,-1.1609,-1.1463,-1.019,-0.9312,-0.892,-0.8482,-0.8382,-0.7988,-0.7988,-0.7988,-0.7988,-0.7988,-0.7988,-0.7988,-0.7988,-0.7988,-0.7988,-0.7988,-0.7988,-0.7988,-0.7988,-0.7988,-0.7988,-0.7988,-0.7988,-0.7988,-0.7988,-0.7988,-0.7988,-0.7988,-0.7988,-0.7988,-0.7988,-0.7988,-0.7988,-0.7988,-0.7988,-0.7988,-0.7988,-0.7988,-0.7988,-0.7988,-0.7988,-0.8038,-0.8038,-0.7988,-0.7988,-0.7988,-0.7988,-0.7988,-0.7988,-0.7988,-0.7988,-0.7988,-0.7965,-0.7931,-0.7845,-0.7628,-0.7409,-0.7206,-0.7189,-0.7098,-0.6962,-0.6874,-0.6782,-0.6782,-0.6605,-0.6071,-0.5581,-0.5581,-0.5669,-0.5669,-0.5581,-0.5581,-2.2603,-2.2653,-2.2946,-2.3197,-2.3438,-2.3633,-2.3681,-2.3526,-2.337,-2.294,-2.2428,-2.2309,-2.2254,-2.1789,-2.1129,-2.0644,-1.9931,-1.8842,-1.7971,-1.7052,-1.644,-1.6109,-1.5872,-1.5825,-1.5825,-1.5825,-1.5825,-1.5825,-1.5825,-1.5825,-1.5825,-1.5825,-1.5825,-1.5825,-1.5642,-1.541,-1.5083,-1.4981,-1.4544,-1.3859,-1.3173,-1.2581,-1.2042,-1.1458,-1.0583,-0.9505,-0.9069,-0.8676,-0.8038,-0.7988,-0.7988,-0.7988,-0.7988,-0.7988,-0.7988,-0.7988,-0.7988,-0.7988,-0.7988,-0.7988,-0.7988,-0.7988,-0.7988,-0.7988,-0.7988,-0.7988,-0.7988,-0.7988,-0.7988,-0.7988,-0.7988,-0.7988,-0.7988,-0.7988,-0.7988,-0.7988,-0.7988,-0.7988,-0.7988,-0.7988,-0.7988,-0.7988,-0.7988,-0.7988,-0.7988,-0.7988,-0.7988,-0.7988,-0.7988,-0.7988,-0.7988,-0.7988,-0.7988,-0.7988,-0.7988,-0.7875,-0.7825,-0.7574,-0.7355,-0.7126,-0.6796,-0.6284,-0.6204,-0.6697,-0.6564,-0.616,-0.5938,-0.5764,-0.5139,-0.4556,-0.4823,-0.5001,-0.4779,-0.4645,-0.4289,-2.2603,-2.2644,-2.3097,-2.3347,-2.3411,-2.351,-2.3514,-2.3389,-2.2794,-2.24,-2.2217,-2.1925,-2.1806,-2.1815,-2.1652,-2.1177,-2.0439,-1.9567,-1.8473,-1.7372,-1.7005,-1.6487,-1.6015,-1.5825,-1.5825,-1.5825,-1.5825,-1.5825,-1.5825,-1.5825,-1.5825,-1.5825,-1.5825,-1.5778,-1.5737,-1.541,-1.5083,-1.4933,-1.464,-1.4052,-1.3511,-1.2581,-1.1023,-1.0096,-0.9019,-0.8478,-0.8237,-0.8137,-0.8038,-0.7988,-0.7988,-0.7988,-0.7988,-0.7988,-0.7988,-0.7988,-0.7988,-0.7988,-0.7988,-0.7988,-0.7988,-0.7988,-0.7988,-0.7988,-0.7988,-0.7988,-0.7988,-0.7988,-0.7988,-0.7988,-0.7988,-0.7988,-0.7988,-0.7988,-0.7988,-0.7988,-0.7988,-0.7988,-0.7988,-0.7988,-0.7988,-0.7988,-0.7988,-0.7988,-0.7988,-0.7939,-0.7786,-0.7786,-0.764,-0.7789,-0.7836,-0.7736,-0.7637,-0.7988,-0.7985,-0.771,-0.753,-0.7289,-0.6858,-0.6233,-0.5592,-0.4931,-0.5003,-0.5716,-0.5581,-0.509,-0.4959,-0.4783,-0.4469,-0.4022,-0.4289,-0.4378,-0.4067,-0.3666,-0.331]}]]